<?xml version="1.0" encoding="UTF-8" standalone="no" ?>
<gpx xmlns="http://www.topografix.com/GPX/1/1" xmlns:xsi="http://www.w3.org/2001/XMLSchema-instance" xsi:schemaLocation="http://www.topografix.com/GPX/1/1 http://www.topografix.com/GPX/1/1/gpx.xsd" version="1.1" creator="VisuGPX - https://www.visugpx.com">
  <metadata>
    <name>Campana de Cloutou</name>
    <desc><![CDATA[Une belle randonnée sur le GR 10 en passant par le refuge de Campana de Cloutou, avec une multitude de lacs et laquets sans difficultés majeures sauf peut-être le dénivelé cumulé et la distance. ]]></desc>
  </metadata>
  <trk>
    <name><![CDATA[campana de cloutou hourquette 20160705 09:17]]></name>
    <trkseg>
      <trkpt lat="42.91727" lon="0.20907">
        <ele>1294.55</ele>
        <time>2016-07-05T07:18:03Z</time>
      </trkpt>
      <trkpt lat="42.91724" lon="0.20906">
        <ele>1295.03</ele>
        <time>2016-07-05T07:18:20Z</time>
      </trkpt>
      <trkpt lat="42.91723" lon="0.20908">
        <ele>1295.99</ele>
        <time>2016-07-05T07:18:35Z</time>
      </trkpt>
      <trkpt lat="42.91722" lon="0.20911">
        <ele>1302.72</ele>
        <time>2016-07-05T07:19:38Z</time>
      </trkpt>
      <trkpt lat="42.91724" lon="0.20909">
        <ele>1302.72</ele>
        <time>2016-07-05T07:19:51Z</time>
      </trkpt>
      <trkpt lat="42.91725" lon="0.20903">
        <ele>1303.69</ele>
        <time>2016-07-05T07:20:03Z</time>
      </trkpt>
      <trkpt lat="42.91724" lon="0.20901">
        <ele>1303.69</ele>
        <time>2016-07-05T07:20:15Z</time>
      </trkpt>
      <trkpt lat="42.91726" lon="0.20908">
        <ele>1305.61</ele>
        <time>2016-07-05T07:20:48Z</time>
      </trkpt>
      <trkpt lat="42.91725" lon="0.20915">
        <ele>1306.57</ele>
        <time>2016-07-05T07:21:03Z</time>
      </trkpt>
      <trkpt lat="42.91719" lon="0.20911">
        <ele>1307.05</ele>
        <time>2016-07-05T07:21:17Z</time>
      </trkpt>
      <trkpt lat="42.91718" lon="0.20912">
        <ele>1307.53</ele>
        <time>2016-07-05T07:21:18Z</time>
      </trkpt>
      <trkpt lat="42.91716" lon="0.20911">
        <ele>1307.53</ele>
        <time>2016-07-05T07:21:21Z</time>
      </trkpt>
      <trkpt lat="42.91697" lon="0.2092">
        <ele>1308.01</ele>
        <time>2016-07-05T07:21:36Z</time>
      </trkpt>
      <trkpt lat="42.91693" lon="0.20924">
        <ele>1308.01</ele>
        <time>2016-07-05T07:21:43Z</time>
      </trkpt>
      <trkpt lat="42.91693" lon="0.20934">
        <ele>1308.01</ele>
        <time>2016-07-05T07:21:59Z</time>
      </trkpt>
      <trkpt lat="42.91694" lon="0.20933">
        <ele>1308.49</ele>
        <time>2016-07-05T07:22:26Z</time>
      </trkpt>
      <trkpt lat="42.91691" lon="0.20937">
        <ele>1309.93</ele>
        <time>2016-07-05T07:22:59Z</time>
      </trkpt>
      <trkpt lat="42.91693" lon="0.20942">
        <ele>1310.41</ele>
        <time>2016-07-05T07:23:22Z</time>
      </trkpt>
      <trkpt lat="42.91696" lon="0.20937">
        <ele>1310.41</ele>
        <time>2016-07-05T07:23:31Z</time>
      </trkpt>
      <trkpt lat="42.91696" lon="0.2094">
        <ele>1310.9</ele>
        <time>2016-07-05T07:23:46Z</time>
      </trkpt>
      <trkpt lat="42.91699" lon="0.20941">
        <ele>1313.3</ele>
        <time>2016-07-05T07:23:57Z</time>
      </trkpt>
      <trkpt lat="42.91695" lon="0.20944">
        <ele>1312.34</ele>
        <time>2016-07-05T07:24:14Z</time>
      </trkpt>
      <trkpt lat="42.91694" lon="0.2095">
        <ele>1312.34</ele>
        <time>2016-07-05T07:24:22Z</time>
      </trkpt>
      <trkpt lat="42.91682" lon="0.20948">
        <ele>1312.82</ele>
        <time>2016-07-05T07:24:37Z</time>
      </trkpt>
      <trkpt lat="42.91682" lon="0.20946">
        <ele>1456.05</ele>
        <time>2016-07-05T07:24:40Z</time>
      </trkpt>
      <trkpt lat="42.91682" lon="0.20945">
        <ele>1433.46</ele>
        <time>2016-07-05T07:24:43Z</time>
      </trkpt>
      <trkpt lat="42.91682" lon="0.20944">
        <ele>1433.94</ele>
        <time>2016-07-05T07:24:44Z</time>
      </trkpt>
      <trkpt lat="42.91681" lon="0.20944">
        <ele>1433.94</ele>
        <time>2016-07-05T07:24:48Z</time>
      </trkpt>
      <trkpt lat="42.91673" lon="0.20936">
        <ele>1433.94</ele>
        <time>2016-07-05T07:25:05Z</time>
      </trkpt>
      <trkpt lat="42.91666" lon="0.20926">
        <ele>1433.46</ele>
        <time>2016-07-05T07:25:18Z</time>
      </trkpt>
      <trkpt lat="42.91666" lon="0.20924">
        <ele>1433.46</ele>
        <time>2016-07-05T07:25:20Z</time>
      </trkpt>
      <trkpt lat="42.91663" lon="0.20914">
        <ele>1431.06</ele>
        <time>2016-07-05T07:25:31Z</time>
      </trkpt>
      <trkpt lat="42.91658" lon="0.20923">
        <ele>1427.7</ele>
        <time>2016-07-05T07:25:59Z</time>
      </trkpt>
      <trkpt lat="42.91659" lon="0.20927">
        <ele>1427.21</ele>
        <time>2016-07-05T07:26:05Z</time>
      </trkpt>
      <trkpt lat="42.91658" lon="0.20949">
        <ele>1423.85</ele>
        <time>2016-07-05T07:26:23Z</time>
      </trkpt>
      <trkpt lat="42.91659" lon="0.20956">
        <ele>1422.41</ele>
        <time>2016-07-05T07:26:36Z</time>
      </trkpt>
      <trkpt lat="42.91649" lon="0.2096">
        <ele>1422.41</ele>
        <time>2016-07-05T07:26:50Z</time>
      </trkpt>
      <trkpt lat="42.91644" lon="0.20966">
        <ele>1424.33</ele>
        <time>2016-07-05T07:27:04Z</time>
      </trkpt>
      <trkpt lat="42.91641" lon="0.20975">
        <ele>1427.21</ele>
        <time>2016-07-05T07:27:20Z</time>
      </trkpt>
      <trkpt lat="42.91635" lon="0.2099">
        <ele>1429.14</ele>
        <time>2016-07-05T07:27:38Z</time>
      </trkpt>
      <trkpt lat="42.91625" lon="0.20989">
        <ele>1431.54</ele>
        <time>2016-07-05T07:27:52Z</time>
      </trkpt>
      <trkpt lat="42.91626" lon="0.21004">
        <ele>1432.98</ele>
        <time>2016-07-05T07:28:06Z</time>
      </trkpt>
      <trkpt lat="42.91622" lon="0.21011">
        <ele>1432.98</ele>
        <time>2016-07-05T07:28:18Z</time>
      </trkpt>
      <trkpt lat="42.91616" lon="0.21012">
        <ele>1432.5</ele>
        <time>2016-07-05T07:28:23Z</time>
      </trkpt>
      <trkpt lat="42.91609" lon="0.21025">
        <ele>1432.5</ele>
        <time>2016-07-05T07:28:34Z</time>
      </trkpt>
      <trkpt lat="42.91607" lon="0.21048">
        <ele>1434.91</ele>
        <time>2016-07-05T07:28:50Z</time>
      </trkpt>
      <trkpt lat="42.91603" lon="0.21063">
        <ele>1437.31</ele>
        <time>2016-07-05T07:29:04Z</time>
      </trkpt>
      <trkpt lat="42.91602" lon="0.21066">
        <ele>1437.79</ele>
        <time>2016-07-05T07:29:06Z</time>
      </trkpt>
      <trkpt lat="42.91603" lon="0.21074">
        <ele>1438.75</ele>
        <time>2016-07-05T07:29:12Z</time>
      </trkpt>
      <trkpt lat="42.91603" lon="0.21084">
        <ele>1440.19</ele>
        <time>2016-07-05T07:29:19Z</time>
      </trkpt>
      <trkpt lat="42.91602" lon="0.21091">
        <ele>1440.67</ele>
        <time>2016-07-05T07:29:24Z</time>
      </trkpt>
      <trkpt lat="42.91598" lon="0.21106">
        <ele>1443.08</ele>
        <time>2016-07-05T07:29:37Z</time>
      </trkpt>
      <trkpt lat="42.91596" lon="0.21114">
        <ele>1444.52</ele>
        <time>2016-07-05T07:29:45Z</time>
      </trkpt>
      <trkpt lat="42.9159" lon="0.21125">
        <ele>1446.92</ele>
        <time>2016-07-05T07:29:58Z</time>
      </trkpt>
      <trkpt lat="42.91589" lon="0.21136">
        <ele>1449.81</ele>
        <time>2016-07-05T07:30:11Z</time>
      </trkpt>
      <trkpt lat="42.91585" lon="0.21139">
        <ele>1452.21</ele>
        <time>2016-07-05T07:30:24Z</time>
      </trkpt>
      <trkpt lat="42.9158" lon="0.21141">
        <ele>1455.09</ele>
        <time>2016-07-05T07:30:36Z</time>
      </trkpt>
      <trkpt lat="42.91582" lon="0.21145">
        <ele>1456.53</ele>
        <time>2016-07-05T07:30:43Z</time>
      </trkpt>
      <trkpt lat="42.91583" lon="0.21154">
        <ele>1458.94</ele>
        <time>2016-07-05T07:30:56Z</time>
      </trkpt>
      <trkpt lat="42.91575" lon="0.21159">
        <ele>1461.82</ele>
        <time>2016-07-05T07:31:12Z</time>
      </trkpt>
      <trkpt lat="42.91574" lon="0.21165">
        <ele>1463.74</ele>
        <time>2016-07-05T07:31:25Z</time>
      </trkpt>
      <trkpt lat="42.91573" lon="0.21171">
        <ele>1466.15</ele>
        <time>2016-07-05T07:31:38Z</time>
      </trkpt>
      <trkpt lat="42.91574" lon="0.21179">
        <ele>1469.03</ele>
        <time>2016-07-05T07:31:53Z</time>
      </trkpt>
      <trkpt lat="42.91571" lon="0.21185">
        <ele>1471.44</ele>
        <time>2016-07-05T07:32:06Z</time>
      </trkpt>
      <trkpt lat="42.91566" lon="0.21192">
        <ele>1473.84</ele>
        <time>2016-07-05T07:32:20Z</time>
      </trkpt>
      <trkpt lat="42.91569" lon="0.21202">
        <ele>1476.72</ele>
        <time>2016-07-05T07:32:35Z</time>
      </trkpt>
      <trkpt lat="42.91575" lon="0.21209">
        <ele>1478.65</ele>
        <time>2016-07-05T07:32:47Z</time>
      </trkpt>
      <trkpt lat="42.91574" lon="0.21215">
        <ele>1480.57</ele>
        <time>2016-07-05T07:32:59Z</time>
      </trkpt>
      <trkpt lat="42.91573" lon="0.21225">
        <ele>1482.97</ele>
        <time>2016-07-05T07:33:11Z</time>
      </trkpt>
      <trkpt lat="42.91564" lon="0.21229">
        <ele>1485.37</ele>
        <time>2016-07-05T07:33:26Z</time>
      </trkpt>
      <trkpt lat="42.91558" lon="0.21237">
        <ele>1487.78</ele>
        <time>2016-07-05T07:33:39Z</time>
      </trkpt>
      <trkpt lat="42.91561" lon="0.21248">
        <ele>1489.7</ele>
        <time>2016-07-05T07:33:50Z</time>
      </trkpt>
      <trkpt lat="42.91563" lon="0.21251">
        <ele>1490.18</ele>
        <time>2016-07-05T07:33:54Z</time>
      </trkpt>
      <trkpt lat="42.91564" lon="0.21252">
        <ele>1490.18</ele>
        <time>2016-07-05T07:33:56Z</time>
      </trkpt>
      <trkpt lat="42.91566" lon="0.21258">
        <ele>1491.14</ele>
        <time>2016-07-05T07:34:01Z</time>
      </trkpt>
      <trkpt lat="42.91569" lon="0.21269">
        <ele>1493.55</ele>
        <time>2016-07-05T07:34:14Z</time>
      </trkpt>
      <trkpt lat="42.91571" lon="0.21276">
        <ele>1495.47</ele>
        <time>2016-07-05T07:34:25Z</time>
      </trkpt>
      <trkpt lat="42.91573" lon="0.21286">
        <ele>1498.35</ele>
        <time>2016-07-05T07:34:39Z</time>
      </trkpt>
      <trkpt lat="42.91578" lon="0.21294">
        <ele>1500.76</ele>
        <time>2016-07-05T07:34:52Z</time>
      </trkpt>
      <trkpt lat="42.91585" lon="0.21305">
        <ele>1503.64</ele>
        <time>2016-07-05T07:35:08Z</time>
      </trkpt>
      <trkpt lat="42.91588" lon="0.21315">
        <ele>1506.04</ele>
        <time>2016-07-05T07:35:22Z</time>
      </trkpt>
      <trkpt lat="42.91589" lon="0.21322">
        <ele>1508.93</ele>
        <time>2016-07-05T07:35:34Z</time>
      </trkpt>
      <trkpt lat="42.91588" lon="0.21328">
        <ele>1510.85</ele>
        <time>2016-07-05T07:35:48Z</time>
      </trkpt>
      <trkpt lat="42.9159" lon="0.21337">
        <ele>1513.25</ele>
        <time>2016-07-05T07:36:02Z</time>
      </trkpt>
      <trkpt lat="42.91591" lon="0.21342">
        <ele>1515.66</ele>
        <time>2016-07-05T07:36:13Z</time>
      </trkpt>
      <trkpt lat="42.91585" lon="0.21344">
        <ele>1517.1</ele>
        <time>2016-07-05T07:36:24Z</time>
      </trkpt>
      <trkpt lat="42.91587" lon="0.21348">
        <ele>1519.5</ele>
        <time>2016-07-05T07:36:39Z</time>
      </trkpt>
      <trkpt lat="42.91587" lon="0.21357">
        <ele>1522.39</ele>
        <time>2016-07-05T07:36:51Z</time>
      </trkpt>
      <trkpt lat="42.91589" lon="0.21364">
        <ele>1524.31</ele>
        <time>2016-07-05T07:37:03Z</time>
      </trkpt>
      <trkpt lat="42.91592" lon="0.2137">
        <ele>1526.71</ele>
        <time>2016-07-05T07:37:17Z</time>
      </trkpt>
      <trkpt lat="42.9159" lon="0.21378">
        <ele>1529.11</ele>
        <time>2016-07-05T07:37:30Z</time>
      </trkpt>
      <trkpt lat="42.91586" lon="0.21384">
        <ele>1531.04</ele>
        <time>2016-07-05T07:37:41Z</time>
      </trkpt>
      <trkpt lat="42.91587" lon="0.21392">
        <ele>1533.44</ele>
        <time>2016-07-05T07:37:54Z</time>
      </trkpt>
      <trkpt lat="42.91585" lon="0.21398">
        <ele>1535.84</ele>
        <time>2016-07-05T07:38:06Z</time>
      </trkpt>
      <trkpt lat="42.91583" lon="0.21411">
        <ele>1539.21</ele>
        <time>2016-07-05T07:38:21Z</time>
      </trkpt>
      <trkpt lat="42.91579" lon="0.21418">
        <ele>1541.13</ele>
        <time>2016-07-05T07:38:32Z</time>
      </trkpt>
      <trkpt lat="42.91578" lon="0.21423">
        <ele>1542.09</ele>
        <time>2016-07-05T07:38:37Z</time>
      </trkpt>
      <trkpt lat="42.91573" lon="0.21436">
        <ele>1544.5</ele>
        <time>2016-07-05T07:38:51Z</time>
      </trkpt>
      <trkpt lat="42.91572" lon="0.21448">
        <ele>1546.42</ele>
        <time>2016-07-05T07:39:04Z</time>
      </trkpt>
      <trkpt lat="42.9157" lon="0.21455">
        <ele>1547.38</ele>
        <time>2016-07-05T07:39:17Z</time>
      </trkpt>
      <trkpt lat="42.91574" lon="0.21457">
        <ele>1547.38</ele>
        <time>2016-07-05T07:39:21Z</time>
      </trkpt>
      <trkpt lat="42.91575" lon="0.21461">
        <ele>1547.86</ele>
        <time>2016-07-05T07:39:30Z</time>
      </trkpt>
      <trkpt lat="42.91573" lon="0.21462">
        <ele>1547.38</ele>
        <time>2016-07-05T07:39:41Z</time>
      </trkpt>
      <trkpt lat="42.91573" lon="0.21455">
        <ele>1547.38</ele>
        <time>2016-07-05T07:40:11Z</time>
      </trkpt>
      <trkpt lat="42.91573" lon="0.2146">
        <ele>1548.34</ele>
        <time>2016-07-05T07:40:33Z</time>
      </trkpt>
      <trkpt lat="42.91572" lon="0.21462">
        <ele>1548.34</ele>
        <time>2016-07-05T07:40:52Z</time>
      </trkpt>
      <trkpt lat="42.91572" lon="0.2146">
        <ele>1548.34</ele>
        <time>2016-07-05T07:41:11Z</time>
      </trkpt>
      <trkpt lat="42.91573" lon="0.2146">
        <ele>1548.82</ele>
        <time>2016-07-05T07:41:17Z</time>
      </trkpt>
      <trkpt lat="42.91572" lon="0.21462">
        <ele>1548.82</ele>
        <time>2016-07-05T07:41:28Z</time>
      </trkpt>
      <trkpt lat="42.91568" lon="0.2147">
        <ele>1548.34</ele>
        <time>2016-07-05T07:41:36Z</time>
      </trkpt>
      <trkpt lat="42.91567" lon="0.21473">
        <ele>1551.71</ele>
        <time>2016-07-05T07:41:38Z</time>
      </trkpt>
      <trkpt lat="42.91567" lon="0.21474">
        <ele>1547.86</ele>
        <time>2016-07-05T07:41:39Z</time>
      </trkpt>
      <trkpt lat="42.91566" lon="0.21477">
        <ele>1549.3</ele>
        <time>2016-07-05T07:41:49Z</time>
      </trkpt>
      <trkpt lat="42.91557" lon="0.21495">
        <ele>1549.78</ele>
        <time>2016-07-05T07:42:04Z</time>
      </trkpt>
      <trkpt lat="42.91556" lon="0.21496">
        <ele>1549.78</ele>
        <time>2016-07-05T07:42:07Z</time>
      </trkpt>
      <trkpt lat="42.91552" lon="0.2151">
        <ele>1550.74</ele>
        <time>2016-07-05T07:42:20Z</time>
      </trkpt>
      <trkpt lat="42.91551" lon="0.21512">
        <ele>1551.22</ele>
        <time>2016-07-05T07:42:34Z</time>
      </trkpt>
      <trkpt lat="42.91548" lon="0.21522">
        <ele>1551.71</ele>
        <time>2016-07-05T07:42:54Z</time>
      </trkpt>
      <trkpt lat="42.91546" lon="0.21542">
        <ele>1553.63</ele>
        <time>2016-07-05T07:43:10Z</time>
      </trkpt>
      <trkpt lat="42.91539" lon="0.21562">
        <ele>1554.59</ele>
        <time>2016-07-05T07:43:25Z</time>
      </trkpt>
      <trkpt lat="42.91531" lon="0.21587">
        <ele>1554.59</ele>
        <time>2016-07-05T07:43:42Z</time>
      </trkpt>
      <trkpt lat="42.91523" lon="0.21605">
        <ele>1555.07</ele>
        <time>2016-07-05T07:43:59Z</time>
      </trkpt>
      <trkpt lat="42.91511" lon="0.21619">
        <ele>1555.07</ele>
        <time>2016-07-05T07:44:14Z</time>
      </trkpt>
      <trkpt lat="42.91504" lon="0.21627">
        <ele>1555.55</ele>
        <time>2016-07-05T07:44:22Z</time>
      </trkpt>
      <trkpt lat="42.91492" lon="0.21641">
        <ele>1556.03</ele>
        <time>2016-07-05T07:44:37Z</time>
      </trkpt>
      <trkpt lat="42.91483" lon="0.21649">
        <ele>1556.99</ele>
        <time>2016-07-05T07:44:47Z</time>
      </trkpt>
      <trkpt lat="42.91472" lon="0.21667">
        <ele>1557.47</ele>
        <time>2016-07-05T07:45:03Z</time>
      </trkpt>
      <trkpt lat="42.91464" lon="0.21674">
        <ele>1557.47</ele>
        <time>2016-07-05T07:45:17Z</time>
      </trkpt>
      <trkpt lat="42.91456" lon="0.21674">
        <ele>1558.43</ele>
        <time>2016-07-05T07:45:25Z</time>
      </trkpt>
      <trkpt lat="42.91453" lon="0.21674">
        <ele>1557.47</ele>
        <time>2016-07-05T07:45:27Z</time>
      </trkpt>
      <trkpt lat="42.91447" lon="0.21675">
        <ele>1557.95</ele>
        <time>2016-07-05T07:45:33Z</time>
      </trkpt>
      <trkpt lat="42.91429" lon="0.21675">
        <ele>1557.47</ele>
        <time>2016-07-05T07:45:48Z</time>
      </trkpt>
      <trkpt lat="42.9141" lon="0.21675">
        <ele>1557.95</ele>
        <time>2016-07-05T07:46:04Z</time>
      </trkpt>
      <trkpt lat="42.91394" lon="0.21668">
        <ele>1557.95</ele>
        <time>2016-07-05T07:46:19Z</time>
      </trkpt>
      <trkpt lat="42.91378" lon="0.2166">
        <ele>1558.92</ele>
        <time>2016-07-05T07:46:35Z</time>
      </trkpt>
      <trkpt lat="42.91364" lon="0.21652">
        <ele>1559.88</ele>
        <time>2016-07-05T07:46:48Z</time>
      </trkpt>
      <trkpt lat="42.91345" lon="0.21638">
        <ele>1559.88</ele>
        <time>2016-07-05T07:47:07Z</time>
      </trkpt>
      <trkpt lat="42.91326" lon="0.2163">
        <ele>1558.43</ele>
        <time>2016-07-05T07:47:25Z</time>
      </trkpt>
      <trkpt lat="42.91308" lon="0.21619">
        <ele>1558.43</ele>
        <time>2016-07-05T07:47:41Z</time>
      </trkpt>
      <trkpt lat="42.91287" lon="0.2161">
        <ele>1558.43</ele>
        <time>2016-07-05T07:47:59Z</time>
      </trkpt>
      <trkpt lat="42.91265" lon="0.21598">
        <ele>1557.95</ele>
        <time>2016-07-05T07:48:17Z</time>
      </trkpt>
      <trkpt lat="42.91244" lon="0.21587">
        <ele>1556.99</ele>
        <time>2016-07-05T07:48:35Z</time>
      </trkpt>
      <trkpt lat="42.91223" lon="0.21575">
        <ele>1555.07</ele>
        <time>2016-07-05T07:48:53Z</time>
      </trkpt>
      <trkpt lat="42.91206" lon="0.21563">
        <ele>1553.63</ele>
        <time>2016-07-05T07:49:09Z</time>
      </trkpt>
      <trkpt lat="42.91189" lon="0.21541">
        <ele>1555.07</ele>
        <time>2016-07-05T07:49:28Z</time>
      </trkpt>
      <trkpt lat="42.91182" lon="0.21533">
        <ele>1556.03</ele>
        <time>2016-07-05T07:49:37Z</time>
      </trkpt>
      <trkpt lat="42.91176" lon="0.21525">
        <ele>1557.95</ele>
        <time>2016-07-05T07:49:47Z</time>
      </trkpt>
      <trkpt lat="42.91176" lon="0.21516">
        <ele>1558.43</ele>
        <time>2016-07-05T07:49:53Z</time>
      </trkpt>
      <trkpt lat="42.91162" lon="0.21503">
        <ele>1557.47</ele>
        <time>2016-07-05T07:50:08Z</time>
      </trkpt>
      <trkpt lat="42.91145" lon="0.2149">
        <ele>1557.95</ele>
        <time>2016-07-05T07:50:25Z</time>
      </trkpt>
      <trkpt lat="42.91137" lon="0.21476">
        <ele>1560.36</ele>
        <time>2016-07-05T07:50:40Z</time>
      </trkpt>
      <trkpt lat="42.91129" lon="0.21467">
        <ele>1562.76</ele>
        <time>2016-07-05T07:50:53Z</time>
      </trkpt>
      <trkpt lat="42.91122" lon="0.21469">
        <ele>1564.68</ele>
        <time>2016-07-05T07:51:02Z</time>
      </trkpt>
      <trkpt lat="42.9112" lon="0.21478">
        <ele>1563.24</ele>
        <time>2016-07-05T07:51:08Z</time>
      </trkpt>
      <trkpt lat="42.91114" lon="0.21481">
        <ele>1562.76</ele>
        <time>2016-07-05T07:51:12Z</time>
      </trkpt>
      <trkpt lat="42.9111" lon="0.21486">
        <ele>1562.28</ele>
        <time>2016-07-05T07:51:17Z</time>
      </trkpt>
      <trkpt lat="42.91099" lon="0.21491">
        <ele>1562.28</ele>
        <time>2016-07-05T07:51:27Z</time>
      </trkpt>
      <trkpt lat="42.91097" lon="0.21495">
        <ele>1562.28</ele>
        <time>2016-07-05T07:51:31Z</time>
      </trkpt>
      <trkpt lat="42.91097" lon="0.215">
        <ele>1561.8</ele>
        <time>2016-07-05T07:51:35Z</time>
      </trkpt>
      <trkpt lat="42.91095" lon="0.21504">
        <ele>1560.84</ele>
        <time>2016-07-05T07:51:39Z</time>
      </trkpt>
      <trkpt lat="42.91093" lon="0.21506">
        <ele>1560.36</ele>
        <time>2016-07-05T07:51:42Z</time>
      </trkpt>
      <trkpt lat="42.91092" lon="0.21508">
        <ele>1559.4</ele>
        <time>2016-07-05T07:51:45Z</time>
      </trkpt>
      <trkpt lat="42.91086" lon="0.2152">
        <ele>1556.99</ele>
        <time>2016-07-05T07:51:55Z</time>
      </trkpt>
      <trkpt lat="42.91075" lon="0.21533">
        <ele>1555.07</ele>
        <time>2016-07-05T07:52:08Z</time>
      </trkpt>
      <trkpt lat="42.9107" lon="0.21534">
        <ele>1555.55</ele>
        <time>2016-07-05T07:52:12Z</time>
      </trkpt>
      <trkpt lat="42.91055" lon="0.21531">
        <ele>1557.47</ele>
        <time>2016-07-05T07:52:28Z</time>
      </trkpt>
      <trkpt lat="42.9105" lon="0.21531">
        <ele>1559.4</ele>
        <time>2016-07-05T07:52:40Z</time>
      </trkpt>
      <trkpt lat="42.91046" lon="0.21525">
        <ele>1560.36</ele>
        <time>2016-07-05T07:52:48Z</time>
      </trkpt>
      <trkpt lat="42.91037" lon="0.21522">
        <ele>1561.32</ele>
        <time>2016-07-05T07:52:59Z</time>
      </trkpt>
      <trkpt lat="42.91034" lon="0.21523">
        <ele>1561.32</ele>
        <time>2016-07-05T07:53:03Z</time>
      </trkpt>
      <trkpt lat="42.91027" lon="0.21517">
        <ele>1561.8</ele>
        <time>2016-07-05T07:53:12Z</time>
      </trkpt>
      <trkpt lat="42.9102" lon="0.21504">
        <ele>1564.2</ele>
        <time>2016-07-05T07:53:26Z</time>
      </trkpt>
      <trkpt lat="42.91016" lon="0.21503">
        <ele>1565.16</ele>
        <time>2016-07-05T07:53:32Z</time>
      </trkpt>
      <trkpt lat="42.91008" lon="0.21502">
        <ele>1566.12</ele>
        <time>2016-07-05T07:53:39Z</time>
      </trkpt>
      <trkpt lat="42.91007" lon="0.215">
        <ele>1566.61</ele>
        <time>2016-07-05T07:53:41Z</time>
      </trkpt>
      <trkpt lat="42.90994" lon="0.21484">
        <ele>1567.09</ele>
        <time>2016-07-05T07:53:58Z</time>
      </trkpt>
      <trkpt lat="42.90982" lon="0.21476">
        <ele>1567.57</ele>
        <time>2016-07-05T07:54:11Z</time>
      </trkpt>
      <trkpt lat="42.90972" lon="0.21469">
        <ele>1569.49</ele>
        <time>2016-07-05T07:54:24Z</time>
      </trkpt>
      <trkpt lat="42.9097" lon="0.21468">
        <ele>1569.97</ele>
        <time>2016-07-05T07:54:26Z</time>
      </trkpt>
      <trkpt lat="42.90962" lon="0.21461">
        <ele>1571.41</ele>
        <time>2016-07-05T07:54:36Z</time>
      </trkpt>
      <trkpt lat="42.9095" lon="0.21449">
        <ele>1572.37</ele>
        <time>2016-07-05T07:54:50Z</time>
      </trkpt>
      <trkpt lat="42.90943" lon="0.21445">
        <ele>1574.78</ele>
        <time>2016-07-05T07:55:01Z</time>
      </trkpt>
      <trkpt lat="42.90928" lon="0.21438">
        <ele>1575.74</ele>
        <time>2016-07-05T07:55:17Z</time>
      </trkpt>
      <trkpt lat="42.90927" lon="0.21438">
        <ele>1575.74</ele>
        <time>2016-07-05T07:55:18Z</time>
      </trkpt>
      <trkpt lat="42.90924" lon="0.21435">
        <ele>1576.22</ele>
        <time>2016-07-05T07:55:21Z</time>
      </trkpt>
      <trkpt lat="42.90913" lon="0.2143">
        <ele>1576.22</ele>
        <time>2016-07-05T07:55:33Z</time>
      </trkpt>
      <trkpt lat="42.90912" lon="0.21426">
        <ele>1575.74</ele>
        <time>2016-07-05T07:55:35Z</time>
      </trkpt>
      <trkpt lat="42.90903" lon="0.21416">
        <ele>1576.22</ele>
        <time>2016-07-05T07:55:49Z</time>
      </trkpt>
      <trkpt lat="42.90899" lon="0.21411">
        <ele>1576.22</ele>
        <time>2016-07-05T07:55:54Z</time>
      </trkpt>
      <trkpt lat="42.90892" lon="0.21405">
        <ele>1577.18</ele>
        <time>2016-07-05T07:56:03Z</time>
      </trkpt>
      <trkpt lat="42.9089" lon="0.21396">
        <ele>1577.66</ele>
        <time>2016-07-05T07:56:09Z</time>
      </trkpt>
      <trkpt lat="42.90887" lon="0.21395">
        <ele>1577.66</ele>
        <time>2016-07-05T07:56:12Z</time>
      </trkpt>
      <trkpt lat="42.90882" lon="0.21387">
        <ele>1578.14</ele>
        <time>2016-07-05T07:56:20Z</time>
      </trkpt>
      <trkpt lat="42.90877" lon="0.21383">
        <ele>1579.58</ele>
        <time>2016-07-05T07:56:26Z</time>
      </trkpt>
      <trkpt lat="42.90871" lon="0.21381">
        <ele>1579.58</ele>
        <time>2016-07-05T07:56:33Z</time>
      </trkpt>
      <trkpt lat="42.90862" lon="0.21372">
        <ele>1581.03</ele>
        <time>2016-07-05T07:56:46Z</time>
      </trkpt>
      <trkpt lat="42.90859" lon="0.21365">
        <ele>1581.03</ele>
        <time>2016-07-05T07:56:52Z</time>
      </trkpt>
      <trkpt lat="42.90856" lon="0.21361">
        <ele>1581.99</ele>
        <time>2016-07-05T07:56:57Z</time>
      </trkpt>
      <trkpt lat="42.90853" lon="0.21357">
        <ele>1582.47</ele>
        <time>2016-07-05T07:57:01Z</time>
      </trkpt>
      <trkpt lat="42.9084" lon="0.21344">
        <ele>1583.91</ele>
        <time>2016-07-05T07:57:16Z</time>
      </trkpt>
      <trkpt lat="42.90839" lon="0.21342">
        <ele>1583.91</ele>
        <time>2016-07-05T07:57:18Z</time>
      </trkpt>
      <trkpt lat="42.90825" lon="0.21327">
        <ele>1585.35</ele>
        <time>2016-07-05T07:57:34Z</time>
      </trkpt>
      <trkpt lat="42.90819" lon="0.21315">
        <ele>1586.79</ele>
        <time>2016-07-05T07:57:44Z</time>
      </trkpt>
      <trkpt lat="42.90807" lon="0.21305">
        <ele>1588.24</ele>
        <time>2016-07-05T07:57:57Z</time>
      </trkpt>
      <trkpt lat="42.90795" lon="0.21297">
        <ele>1587.75</ele>
        <time>2016-07-05T07:58:11Z</time>
      </trkpt>
      <trkpt lat="42.9078" lon="0.21287">
        <ele>1586.79</ele>
        <time>2016-07-05T07:58:27Z</time>
      </trkpt>
      <trkpt lat="42.90779" lon="0.21286">
        <ele>1587.27</ele>
        <time>2016-07-05T07:58:29Z</time>
      </trkpt>
      <trkpt lat="42.90774" lon="0.21281">
        <ele>1588.24</ele>
        <time>2016-07-05T07:58:36Z</time>
      </trkpt>
      <trkpt lat="42.90764" lon="0.21272">
        <ele>1590.16</ele>
        <time>2016-07-05T07:58:49Z</time>
      </trkpt>
      <trkpt lat="42.90759" lon="0.21264">
        <ele>1590.64</ele>
        <time>2016-07-05T07:58:58Z</time>
      </trkpt>
      <trkpt lat="42.90756" lon="0.21245">
        <ele>1590.64</ele>
        <time>2016-07-05T07:59:12Z</time>
      </trkpt>
      <trkpt lat="42.90755" lon="0.21241">
        <ele>1591.12</ele>
        <time>2016-07-05T07:59:15Z</time>
      </trkpt>
      <trkpt lat="42.90749" lon="0.2122">
        <ele>1592.08</ele>
        <time>2016-07-05T07:59:30Z</time>
      </trkpt>
      <trkpt lat="42.90748" lon="0.21218">
        <ele>1592.56</ele>
        <time>2016-07-05T07:59:33Z</time>
      </trkpt>
      <trkpt lat="42.90738" lon="0.21204">
        <ele>1593.52</ele>
        <time>2016-07-05T07:59:46Z</time>
      </trkpt>
      <trkpt lat="42.90728" lon="0.21195">
        <ele>1594.48</ele>
        <time>2016-07-05T07:59:59Z</time>
      </trkpt>
      <trkpt lat="42.90725" lon="0.21187">
        <ele>1594</ele>
        <time>2016-07-05T08:00:08Z</time>
      </trkpt>
      <trkpt lat="42.9072" lon="0.21178">
        <ele>1594.96</ele>
        <time>2016-07-05T08:00:15Z</time>
      </trkpt>
      <trkpt lat="42.90719" lon="0.21172">
        <ele>1595.45</ele>
        <time>2016-07-05T08:00:19Z</time>
      </trkpt>
      <trkpt lat="42.9072" lon="0.21167">
        <ele>1594.48</ele>
        <time>2016-07-05T08:00:24Z</time>
      </trkpt>
      <trkpt lat="42.90707" lon="0.21155">
        <ele>1597.37</ele>
        <time>2016-07-05T08:00:40Z</time>
      </trkpt>
      <trkpt lat="42.90712" lon="0.21147">
        <ele>1598.33</ele>
        <time>2016-07-05T08:00:44Z</time>
      </trkpt>
      <trkpt lat="42.90706" lon="0.21145">
        <ele>1598.81</ele>
        <time>2016-07-05T08:00:56Z</time>
      </trkpt>
      <trkpt lat="42.90708" lon="0.21144">
        <ele>1599.77</ele>
        <time>2016-07-05T08:01:15Z</time>
      </trkpt>
      <trkpt lat="42.90706" lon="0.21144">
        <ele>1599.29</ele>
        <time>2016-07-05T08:01:40Z</time>
      </trkpt>
      <trkpt lat="42.90707" lon="0.21153">
        <ele>1599.29</ele>
        <time>2016-07-05T08:02:03Z</time>
      </trkpt>
      <trkpt lat="42.90704" lon="0.21148">
        <ele>1599.77</ele>
        <time>2016-07-05T08:02:18Z</time>
      </trkpt>
      <trkpt lat="42.90706" lon="0.21147">
        <ele>1599.77</ele>
        <time>2016-07-05T08:02:44Z</time>
      </trkpt>
      <trkpt lat="42.90706" lon="0.2115">
        <ele>1599.29</ele>
        <time>2016-07-05T08:03:01Z</time>
      </trkpt>
      <trkpt lat="42.90708" lon="0.21143">
        <ele>1598.33</ele>
        <time>2016-07-05T08:03:20Z</time>
      </trkpt>
      <trkpt lat="42.90707" lon="0.21142">
        <ele>1600.25</ele>
        <time>2016-07-05T08:03:22Z</time>
      </trkpt>
      <trkpt lat="42.90709" lon="0.21143">
        <ele>1599.77</ele>
        <time>2016-07-05T08:03:42Z</time>
      </trkpt>
      <trkpt lat="42.90709" lon="0.21144">
        <ele>1599.77</ele>
        <time>2016-07-05T08:04:10Z</time>
      </trkpt>
      <trkpt lat="42.90707" lon="0.21144">
        <ele>1599.77</ele>
        <time>2016-07-05T08:04:32Z</time>
      </trkpt>
      <trkpt lat="42.90707" lon="0.21142">
        <ele>1599.77</ele>
        <time>2016-07-05T08:04:59Z</time>
      </trkpt>
      <trkpt lat="42.90708" lon="0.21144">
        <ele>1600.25</ele>
        <time>2016-07-05T08:05:36Z</time>
      </trkpt>
      <trkpt lat="42.9071" lon="0.21145">
        <ele>1599.77</ele>
        <time>2016-07-05T08:05:47Z</time>
      </trkpt>
      <trkpt lat="42.90706" lon="0.21141">
        <ele>1600.25</ele>
        <time>2016-07-05T08:06:08Z</time>
      </trkpt>
      <trkpt lat="42.90705" lon="0.2114">
        <ele>1600.25</ele>
        <time>2016-07-05T08:06:29Z</time>
      </trkpt>
      <trkpt lat="42.90705" lon="0.21144">
        <ele>1600.25</ele>
        <time>2016-07-05T08:06:52Z</time>
      </trkpt>
      <trkpt lat="42.90697" lon="0.21132">
        <ele>1602.17</ele>
        <time>2016-07-05T08:07:08Z</time>
      </trkpt>
      <trkpt lat="42.9069" lon="0.21127">
        <ele>1604.58</ele>
        <time>2016-07-05T08:07:20Z</time>
      </trkpt>
      <trkpt lat="42.9069" lon="0.21126">
        <ele>1604.58</ele>
        <time>2016-07-05T08:07:21Z</time>
      </trkpt>
      <trkpt lat="42.90686" lon="0.21121">
        <ele>1606.98</ele>
        <time>2016-07-05T08:07:29Z</time>
      </trkpt>
      <trkpt lat="42.90681" lon="0.21122">
        <ele>1607.46</ele>
        <time>2016-07-05T08:07:34Z</time>
      </trkpt>
      <trkpt lat="42.90677" lon="0.21125">
        <ele>1607.94</ele>
        <time>2016-07-05T08:07:38Z</time>
      </trkpt>
      <trkpt lat="42.90662" lon="0.21127">
        <ele>1610.35</ele>
        <time>2016-07-05T08:07:53Z</time>
      </trkpt>
      <trkpt lat="42.90649" lon="0.21124">
        <ele>1612.27</ele>
        <time>2016-07-05T08:08:08Z</time>
      </trkpt>
      <trkpt lat="42.90637" lon="0.21122">
        <ele>1614.19</ele>
        <time>2016-07-05T08:08:21Z</time>
      </trkpt>
      <trkpt lat="42.90624" lon="0.21119">
        <ele>1616.11</ele>
        <time>2016-07-05T08:08:35Z</time>
      </trkpt>
      <trkpt lat="42.90615" lon="0.21119">
        <ele>1616.59</ele>
        <time>2016-07-05T08:08:44Z</time>
      </trkpt>
      <trkpt lat="42.90609" lon="0.21112">
        <ele>1617.56</ele>
        <time>2016-07-05T08:08:52Z</time>
      </trkpt>
      <trkpt lat="42.90604" lon="0.21101">
        <ele>1619.96</ele>
        <time>2016-07-05T08:09:04Z</time>
      </trkpt>
      <trkpt lat="42.90594" lon="0.2109">
        <ele>1623.32</ele>
        <time>2016-07-05T08:09:21Z</time>
      </trkpt>
      <trkpt lat="42.90588" lon="0.21092">
        <ele>1624.77</ele>
        <time>2016-07-05T08:09:29Z</time>
      </trkpt>
      <trkpt lat="42.90575" lon="0.2109">
        <ele>1628.13</ele>
        <time>2016-07-05T08:09:44Z</time>
      </trkpt>
      <trkpt lat="42.90562" lon="0.21088">
        <ele>1630.53</ele>
        <time>2016-07-05T08:09:59Z</time>
      </trkpt>
      <trkpt lat="42.90559" lon="0.21084">
        <ele>1630.53</ele>
        <time>2016-07-05T08:10:02Z</time>
      </trkpt>
      <trkpt lat="42.90552" lon="0.21078">
        <ele>1631.98</ele>
        <time>2016-07-05T08:10:13Z</time>
      </trkpt>
      <trkpt lat="42.9055" lon="0.21079">
        <ele>1632.46</ele>
        <time>2016-07-05T08:10:15Z</time>
      </trkpt>
      <trkpt lat="42.90538" lon="0.21084">
        <ele>1634.86</ele>
        <time>2016-07-05T08:10:30Z</time>
      </trkpt>
      <trkpt lat="42.90531" lon="0.21074">
        <ele>1637.26</ele>
        <time>2016-07-05T08:10:43Z</time>
      </trkpt>
      <trkpt lat="42.9053" lon="0.21073">
        <ele>1637.26</ele>
        <time>2016-07-05T08:10:44Z</time>
      </trkpt>
      <trkpt lat="42.9053" lon="0.21063">
        <ele>1639.67</ele>
        <time>2016-07-05T08:10:57Z</time>
      </trkpt>
      <trkpt lat="42.90532" lon="0.2105">
        <ele>1642.55</ele>
        <time>2016-07-05T08:11:14Z</time>
      </trkpt>
      <trkpt lat="42.90532" lon="0.21035">
        <ele>1645.43</ele>
        <time>2016-07-05T08:11:29Z</time>
      </trkpt>
      <trkpt lat="42.90535" lon="0.21027">
        <ele>1646.88</ele>
        <time>2016-07-05T08:11:39Z</time>
      </trkpt>
      <trkpt lat="42.90538" lon="0.21017">
        <ele>1648.8</ele>
        <time>2016-07-05T08:11:51Z</time>
      </trkpt>
      <trkpt lat="42.90538" lon="0.21004">
        <ele>1652.16</ele>
        <time>2016-07-05T08:12:07Z</time>
      </trkpt>
      <trkpt lat="42.90539" lon="0.20989">
        <ele>1653.6</ele>
        <time>2016-07-05T08:12:21Z</time>
      </trkpt>
      <trkpt lat="42.9054" lon="0.20976">
        <ele>1656.49</ele>
        <time>2016-07-05T08:12:37Z</time>
      </trkpt>
      <trkpt lat="42.90539" lon="0.20964">
        <ele>1659.37</ele>
        <time>2016-07-05T08:12:51Z</time>
      </trkpt>
      <trkpt lat="42.9054" lon="0.20952">
        <ele>1662.26</ele>
        <time>2016-07-05T08:13:08Z</time>
      </trkpt>
      <trkpt lat="42.90549" lon="0.20947">
        <ele>1664.18</ele>
        <time>2016-07-05T08:13:24Z</time>
      </trkpt>
      <trkpt lat="42.9056" lon="0.20936">
        <ele>1665.62</ele>
        <time>2016-07-05T08:13:36Z</time>
      </trkpt>
      <trkpt lat="42.90564" lon="0.20929">
        <ele>1667.54</ele>
        <time>2016-07-05T08:13:48Z</time>
      </trkpt>
      <trkpt lat="42.90564" lon="0.20919">
        <ele>1670.43</ele>
        <time>2016-07-05T08:14:02Z</time>
      </trkpt>
      <trkpt lat="42.90562" lon="0.2091">
        <ele>1673.79</ele>
        <time>2016-07-05T08:14:16Z</time>
      </trkpt>
      <trkpt lat="42.90554" lon="0.20909">
        <ele>1676.2</ele>
        <time>2016-07-05T08:14:31Z</time>
      </trkpt>
      <trkpt lat="42.90546" lon="0.20911">
        <ele>1679.08</ele>
        <time>2016-07-05T08:14:48Z</time>
      </trkpt>
      <trkpt lat="42.90541" lon="0.20911">
        <ele>1681.48</ele>
        <time>2016-07-05T08:15:02Z</time>
      </trkpt>
      <trkpt lat="42.90536" lon="0.20913">
        <ele>1684.85</ele>
        <time>2016-07-05T08:15:16Z</time>
      </trkpt>
      <trkpt lat="42.90529" lon="0.20914">
        <ele>1687.25</ele>
        <time>2016-07-05T08:15:27Z</time>
      </trkpt>
      <trkpt lat="42.90519" lon="0.20918">
        <ele>1690.14</ele>
        <time>2016-07-05T08:15:42Z</time>
      </trkpt>
      <trkpt lat="42.90516" lon="0.20918">
        <ele>1691.1</ele>
        <time>2016-07-05T08:15:47Z</time>
      </trkpt>
      <trkpt lat="42.90511" lon="0.20921">
        <ele>1692.54</ele>
        <time>2016-07-05T08:15:54Z</time>
      </trkpt>
      <trkpt lat="42.90508" lon="0.20926">
        <ele>1694.94</ele>
        <time>2016-07-05T08:16:07Z</time>
      </trkpt>
      <trkpt lat="42.90504" lon="0.2093">
        <ele>1696.38</ele>
        <time>2016-07-05T08:16:17Z</time>
      </trkpt>
      <trkpt lat="42.90502" lon="0.20939">
        <ele>1698.31</ele>
        <time>2016-07-05T08:16:29Z</time>
      </trkpt>
      <trkpt lat="42.90496" lon="0.20942">
        <ele>1700.71</ele>
        <time>2016-07-05T08:16:41Z</time>
      </trkpt>
      <trkpt lat="42.9049" lon="0.20954">
        <ele>1703.11</ele>
        <time>2016-07-05T08:16:57Z</time>
      </trkpt>
      <trkpt lat="42.90484" lon="0.20961">
        <ele>1706.48</ele>
        <time>2016-07-05T08:17:12Z</time>
      </trkpt>
      <trkpt lat="42.90481" lon="0.20954">
        <ele>1709.36</ele>
        <time>2016-07-05T08:17:28Z</time>
      </trkpt>
      <trkpt lat="42.90473" lon="0.20954">
        <ele>1712.73</ele>
        <time>2016-07-05T08:17:44Z</time>
      </trkpt>
      <trkpt lat="42.90474" lon="0.20946">
        <ele>1715.13</ele>
        <time>2016-07-05T08:17:57Z</time>
      </trkpt>
      <trkpt lat="42.90465" lon="0.20946">
        <ele>1718.01</ele>
        <time>2016-07-05T08:18:11Z</time>
      </trkpt>
      <trkpt lat="42.9046" lon="0.20948">
        <ele>1720.42</ele>
        <time>2016-07-05T08:18:23Z</time>
      </trkpt>
      <trkpt lat="42.9046" lon="0.20949">
        <ele>1720.42</ele>
        <time>2016-07-05T08:18:24Z</time>
      </trkpt>
      <trkpt lat="42.90456" lon="0.20957">
        <ele>1722.34</ele>
        <time>2016-07-05T08:18:38Z</time>
      </trkpt>
      <trkpt lat="42.90457" lon="0.20968">
        <ele>1724.74</ele>
        <time>2016-07-05T08:18:50Z</time>
      </trkpt>
      <trkpt lat="42.90449" lon="0.20972">
        <ele>1726.67</ele>
        <time>2016-07-05T08:19:03Z</time>
      </trkpt>
      <trkpt lat="42.90445" lon="0.20958">
        <ele>1729.07</ele>
        <time>2016-07-05T08:19:18Z</time>
      </trkpt>
      <trkpt lat="42.90439" lon="0.2095">
        <ele>1730.03</ele>
        <time>2016-07-05T08:19:33Z</time>
      </trkpt>
      <trkpt lat="42.90439" lon="0.20951">
        <ele>1730.51</ele>
        <time>2016-07-05T08:19:39Z</time>
      </trkpt>
      <trkpt lat="42.9044" lon="0.2095">
        <ele>1727.63</ele>
        <time>2016-07-05T08:19:49Z</time>
      </trkpt>
      <trkpt lat="42.90439" lon="0.2095">
        <ele>1730.51</ele>
        <time>2016-07-05T08:19:51Z</time>
      </trkpt>
      <trkpt lat="42.90439" lon="0.20947">
        <ele>1726.18</ele>
        <time>2016-07-05T08:20:06Z</time>
      </trkpt>
      <trkpt lat="42.90439" lon="0.20947">
        <ele>1730.51</ele>
        <time>2016-07-05T08:20:07Z</time>
      </trkpt>
      <trkpt lat="42.9044" lon="0.20951">
        <ele>1730.03</ele>
        <time>2016-07-05T08:20:31Z</time>
      </trkpt>
      <trkpt lat="42.90441" lon="0.20951">
        <ele>1730.03</ele>
        <time>2016-07-05T08:20:43Z</time>
      </trkpt>
      <trkpt lat="42.90446" lon="0.20958">
        <ele>1729.07</ele>
        <time>2016-07-05T08:20:56Z</time>
      </trkpt>
      <trkpt lat="42.90448" lon="0.20958">
        <ele>1729.07</ele>
        <time>2016-07-05T08:21:17Z</time>
      </trkpt>
      <trkpt lat="42.9045" lon="0.20959">
        <ele>1729.07</ele>
        <time>2016-07-05T08:21:35Z</time>
      </trkpt>
      <trkpt lat="42.90445" lon="0.20958">
        <ele>1729.07</ele>
        <time>2016-07-05T08:21:56Z</time>
      </trkpt>
      <trkpt lat="42.90441" lon="0.20951">
        <ele>1729.55</ele>
        <time>2016-07-05T08:22:13Z</time>
      </trkpt>
      <trkpt lat="42.90438" lon="0.20949">
        <ele>1730.51</ele>
        <time>2016-07-05T08:22:19Z</time>
      </trkpt>
      <trkpt lat="42.90425" lon="0.20944">
        <ele>1733.39</ele>
        <time>2016-07-05T08:22:34Z</time>
      </trkpt>
      <trkpt lat="42.90414" lon="0.2094">
        <ele>1736.76</ele>
        <time>2016-07-05T08:22:49Z</time>
      </trkpt>
      <trkpt lat="42.90402" lon="0.20933">
        <ele>1738.68</ele>
        <time>2016-07-05T08:23:05Z</time>
      </trkpt>
      <trkpt lat="42.90396" lon="0.20927">
        <ele>1741.57</ele>
        <time>2016-07-05T08:23:20Z</time>
      </trkpt>
      <trkpt lat="42.90391" lon="0.2092">
        <ele>1743.97</ele>
        <time>2016-07-05T08:23:33Z</time>
      </trkpt>
      <trkpt lat="42.90385" lon="0.20911">
        <ele>1746.37</ele>
        <time>2016-07-05T08:23:48Z</time>
      </trkpt>
      <trkpt lat="42.90376" lon="0.20907">
        <ele>1748.78</ele>
        <time>2016-07-05T08:24:02Z</time>
      </trkpt>
      <trkpt lat="42.90368" lon="0.20899">
        <ele>1751.18</ele>
        <time>2016-07-05T08:24:16Z</time>
      </trkpt>
      <trkpt lat="42.90359" lon="0.20894">
        <ele>1753.58</ele>
        <time>2016-07-05T08:24:32Z</time>
      </trkpt>
      <trkpt lat="42.90348" lon="0.20887">
        <ele>1755.99</ele>
        <time>2016-07-05T08:24:47Z</time>
      </trkpt>
      <trkpt lat="42.90341" lon="0.20881">
        <ele>1757.91</ele>
        <time>2016-07-05T08:25:00Z</time>
      </trkpt>
      <trkpt lat="42.90334" lon="0.20876">
        <ele>1760.31</ele>
        <time>2016-07-05T08:25:14Z</time>
      </trkpt>
      <trkpt lat="42.90326" lon="0.20875">
        <ele>1762.71</ele>
        <time>2016-07-05T08:25:29Z</time>
      </trkpt>
      <trkpt lat="42.90322" lon="0.20871">
        <ele>1762.71</ele>
        <time>2016-07-05T08:25:35Z</time>
      </trkpt>
      <trkpt lat="42.90316" lon="0.20864">
        <ele>1761.27</ele>
        <time>2016-07-05T08:25:43Z</time>
      </trkpt>
      <trkpt lat="42.90306" lon="0.20856">
        <ele>1760.79</ele>
        <time>2016-07-05T08:25:57Z</time>
      </trkpt>
      <trkpt lat="42.90296" lon="0.20854">
        <ele>1762.23</ele>
        <time>2016-07-05T08:26:11Z</time>
      </trkpt>
      <trkpt lat="42.90295" lon="0.20855">
        <ele>1763.2</ele>
        <time>2016-07-05T08:26:14Z</time>
      </trkpt>
      <trkpt lat="42.90291" lon="0.20845">
        <ele>1765.6</ele>
        <time>2016-07-05T08:26:28Z</time>
      </trkpt>
      <trkpt lat="42.90286" lon="0.20846">
        <ele>1768.48</ele>
        <time>2016-07-05T08:26:43Z</time>
      </trkpt>
      <trkpt lat="42.90283" lon="0.20842">
        <ele>1770.41</ele>
        <time>2016-07-05T08:26:54Z</time>
      </trkpt>
      <trkpt lat="42.90282" lon="0.20836">
        <ele>1772.81</ele>
        <time>2016-07-05T08:27:07Z</time>
      </trkpt>
      <trkpt lat="42.90275" lon="0.20839">
        <ele>1774.73</ele>
        <time>2016-07-05T08:27:20Z</time>
      </trkpt>
      <trkpt lat="42.90272" lon="0.20837">
        <ele>1777.61</ele>
        <time>2016-07-05T08:27:34Z</time>
      </trkpt>
      <trkpt lat="42.90267" lon="0.20836">
        <ele>1779.54</ele>
        <time>2016-07-05T08:27:44Z</time>
      </trkpt>
      <trkpt lat="42.90264" lon="0.20834">
        <ele>1781.94</ele>
        <time>2016-07-05T08:27:56Z</time>
      </trkpt>
      <trkpt lat="42.90258" lon="0.20832">
        <ele>1783.86</ele>
        <time>2016-07-05T08:28:10Z</time>
      </trkpt>
      <trkpt lat="42.90253" lon="0.20832">
        <ele>1785.79</ele>
        <time>2016-07-05T08:28:21Z</time>
      </trkpt>
      <trkpt lat="42.90257" lon="0.20835">
        <ele>1787.23</ele>
        <time>2016-07-05T08:28:27Z</time>
      </trkpt>
      <trkpt lat="42.9025" lon="0.20838">
        <ele>1788.19</ele>
        <time>2016-07-05T08:28:34Z</time>
      </trkpt>
      <trkpt lat="42.90241" lon="0.20839">
        <ele>1789.63</ele>
        <time>2016-07-05T08:28:48Z</time>
      </trkpt>
      <trkpt lat="42.90233" lon="0.2084">
        <ele>1791.55</ele>
        <time>2016-07-05T08:29:00Z</time>
      </trkpt>
      <trkpt lat="42.90226" lon="0.20839">
        <ele>1793.96</ele>
        <time>2016-07-05T08:29:13Z</time>
      </trkpt>
      <trkpt lat="42.90226" lon="0.2084">
        <ele>1794.44</ele>
        <time>2016-07-05T08:29:15Z</time>
      </trkpt>
      <trkpt lat="42.90221" lon="0.20838">
        <ele>1796.84</ele>
        <time>2016-07-05T08:29:29Z</time>
      </trkpt>
      <trkpt lat="42.9022" lon="0.20829">
        <ele>1799.24</ele>
        <time>2016-07-05T08:29:41Z</time>
      </trkpt>
      <trkpt lat="42.90219" lon="0.20819">
        <ele>1802.13</ele>
        <time>2016-07-05T08:29:55Z</time>
      </trkpt>
      <trkpt lat="42.90216" lon="0.20811">
        <ele>1805.01</ele>
        <time>2016-07-05T08:30:10Z</time>
      </trkpt>
      <trkpt lat="42.90209" lon="0.20801">
        <ele>1807.9</ele>
        <time>2016-07-05T08:30:26Z</time>
      </trkpt>
      <trkpt lat="42.90203" lon="0.20796">
        <ele>1811.26</ele>
        <time>2016-07-05T08:30:40Z</time>
      </trkpt>
      <trkpt lat="42.902" lon="0.20799">
        <ele>1812.22</ele>
        <time>2016-07-05T08:30:48Z</time>
      </trkpt>
      <trkpt lat="42.9019" lon="0.20797">
        <ele>1815.11</ele>
        <time>2016-07-05T08:31:03Z</time>
      </trkpt>
      <trkpt lat="42.90183" lon="0.20793">
        <ele>1817.03</ele>
        <time>2016-07-05T08:31:16Z</time>
      </trkpt>
      <trkpt lat="42.90175" lon="0.20791">
        <ele>1819.91</ele>
        <time>2016-07-05T08:31:32Z</time>
      </trkpt>
      <trkpt lat="42.90171" lon="0.20787">
        <ele>1822.32</ele>
        <time>2016-07-05T08:31:44Z</time>
      </trkpt>
      <trkpt lat="42.9017" lon="0.20776">
        <ele>1825.2</ele>
        <time>2016-07-05T08:31:58Z</time>
      </trkpt>
      <trkpt lat="42.90167" lon="0.20767">
        <ele>1828.08</ele>
        <time>2016-07-05T08:32:13Z</time>
      </trkpt>
      <trkpt lat="42.90171" lon="0.20757">
        <ele>1830.97</ele>
        <time>2016-07-05T08:32:29Z</time>
      </trkpt>
      <trkpt lat="42.90182" lon="0.20752">
        <ele>1833.37</ele>
        <time>2016-07-05T08:32:42Z</time>
      </trkpt>
      <trkpt lat="42.90186" lon="0.20747">
        <ele>1835.77</ele>
        <time>2016-07-05T08:32:55Z</time>
      </trkpt>
      <trkpt lat="42.9018" lon="0.20744">
        <ele>1838.66</ele>
        <time>2016-07-05T08:33:11Z</time>
      </trkpt>
      <trkpt lat="42.90173" lon="0.20736">
        <ele>1841.06</ele>
        <time>2016-07-05T08:33:26Z</time>
      </trkpt>
      <trkpt lat="42.90168" lon="0.20729">
        <ele>1843.95</ele>
        <time>2016-07-05T08:33:41Z</time>
      </trkpt>
      <trkpt lat="42.9016" lon="0.20726">
        <ele>1846.35</ele>
        <time>2016-07-05T08:33:55Z</time>
      </trkpt>
      <trkpt lat="42.9016" lon="0.2071">
        <ele>1848.27</ele>
        <time>2016-07-05T08:34:10Z</time>
      </trkpt>
      <trkpt lat="42.90153" lon="0.20699">
        <ele>1851.16</ele>
        <time>2016-07-05T08:34:26Z</time>
      </trkpt>
      <trkpt lat="42.90149" lon="0.20693">
        <ele>1852.6</ele>
        <time>2016-07-05T08:34:32Z</time>
      </trkpt>
      <trkpt lat="42.90147" lon="0.20685">
        <ele>1853.56</ele>
        <time>2016-07-05T08:34:40Z</time>
      </trkpt>
      <trkpt lat="42.90141" lon="0.20671">
        <ele>1856.44</ele>
        <time>2016-07-05T08:34:55Z</time>
      </trkpt>
      <trkpt lat="42.90137" lon="0.20661">
        <ele>1858.37</ele>
        <time>2016-07-05T08:35:07Z</time>
      </trkpt>
      <trkpt lat="42.90132" lon="0.2065">
        <ele>1860.77</ele>
        <time>2016-07-05T08:35:21Z</time>
      </trkpt>
      <trkpt lat="42.90129" lon="0.20639">
        <ele>1863.17</ele>
        <time>2016-07-05T08:35:35Z</time>
      </trkpt>
      <trkpt lat="42.90126" lon="0.20628">
        <ele>1865.58</ele>
        <time>2016-07-05T08:35:49Z</time>
      </trkpt>
      <trkpt lat="42.90121" lon="0.20617">
        <ele>1867.98</ele>
        <time>2016-07-05T08:36:03Z</time>
      </trkpt>
      <trkpt lat="42.90115" lon="0.20607">
        <ele>1870.38</ele>
        <time>2016-07-05T08:36:18Z</time>
      </trkpt>
      <trkpt lat="42.9011" lon="0.20596">
        <ele>1872.3</ele>
        <time>2016-07-05T08:36:31Z</time>
      </trkpt>
      <trkpt lat="42.90105" lon="0.20584">
        <ele>1875.19</ele>
        <time>2016-07-05T08:36:46Z</time>
      </trkpt>
      <trkpt lat="42.90102" lon="0.20573">
        <ele>1877.59</ele>
        <time>2016-07-05T08:37:00Z</time>
      </trkpt>
      <trkpt lat="42.90098" lon="0.20564">
        <ele>1880</ele>
        <time>2016-07-05T08:37:14Z</time>
      </trkpt>
      <trkpt lat="42.90094" lon="0.20555">
        <ele>1882.4</ele>
        <time>2016-07-05T08:37:27Z</time>
      </trkpt>
      <trkpt lat="42.90091" lon="0.20545">
        <ele>1885.28</ele>
        <time>2016-07-05T08:37:43Z</time>
      </trkpt>
      <trkpt lat="42.90085" lon="0.20538">
        <ele>1887.69</ele>
        <time>2016-07-05T08:37:58Z</time>
      </trkpt>
      <trkpt lat="42.90082" lon="0.2053">
        <ele>1890.09</ele>
        <time>2016-07-05T08:38:09Z</time>
      </trkpt>
      <trkpt lat="42.9008" lon="0.20521">
        <ele>1892.49</ele>
        <time>2016-07-05T08:38:21Z</time>
      </trkpt>
      <trkpt lat="42.90077" lon="0.2051">
        <ele>1895.38</ele>
        <time>2016-07-05T08:38:38Z</time>
      </trkpt>
      <trkpt lat="42.90072" lon="0.20501">
        <ele>1897.3</ele>
        <time>2016-07-05T08:38:51Z</time>
      </trkpt>
      <trkpt lat="42.90069" lon="0.20493">
        <ele>1899.7</ele>
        <time>2016-07-05T08:39:04Z</time>
      </trkpt>
      <trkpt lat="42.90062" lon="0.20484">
        <ele>1902.11</ele>
        <time>2016-07-05T08:39:19Z</time>
      </trkpt>
      <trkpt lat="42.90056" lon="0.20479">
        <ele>1904.03</ele>
        <time>2016-07-05T08:39:32Z</time>
      </trkpt>
      <trkpt lat="42.90051" lon="0.20467">
        <ele>1905.47</ele>
        <time>2016-07-05T08:39:45Z</time>
      </trkpt>
      <trkpt lat="42.90043" lon="0.20457">
        <ele>1907.87</ele>
        <time>2016-07-05T08:39:59Z</time>
      </trkpt>
      <trkpt lat="42.90037" lon="0.20447">
        <ele>1910.28</ele>
        <time>2016-07-05T08:40:13Z</time>
      </trkpt>
      <trkpt lat="42.90033" lon="0.20438">
        <ele>1912.2</ele>
        <time>2016-07-05T08:40:26Z</time>
      </trkpt>
      <trkpt lat="42.90025" lon="0.20433">
        <ele>1915.08</ele>
        <time>2016-07-05T08:40:40Z</time>
      </trkpt>
      <trkpt lat="42.90016" lon="0.20428">
        <ele>1917.49</ele>
        <time>2016-07-05T08:40:56Z</time>
      </trkpt>
      <trkpt lat="42.90007" lon="0.20429">
        <ele>1919.89</ele>
        <time>2016-07-05T08:41:09Z</time>
      </trkpt>
      <trkpt lat="42.89996" lon="0.20429">
        <ele>1922.77</ele>
        <time>2016-07-05T08:41:25Z</time>
      </trkpt>
      <trkpt lat="42.89992" lon="0.20427">
        <ele>1924.22</ele>
        <time>2016-07-05T08:41:40Z</time>
      </trkpt>
      <trkpt lat="42.89989" lon="0.20423">
        <ele>1924.7</ele>
        <time>2016-07-05T08:41:47Z</time>
      </trkpt>
      <trkpt lat="42.89984" lon="0.20412">
        <ele>1926.62</ele>
        <time>2016-07-05T08:42:01Z</time>
      </trkpt>
      <trkpt lat="42.89977" lon="0.20403">
        <ele>1929.5</ele>
        <time>2016-07-05T08:42:16Z</time>
      </trkpt>
      <trkpt lat="42.89972" lon="0.20391">
        <ele>1930.95</ele>
        <time>2016-07-05T08:42:30Z</time>
      </trkpt>
      <trkpt lat="42.89971" lon="0.20382">
        <ele>1932.87</ele>
        <time>2016-07-05T08:42:44Z</time>
      </trkpt>
      <trkpt lat="42.89966" lon="0.20369">
        <ele>1935.27</ele>
        <time>2016-07-05T08:42:57Z</time>
      </trkpt>
      <trkpt lat="42.8996" lon="0.20353">
        <ele>1937.67</ele>
        <time>2016-07-05T08:43:13Z</time>
      </trkpt>
      <trkpt lat="42.89956" lon="0.2034">
        <ele>1939.12</ele>
        <time>2016-07-05T08:43:26Z</time>
      </trkpt>
      <trkpt lat="42.89953" lon="0.20325">
        <ele>1941.52</ele>
        <time>2016-07-05T08:43:40Z</time>
      </trkpt>
      <trkpt lat="42.8995" lon="0.20309">
        <ele>1944.4</ele>
        <time>2016-07-05T08:43:56Z</time>
      </trkpt>
      <trkpt lat="42.89948" lon="0.20295">
        <ele>1946.33</ele>
        <time>2016-07-05T08:44:10Z</time>
      </trkpt>
      <trkpt lat="42.89944" lon="0.20282">
        <ele>1947.77</ele>
        <time>2016-07-05T08:44:22Z</time>
      </trkpt>
      <trkpt lat="42.89934" lon="0.2027">
        <ele>1948.73</ele>
        <time>2016-07-05T08:44:37Z</time>
      </trkpt>
      <trkpt lat="42.89933" lon="0.2027">
        <ele>1949.21</ele>
        <time>2016-07-05T08:44:54Z</time>
      </trkpt>
      <trkpt lat="42.89933" lon="0.20269">
        <ele>1948.73</ele>
        <time>2016-07-05T08:45:20Z</time>
      </trkpt>
      <trkpt lat="42.89933" lon="0.20268">
        <ele>1949.69</ele>
        <time>2016-07-05T08:45:25Z</time>
      </trkpt>
      <trkpt lat="42.89933" lon="0.20269">
        <ele>1949.69</ele>
        <time>2016-07-05T08:45:46Z</time>
      </trkpt>
      <trkpt lat="42.89932" lon="0.2027">
        <ele>1949.21</ele>
        <time>2016-07-05T08:46:05Z</time>
      </trkpt>
      <trkpt lat="42.89932" lon="0.20269">
        <ele>1949.21</ele>
        <time>2016-07-05T08:46:07Z</time>
      </trkpt>
      <trkpt lat="42.89934" lon="0.20264">
        <ele>1949.69</ele>
        <time>2016-07-05T08:46:17Z</time>
      </trkpt>
      <trkpt lat="42.89937" lon="0.20262">
        <ele>1950.65</ele>
        <time>2016-07-05T08:46:24Z</time>
      </trkpt>
      <trkpt lat="42.89932" lon="0.20268">
        <ele>1949.69</ele>
        <time>2016-07-05T08:46:29Z</time>
      </trkpt>
      <trkpt lat="42.8993" lon="0.2027">
        <ele>1949.21</ele>
        <time>2016-07-05T08:46:42Z</time>
      </trkpt>
      <trkpt lat="42.89935" lon="0.2027">
        <ele>1948.73</ele>
        <time>2016-07-05T08:46:58Z</time>
      </trkpt>
      <trkpt lat="42.89935" lon="0.2027">
        <ele>1949.21</ele>
        <time>2016-07-05T08:47:03Z</time>
      </trkpt>
      <trkpt lat="42.89934" lon="0.20269">
        <ele>1953.06</ele>
        <time>2016-07-05T08:47:05Z</time>
      </trkpt>
      <trkpt lat="42.89934" lon="0.20269">
        <ele>1950.65</ele>
        <time>2016-07-05T08:47:06Z</time>
      </trkpt>
      <trkpt lat="42.89933" lon="0.20267">
        <ele>1947.29</ele>
        <time>2016-07-05T08:47:16Z</time>
      </trkpt>
      <trkpt lat="42.89933" lon="0.20267">
        <ele>1951.13</ele>
        <time>2016-07-05T08:47:18Z</time>
      </trkpt>
      <trkpt lat="42.89933" lon="0.20268">
        <ele>1949.21</ele>
        <time>2016-07-05T08:47:37Z</time>
      </trkpt>
      <trkpt lat="42.89934" lon="0.20269">
        <ele>1953.54</ele>
        <time>2016-07-05T08:47:47Z</time>
      </trkpt>
      <trkpt lat="42.89934" lon="0.20269">
        <ele>1950.65</ele>
        <time>2016-07-05T08:47:48Z</time>
      </trkpt>
      <trkpt lat="42.89934" lon="0.20269">
        <ele>1950.17</ele>
        <time>2016-07-05T08:48:07Z</time>
      </trkpt>
      <trkpt lat="42.89933" lon="0.20266">
        <ele>1950.65</ele>
        <time>2016-07-05T08:48:31Z</time>
      </trkpt>
      <trkpt lat="42.89934" lon="0.20268">
        <ele>1950.65</ele>
        <time>2016-07-05T08:48:51Z</time>
      </trkpt>
      <trkpt lat="42.89938" lon="0.20272">
        <ele>1950.65</ele>
        <time>2016-07-05T08:49:18Z</time>
      </trkpt>
      <trkpt lat="42.89938" lon="0.20273">
        <ele>1950.17</ele>
        <time>2016-07-05T08:49:19Z</time>
      </trkpt>
      <trkpt lat="42.89942" lon="0.20275">
        <ele>1950.17</ele>
        <time>2016-07-05T08:49:34Z</time>
      </trkpt>
      <trkpt lat="42.89937" lon="0.20271">
        <ele>1950.65</ele>
        <time>2016-07-05T08:49:50Z</time>
      </trkpt>
      <trkpt lat="42.89935" lon="0.20271">
        <ele>1950.65</ele>
        <time>2016-07-05T08:49:52Z</time>
      </trkpt>
      <trkpt lat="42.8993" lon="0.20267">
        <ele>1951.13</ele>
        <time>2016-07-05T08:50:02Z</time>
      </trkpt>
      <trkpt lat="42.89923" lon="0.20263">
        <ele>1951.13</ele>
        <time>2016-07-05T08:50:13Z</time>
      </trkpt>
      <trkpt lat="42.89921" lon="0.2026">
        <ele>1951.13</ele>
        <time>2016-07-05T08:50:16Z</time>
      </trkpt>
      <trkpt lat="42.89912" lon="0.20251">
        <ele>1952.57</ele>
        <time>2016-07-05T08:50:30Z</time>
      </trkpt>
      <trkpt lat="42.89906" lon="0.2024">
        <ele>1954.02</ele>
        <time>2016-07-05T08:50:44Z</time>
      </trkpt>
      <trkpt lat="42.899" lon="0.20237">
        <ele>1954.02</ele>
        <time>2016-07-05T08:50:49Z</time>
      </trkpt>
      <trkpt lat="42.89894" lon="0.2023">
        <ele>1954.02</ele>
        <time>2016-07-05T08:51:02Z</time>
      </trkpt>
      <trkpt lat="42.89889" lon="0.20219">
        <ele>1954.02</ele>
        <time>2016-07-05T08:51:13Z</time>
      </trkpt>
      <trkpt lat="42.89883" lon="0.20207">
        <ele>1955.46</ele>
        <time>2016-07-05T08:51:24Z</time>
      </trkpt>
      <trkpt lat="42.89872" lon="0.20197">
        <ele>1956.42</ele>
        <time>2016-07-05T08:51:39Z</time>
      </trkpt>
      <trkpt lat="42.89869" lon="0.20193">
        <ele>1956.9</ele>
        <time>2016-07-05T08:51:44Z</time>
      </trkpt>
      <trkpt lat="42.89863" lon="0.20184">
        <ele>1957.86</ele>
        <time>2016-07-05T08:51:53Z</time>
      </trkpt>
      <trkpt lat="42.89862" lon="0.20181">
        <ele>1957.38</ele>
        <time>2016-07-05T08:51:55Z</time>
      </trkpt>
      <trkpt lat="42.8986" lon="0.20161">
        <ele>1957.86</ele>
        <time>2016-07-05T08:52:10Z</time>
      </trkpt>
      <trkpt lat="42.89856" lon="0.20149">
        <ele>1959.78</ele>
        <time>2016-07-05T08:52:23Z</time>
      </trkpt>
      <trkpt lat="42.89858" lon="0.20137">
        <ele>1961.71</ele>
        <time>2016-07-05T08:52:37Z</time>
      </trkpt>
      <trkpt lat="42.8986" lon="0.20127">
        <ele>1963.63</ele>
        <time>2016-07-05T08:52:50Z</time>
      </trkpt>
      <trkpt lat="42.89865" lon="0.20119">
        <ele>1966.03</ele>
        <time>2016-07-05T08:53:04Z</time>
      </trkpt>
      <trkpt lat="42.8987" lon="0.20109">
        <ele>1967.96</ele>
        <time>2016-07-05T08:53:18Z</time>
      </trkpt>
      <trkpt lat="42.89872" lon="0.20102">
        <ele>1969.88</ele>
        <time>2016-07-05T08:53:30Z</time>
      </trkpt>
      <trkpt lat="42.89877" lon="0.20096">
        <ele>1971.8</ele>
        <time>2016-07-05T08:53:42Z</time>
      </trkpt>
      <trkpt lat="42.89878" lon="0.20088">
        <ele>1973.72</ele>
        <time>2016-07-05T08:53:54Z</time>
      </trkpt>
      <trkpt lat="42.89876" lon="0.2008">
        <ele>1975.65</ele>
        <time>2016-07-05T08:54:07Z</time>
      </trkpt>
      <trkpt lat="42.8988" lon="0.20072">
        <ele>1978.05</ele>
        <time>2016-07-05T08:54:21Z</time>
      </trkpt>
      <trkpt lat="42.89878" lon="0.20068">
        <ele>1979.49</ele>
        <time>2016-07-05T08:54:33Z</time>
      </trkpt>
      <trkpt lat="42.89875" lon="0.20064">
        <ele>1981.41</ele>
        <time>2016-07-05T08:54:45Z</time>
      </trkpt>
      <trkpt lat="42.8987" lon="0.2006">
        <ele>1983.82</ele>
        <time>2016-07-05T08:54:58Z</time>
      </trkpt>
      <trkpt lat="42.89866" lon="0.20065">
        <ele>1984.78</ele>
        <time>2016-07-05T08:55:12Z</time>
      </trkpt>
      <trkpt lat="42.89865" lon="0.20066">
        <ele>1984.78</ele>
        <time>2016-07-05T08:55:18Z</time>
      </trkpt>
      <trkpt lat="42.89862" lon="0.20066">
        <ele>1984.78</ele>
        <time>2016-07-05T08:55:22Z</time>
      </trkpt>
      <trkpt lat="42.8986" lon="0.20066">
        <ele>1984.78</ele>
        <time>2016-07-05T08:55:24Z</time>
      </trkpt>
      <trkpt lat="42.8985" lon="0.20064">
        <ele>1985.74</ele>
        <time>2016-07-05T08:55:36Z</time>
      </trkpt>
      <trkpt lat="42.89839" lon="0.20061">
        <ele>1988.14</ele>
        <time>2016-07-05T08:55:51Z</time>
      </trkpt>
      <trkpt lat="42.8983" lon="0.20057">
        <ele>1990.55</ele>
        <time>2016-07-05T08:56:05Z</time>
      </trkpt>
      <trkpt lat="42.89823" lon="0.20054">
        <ele>1993.43</ele>
        <time>2016-07-05T08:56:18Z</time>
      </trkpt>
      <trkpt lat="42.89812" lon="0.20054">
        <ele>1995.83</ele>
        <time>2016-07-05T08:56:31Z</time>
      </trkpt>
      <trkpt lat="42.89802" lon="0.20051">
        <ele>1997.76</ele>
        <time>2016-07-05T08:56:44Z</time>
      </trkpt>
      <trkpt lat="42.89788" lon="0.20047">
        <ele>1999.68</ele>
        <time>2016-07-05T08:57:00Z</time>
      </trkpt>
      <trkpt lat="42.8978" lon="0.2004">
        <ele>2002.56</ele>
        <time>2016-07-05T08:57:16Z</time>
      </trkpt>
      <trkpt lat="42.89773" lon="0.20034">
        <ele>2004.49</ele>
        <time>2016-07-05T08:57:29Z</time>
      </trkpt>
      <trkpt lat="42.89763" lon="0.2003">
        <ele>2006.89</ele>
        <time>2016-07-05T08:57:44Z</time>
      </trkpt>
      <trkpt lat="42.89758" lon="0.20025">
        <ele>2009.29</ele>
        <time>2016-07-05T08:57:58Z</time>
      </trkpt>
      <trkpt lat="42.89752" lon="0.2002">
        <ele>2012.66</ele>
        <time>2016-07-05T08:58:12Z</time>
      </trkpt>
      <trkpt lat="42.89749" lon="0.20013">
        <ele>2015.06</ele>
        <time>2016-07-05T08:58:27Z</time>
      </trkpt>
      <trkpt lat="42.8974" lon="0.20012">
        <ele>2016.02</ele>
        <time>2016-07-05T08:58:39Z</time>
      </trkpt>
      <trkpt lat="42.89737" lon="0.20012">
        <ele>2016.5</ele>
        <time>2016-07-05T08:58:42Z</time>
      </trkpt>
      <trkpt lat="42.8973" lon="0.20008">
        <ele>2016.98</ele>
        <time>2016-07-05T08:58:51Z</time>
      </trkpt>
      <trkpt lat="42.89725" lon="0.20014">
        <ele>2016.98</ele>
        <time>2016-07-05T08:59:02Z</time>
      </trkpt>
      <trkpt lat="42.89713" lon="0.20019">
        <ele>2017.46</ele>
        <time>2016-07-05T08:59:16Z</time>
      </trkpt>
      <trkpt lat="42.89705" lon="0.20022">
        <ele>2018.43</ele>
        <time>2016-07-05T08:59:26Z</time>
      </trkpt>
      <trkpt lat="42.89695" lon="0.20027">
        <ele>2020.35</ele>
        <time>2016-07-05T08:59:42Z</time>
      </trkpt>
      <trkpt lat="42.89692" lon="0.20029">
        <ele>2020.83</ele>
        <time>2016-07-05T08:59:46Z</time>
      </trkpt>
      <trkpt lat="42.89678" lon="0.20033">
        <ele>2022.27</ele>
        <time>2016-07-05T09:00:03Z</time>
      </trkpt>
      <trkpt lat="42.89676" lon="0.20035">
        <ele>2022.75</ele>
        <time>2016-07-05T09:00:06Z</time>
      </trkpt>
      <trkpt lat="42.89665" lon="0.20046">
        <ele>2022.75</ele>
        <time>2016-07-05T09:00:21Z</time>
      </trkpt>
      <trkpt lat="42.89661" lon="0.20035">
        <ele>2024.67</ele>
        <time>2016-07-05T09:00:34Z</time>
      </trkpt>
      <trkpt lat="42.8966" lon="0.20028">
        <ele>2026.6</ele>
        <time>2016-07-05T09:00:47Z</time>
      </trkpt>
      <trkpt lat="42.89657" lon="0.20017">
        <ele>2028.04</ele>
        <time>2016-07-05T09:01:00Z</time>
      </trkpt>
      <trkpt lat="42.89654" lon="0.20004">
        <ele>2030.44</ele>
        <time>2016-07-05T09:01:14Z</time>
      </trkpt>
      <trkpt lat="42.89658" lon="0.19997">
        <ele>2032.84</ele>
        <time>2016-07-05T09:01:28Z</time>
      </trkpt>
      <trkpt lat="42.89655" lon="0.19994">
        <ele>2036.69</ele>
        <time>2016-07-05T09:01:41Z</time>
      </trkpt>
      <trkpt lat="42.89653" lon="0.19998">
        <ele>2034.77</ele>
        <time>2016-07-05T09:01:54Z</time>
      </trkpt>
      <trkpt lat="42.89656" lon="0.19994">
        <ele>2034.77</ele>
        <time>2016-07-05T09:02:08Z</time>
      </trkpt>
      <trkpt lat="42.89656" lon="0.19991">
        <ele>2034.77</ele>
        <time>2016-07-05T09:02:26Z</time>
      </trkpt>
      <trkpt lat="42.89655" lon="0.19992">
        <ele>2034.29</ele>
        <time>2016-07-05T09:02:40Z</time>
      </trkpt>
      <trkpt lat="42.89654" lon="0.19992">
        <ele>2034.77</ele>
        <time>2016-07-05T09:03:12Z</time>
      </trkpt>
      <trkpt lat="42.89654" lon="0.19989">
        <ele>2034.77</ele>
        <time>2016-07-05T09:03:35Z</time>
      </trkpt>
      <trkpt lat="42.89655" lon="0.19993">
        <ele>2034.77</ele>
        <time>2016-07-05T09:03:56Z</time>
      </trkpt>
      <trkpt lat="42.89654" lon="0.19989">
        <ele>2035.25</ele>
        <time>2016-07-05T09:04:15Z</time>
      </trkpt>
      <trkpt lat="42.89653" lon="0.19987">
        <ele>2034.77</ele>
        <time>2016-07-05T09:04:17Z</time>
      </trkpt>
      <trkpt lat="42.89646" lon="0.19971">
        <ele>2034.77</ele>
        <time>2016-07-05T09:04:33Z</time>
      </trkpt>
      <trkpt lat="42.89645" lon="0.19965">
        <ele>2035.25</ele>
        <time>2016-07-05T09:04:42Z</time>
      </trkpt>
      <trkpt lat="42.89646" lon="0.19961">
        <ele>2035.25</ele>
        <time>2016-07-05T09:04:58Z</time>
      </trkpt>
      <trkpt lat="42.89643" lon="0.19947">
        <ele>2036.21</ele>
        <time>2016-07-05T09:05:11Z</time>
      </trkpt>
      <trkpt lat="42.8964" lon="0.19943">
        <ele>2036.21</ele>
        <time>2016-07-05T09:05:16Z</time>
      </trkpt>
      <trkpt lat="42.89632" lon="0.19931">
        <ele>2035.73</ele>
        <time>2016-07-05T09:05:30Z</time>
      </trkpt>
      <trkpt lat="42.89629" lon="0.19927">
        <ele>2035.25</ele>
        <time>2016-07-05T09:05:37Z</time>
      </trkpt>
      <trkpt lat="42.89625" lon="0.19918">
        <ele>2035.73</ele>
        <time>2016-07-05T09:05:48Z</time>
      </trkpt>
      <trkpt lat="42.89621" lon="0.199">
        <ele>2035.73</ele>
        <time>2016-07-05T09:06:05Z</time>
      </trkpt>
      <trkpt lat="42.89617" lon="0.19893">
        <ele>2036.21</ele>
        <time>2016-07-05T09:06:17Z</time>
      </trkpt>
      <trkpt lat="42.89616" lon="0.1989">
        <ele>2035.25</ele>
        <time>2016-07-05T09:06:21Z</time>
      </trkpt>
      <trkpt lat="42.89614" lon="0.19889">
        <ele>2035.25</ele>
        <time>2016-07-05T09:06:23Z</time>
      </trkpt>
      <trkpt lat="42.89609" lon="0.19882">
        <ele>2035.73</ele>
        <time>2016-07-05T09:06:34Z</time>
      </trkpt>
      <trkpt lat="42.89601" lon="0.19873">
        <ele>2035.25</ele>
        <time>2016-07-05T09:06:47Z</time>
      </trkpt>
      <trkpt lat="42.89595" lon="0.19868">
        <ele>2035.25</ele>
        <time>2016-07-05T09:06:58Z</time>
      </trkpt>
      <trkpt lat="42.89588" lon="0.19862">
        <ele>2036.21</ele>
        <time>2016-07-05T09:07:09Z</time>
      </trkpt>
      <trkpt lat="42.89584" lon="0.19859">
        <ele>2036.69</ele>
        <time>2016-07-05T09:07:21Z</time>
      </trkpt>
      <trkpt lat="42.89575" lon="0.19858">
        <ele>2036.21</ele>
        <time>2016-07-05T09:07:34Z</time>
      </trkpt>
      <trkpt lat="42.89564" lon="0.19857">
        <ele>2036.69</ele>
        <time>2016-07-05T09:07:46Z</time>
      </trkpt>
      <trkpt lat="42.89563" lon="0.19856">
        <ele>2036.21</ele>
        <time>2016-07-05T09:07:48Z</time>
      </trkpt>
      <trkpt lat="42.89558" lon="0.19852">
        <ele>2036.21</ele>
        <time>2016-07-05T09:07:55Z</time>
      </trkpt>
      <trkpt lat="42.8955" lon="0.19845">
        <ele>2037.17</ele>
        <time>2016-07-05T09:08:09Z</time>
      </trkpt>
      <trkpt lat="42.89543" lon="0.19841">
        <ele>2036.69</ele>
        <time>2016-07-05T09:08:22Z</time>
      </trkpt>
      <trkpt lat="42.89539" lon="0.19838">
        <ele>2036.21</ele>
        <time>2016-07-05T09:08:29Z</time>
      </trkpt>
      <trkpt lat="42.89532" lon="0.19836">
        <ele>2034.77</ele>
        <time>2016-07-05T09:08:42Z</time>
      </trkpt>
      <trkpt lat="42.89524" lon="0.19832">
        <ele>2035.73</ele>
        <time>2016-07-05T09:08:53Z</time>
      </trkpt>
      <trkpt lat="42.89519" lon="0.19827">
        <ele>2037.65</ele>
        <time>2016-07-05T09:09:06Z</time>
      </trkpt>
      <trkpt lat="42.89512" lon="0.19823">
        <ele>2037.17</ele>
        <time>2016-07-05T09:09:16Z</time>
      </trkpt>
      <trkpt lat="42.89501" lon="0.19821">
        <ele>2037.65</ele>
        <time>2016-07-05T09:09:30Z</time>
      </trkpt>
      <trkpt lat="42.89493" lon="0.19815">
        <ele>2038.61</ele>
        <time>2016-07-05T09:09:43Z</time>
      </trkpt>
      <trkpt lat="42.89485" lon="0.19809">
        <ele>2037.65</ele>
        <time>2016-07-05T09:09:55Z</time>
      </trkpt>
      <trkpt lat="42.89478" lon="0.19789">
        <ele>2038.13</ele>
        <time>2016-07-05T09:10:11Z</time>
      </trkpt>
      <trkpt lat="42.89467" lon="0.19781">
        <ele>2037.17</ele>
        <time>2016-07-05T09:10:26Z</time>
      </trkpt>
      <trkpt lat="42.89459" lon="0.19772">
        <ele>2037.65</ele>
        <time>2016-07-05T09:10:39Z</time>
      </trkpt>
      <trkpt lat="42.89458" lon="0.19772">
        <ele>2037.65</ele>
        <time>2016-07-05T09:10:40Z</time>
      </trkpt>
      <trkpt lat="42.89449" lon="0.19765">
        <ele>2038.61</ele>
        <time>2016-07-05T09:10:54Z</time>
      </trkpt>
      <trkpt lat="42.89444" lon="0.19754">
        <ele>2040.54</ele>
        <time>2016-07-05T09:11:09Z</time>
      </trkpt>
      <trkpt lat="42.89438" lon="0.19746">
        <ele>2041.5</ele>
        <time>2016-07-05T09:11:21Z</time>
      </trkpt>
      <trkpt lat="42.89434" lon="0.19737">
        <ele>2042.94</ele>
        <time>2016-07-05T09:11:33Z</time>
      </trkpt>
      <trkpt lat="42.89432" lon="0.19732">
        <ele>2043.42</ele>
        <time>2016-07-05T09:11:39Z</time>
      </trkpt>
      <trkpt lat="42.89426" lon="0.19728">
        <ele>2043.42</ele>
        <time>2016-07-05T09:11:48Z</time>
      </trkpt>
      <trkpt lat="42.89415" lon="0.19722">
        <ele>2044.86</ele>
        <time>2016-07-05T09:12:04Z</time>
      </trkpt>
      <trkpt lat="42.89413" lon="0.19712">
        <ele>2046.78</ele>
        <time>2016-07-05T09:12:16Z</time>
      </trkpt>
      <trkpt lat="42.89408" lon="0.19715">
        <ele>2046.78</ele>
        <time>2016-07-05T09:12:30Z</time>
      </trkpt>
      <trkpt lat="42.89403" lon="0.19717">
        <ele>2047.75</ele>
        <time>2016-07-05T09:12:40Z</time>
      </trkpt>
      <trkpt lat="42.89401" lon="0.19718">
        <ele>2047.26</ele>
        <time>2016-07-05T09:12:42Z</time>
      </trkpt>
      <trkpt lat="42.89391" lon="0.19725">
        <ele>2049.19</ele>
        <time>2016-07-05T09:12:57Z</time>
      </trkpt>
      <trkpt lat="42.89384" lon="0.19727">
        <ele>2051.11</ele>
        <time>2016-07-05T09:13:10Z</time>
      </trkpt>
      <trkpt lat="42.89377" lon="0.1973">
        <ele>2053.51</ele>
        <time>2016-07-05T09:13:25Z</time>
      </trkpt>
      <trkpt lat="42.89371" lon="0.19732">
        <ele>2053.51</ele>
        <time>2016-07-05T09:13:36Z</time>
      </trkpt>
      <trkpt lat="42.89367" lon="0.19731">
        <ele>2053.03</ele>
        <time>2016-07-05T09:13:40Z</time>
      </trkpt>
      <trkpt lat="42.89359" lon="0.19739">
        <ele>2053.03</ele>
        <time>2016-07-05T09:13:53Z</time>
      </trkpt>
      <trkpt lat="42.8935" lon="0.19742">
        <ele>2052.55</ele>
        <time>2016-07-05T09:14:05Z</time>
      </trkpt>
      <trkpt lat="42.89338" lon="0.19742">
        <ele>2053.99</ele>
        <time>2016-07-05T09:14:19Z</time>
      </trkpt>
      <trkpt lat="42.89328" lon="0.19741">
        <ele>2056.4</ele>
        <time>2016-07-05T09:14:34Z</time>
      </trkpt>
      <trkpt lat="42.89329" lon="0.19752">
        <ele>2056.88</ele>
        <time>2016-07-05T09:14:47Z</time>
      </trkpt>
      <trkpt lat="42.8933" lon="0.19756">
        <ele>2059.28</ele>
        <time>2016-07-05T09:14:59Z</time>
      </trkpt>
      <trkpt lat="42.89325" lon="0.19752">
        <ele>2063.61</ele>
        <time>2016-07-05T09:15:05Z</time>
      </trkpt>
      <trkpt lat="42.89325" lon="0.19751">
        <ele>2056.88</ele>
        <time>2016-07-05T09:15:06Z</time>
      </trkpt>
      <trkpt lat="42.89324" lon="0.19751">
        <ele>2062.65</ele>
        <time>2016-07-05T09:15:07Z</time>
      </trkpt>
      <trkpt lat="42.89317" lon="0.1975">
        <ele>2062.65</ele>
        <time>2016-07-05T09:15:20Z</time>
      </trkpt>
      <trkpt lat="42.8931" lon="0.19744">
        <ele>2064.57</ele>
        <time>2016-07-05T09:15:33Z</time>
      </trkpt>
      <trkpt lat="42.89303" lon="0.19738">
        <ele>2067.45</ele>
        <time>2016-07-05T09:15:48Z</time>
      </trkpt>
      <trkpt lat="42.89296" lon="0.19744">
        <ele>2069.38</ele>
        <time>2016-07-05T09:16:03Z</time>
      </trkpt>
      <trkpt lat="42.8929" lon="0.19751">
        <ele>2071.3</ele>
        <time>2016-07-05T09:16:16Z</time>
      </trkpt>
      <trkpt lat="42.8928" lon="0.19758">
        <ele>2071.78</ele>
        <time>2016-07-05T09:16:30Z</time>
      </trkpt>
      <trkpt lat="42.89279" lon="0.19764">
        <ele>2072.26</ele>
        <time>2016-07-05T09:16:36Z</time>
      </trkpt>
      <trkpt lat="42.89272" lon="0.19785">
        <ele>2072.26</ele>
        <time>2016-07-05T09:16:52Z</time>
      </trkpt>
      <trkpt lat="42.89263" lon="0.1979">
        <ele>2073.7</ele>
        <time>2016-07-05T09:17:06Z</time>
      </trkpt>
      <trkpt lat="42.89261" lon="0.19792">
        <ele>2073.22</ele>
        <time>2016-07-05T09:17:09Z</time>
      </trkpt>
      <trkpt lat="42.89251" lon="0.198">
        <ele>2075.62</ele>
        <time>2016-07-05T09:17:23Z</time>
      </trkpt>
      <trkpt lat="42.89241" lon="0.19828">
        <ele>2077.07</ele>
        <time>2016-07-05T09:17:43Z</time>
      </trkpt>
      <trkpt lat="42.89241" lon="0.19829">
        <ele>2076.1</ele>
        <time>2016-07-05T09:17:44Z</time>
      </trkpt>
      <trkpt lat="42.89237" lon="0.19841">
        <ele>2078.03</ele>
        <time>2016-07-05T09:18:00Z</time>
      </trkpt>
      <trkpt lat="42.89241" lon="0.19849">
        <ele>2078.99</ele>
        <time>2016-07-05T09:18:10Z</time>
      </trkpt>
      <trkpt lat="42.89247" lon="0.19852">
        <ele>2079.95</ele>
        <time>2016-07-05T09:18:17Z</time>
      </trkpt>
      <trkpt lat="42.89251" lon="0.19859">
        <ele>2079.95</ele>
        <time>2016-07-05T09:18:22Z</time>
      </trkpt>
      <trkpt lat="42.8925" lon="0.19861">
        <ele>2079.95</ele>
        <time>2016-07-05T09:18:24Z</time>
      </trkpt>
      <trkpt lat="42.8926" lon="0.19874">
        <ele>2082.83</ele>
        <time>2016-07-05T09:18:40Z</time>
      </trkpt>
      <trkpt lat="42.89271" lon="0.19888">
        <ele>2084.76</ele>
        <time>2016-07-05T09:18:57Z</time>
      </trkpt>
      <trkpt lat="42.8928" lon="0.19906">
        <ele>2084.76</ele>
        <time>2016-07-05T09:19:12Z</time>
      </trkpt>
      <trkpt lat="42.89286" lon="0.19922">
        <ele>2085.24</ele>
        <time>2016-07-05T09:19:27Z</time>
      </trkpt>
      <trkpt lat="42.89283" lon="0.1993">
        <ele>2087.64</ele>
        <time>2016-07-05T09:19:40Z</time>
      </trkpt>
      <trkpt lat="42.89281" lon="0.19941">
        <ele>2090.04</ele>
        <time>2016-07-05T09:19:53Z</time>
      </trkpt>
      <trkpt lat="42.89275" lon="0.19947">
        <ele>2091</ele>
        <time>2016-07-05T09:20:05Z</time>
      </trkpt>
      <trkpt lat="42.89275" lon="0.1995">
        <ele>2092.93</ele>
        <time>2016-07-05T09:20:18Z</time>
      </trkpt>
      <trkpt lat="42.89281" lon="0.19953">
        <ele>2094.85</ele>
        <time>2016-07-05T09:20:30Z</time>
      </trkpt>
      <trkpt lat="42.89285" lon="0.19957">
        <ele>2095.81</ele>
        <time>2016-07-05T09:20:36Z</time>
      </trkpt>
      <trkpt lat="42.89288" lon="0.19958">
        <ele>2095.81</ele>
        <time>2016-07-05T09:20:39Z</time>
      </trkpt>
      <trkpt lat="42.89296" lon="0.1997">
        <ele>2096.29</ele>
        <time>2016-07-05T09:20:52Z</time>
      </trkpt>
      <trkpt lat="42.89297" lon="0.19977">
        <ele>2096.77</ele>
        <time>2016-07-05T09:20:58Z</time>
      </trkpt>
      <trkpt lat="42.89298" lon="0.19979">
        <ele>2097.25</ele>
        <time>2016-07-05T09:21:00Z</time>
      </trkpt>
      <trkpt lat="42.89302" lon="0.19992">
        <ele>2098.21</ele>
        <time>2016-07-05T09:21:14Z</time>
      </trkpt>
      <trkpt lat="42.893" lon="0.2">
        <ele>2100.14</ele>
        <time>2016-07-05T09:21:25Z</time>
      </trkpt>
      <trkpt lat="42.89294" lon="0.20001">
        <ele>2101.1</ele>
        <time>2016-07-05T09:21:38Z</time>
      </trkpt>
      <trkpt lat="42.89286" lon="0.20003">
        <ele>2103.02</ele>
        <time>2016-07-05T09:21:52Z</time>
      </trkpt>
      <trkpt lat="42.89282" lon="0.20007">
        <ele>2105.42</ele>
        <time>2016-07-05T09:22:06Z</time>
      </trkpt>
      <trkpt lat="42.89279" lon="0.2001">
        <ele>2107.35</ele>
        <time>2016-07-05T09:22:20Z</time>
      </trkpt>
      <trkpt lat="42.89283" lon="0.20014">
        <ele>2109.27</ele>
        <time>2016-07-05T09:22:31Z</time>
      </trkpt>
      <trkpt lat="42.89286" lon="0.20016">
        <ele>2110.23</ele>
        <time>2016-07-05T09:22:43Z</time>
      </trkpt>
      <trkpt lat="42.89284" lon="0.20013">
        <ele>2108.79</ele>
        <time>2016-07-05T09:23:00Z</time>
      </trkpt>
      <trkpt lat="42.89284" lon="0.20013">
        <ele>2112.63</ele>
        <time>2016-07-05T09:23:01Z</time>
      </trkpt>
      <trkpt lat="42.89285" lon="0.20014">
        <ele>2110.23</ele>
        <time>2016-07-05T09:23:22Z</time>
      </trkpt>
      <trkpt lat="42.89285" lon="0.2002">
        <ele>2111.67</ele>
        <time>2016-07-05T09:23:36Z</time>
      </trkpt>
      <trkpt lat="42.89282" lon="0.20025">
        <ele>2113.6</ele>
        <time>2016-07-05T09:23:47Z</time>
      </trkpt>
      <trkpt lat="42.89275" lon="0.20026">
        <ele>2115.52</ele>
        <time>2016-07-05T09:24:01Z</time>
      </trkpt>
      <trkpt lat="42.89275" lon="0.20031">
        <ele>2118.4</ele>
        <time>2016-07-05T09:24:16Z</time>
      </trkpt>
      <trkpt lat="42.89276" lon="0.20041">
        <ele>2120.32</ele>
        <time>2016-07-05T09:24:29Z</time>
      </trkpt>
      <trkpt lat="42.89276" lon="0.20053">
        <ele>2121.29</ele>
        <time>2016-07-05T09:24:43Z</time>
      </trkpt>
      <trkpt lat="42.89272" lon="0.20062">
        <ele>2123.69</ele>
        <time>2016-07-05T09:24:58Z</time>
      </trkpt>
      <trkpt lat="42.8927" lon="0.20073">
        <ele>2125.61</ele>
        <time>2016-07-05T09:25:11Z</time>
      </trkpt>
      <trkpt lat="42.89264" lon="0.20072">
        <ele>2127.05</ele>
        <time>2016-07-05T09:25:24Z</time>
      </trkpt>
      <trkpt lat="42.89261" lon="0.20075">
        <ele>2126.09</ele>
        <time>2016-07-05T09:25:29Z</time>
      </trkpt>
      <trkpt lat="42.89253" lon="0.20082">
        <ele>2126.57</ele>
        <time>2016-07-05T09:25:41Z</time>
      </trkpt>
      <trkpt lat="42.89248" lon="0.20084">
        <ele>2126.09</ele>
        <time>2016-07-05T09:25:48Z</time>
      </trkpt>
      <trkpt lat="42.89246" lon="0.20086">
        <ele>2126.57</ele>
        <time>2016-07-05T09:25:51Z</time>
      </trkpt>
      <trkpt lat="42.89241" lon="0.20084">
        <ele>2126.57</ele>
        <time>2016-07-05T09:25:56Z</time>
      </trkpt>
      <trkpt lat="42.89233" lon="0.20087">
        <ele>2127.05</ele>
        <time>2016-07-05T09:26:08Z</time>
      </trkpt>
      <trkpt lat="42.89231" lon="0.20087">
        <ele>2127.05</ele>
        <time>2016-07-05T09:26:10Z</time>
      </trkpt>
      <trkpt lat="42.89227" lon="0.20084">
        <ele>2127.53</ele>
        <time>2016-07-05T09:26:15Z</time>
      </trkpt>
      <trkpt lat="42.89218" lon="0.20087">
        <ele>2127.05</ele>
        <time>2016-07-05T09:26:27Z</time>
      </trkpt>
      <trkpt lat="42.89216" lon="0.20088">
        <ele>2126.57</ele>
        <time>2016-07-05T09:26:31Z</time>
      </trkpt>
      <trkpt lat="42.8921" lon="0.20094">
        <ele>2125.61</ele>
        <time>2016-07-05T09:26:40Z</time>
      </trkpt>
      <trkpt lat="42.892" lon="0.20101">
        <ele>2125.13</ele>
        <time>2016-07-05T09:26:54Z</time>
      </trkpt>
      <trkpt lat="42.89195" lon="0.20102">
        <ele>2125.13</ele>
        <time>2016-07-05T09:27:01Z</time>
      </trkpt>
      <trkpt lat="42.89191" lon="0.20101">
        <ele>2126.57</ele>
        <time>2016-07-05T09:27:16Z</time>
      </trkpt>
      <trkpt lat="42.89189" lon="0.201">
        <ele>2125.13</ele>
        <time>2016-07-05T09:27:29Z</time>
      </trkpt>
      <trkpt lat="42.89186" lon="0.201">
        <ele>2128.02</ele>
        <time>2016-07-05T09:27:32Z</time>
      </trkpt>
      <trkpt lat="42.89185" lon="0.201">
        <ele>2125.61</ele>
        <time>2016-07-05T09:27:33Z</time>
      </trkpt>
      <trkpt lat="42.89175" lon="0.20099">
        <ele>2127.05</ele>
        <time>2016-07-05T09:27:47Z</time>
      </trkpt>
      <trkpt lat="42.89169" lon="0.20092">
        <ele>2129.94</ele>
        <time>2016-07-05T09:28:01Z</time>
      </trkpt>
      <trkpt lat="42.89166" lon="0.20095">
        <ele>2130.42</ele>
        <time>2016-07-05T09:28:16Z</time>
      </trkpt>
      <trkpt lat="42.89162" lon="0.2009">
        <ele>2131.86</ele>
        <time>2016-07-05T09:28:26Z</time>
      </trkpt>
      <trkpt lat="42.89157" lon="0.20086">
        <ele>2134.26</ele>
        <time>2016-07-05T09:28:38Z</time>
      </trkpt>
      <trkpt lat="42.89151" lon="0.20085">
        <ele>2136.67</ele>
        <time>2016-07-05T09:28:51Z</time>
      </trkpt>
      <trkpt lat="42.89147" lon="0.20083">
        <ele>2138.11</ele>
        <time>2016-07-05T09:29:04Z</time>
      </trkpt>
      <trkpt lat="42.89143" lon="0.20083">
        <ele>2139.55</ele>
        <time>2016-07-05T09:29:17Z</time>
      </trkpt>
      <trkpt lat="42.89136" lon="0.20087">
        <ele>2141.95</ele>
        <time>2016-07-05T09:29:32Z</time>
      </trkpt>
      <trkpt lat="42.89135" lon="0.20082">
        <ele>2142.92</ele>
        <time>2016-07-05T09:29:47Z</time>
      </trkpt>
      <trkpt lat="42.89134" lon="0.20083">
        <ele>2142.44</ele>
        <time>2016-07-05T09:29:57Z</time>
      </trkpt>
      <trkpt lat="42.89135" lon="0.20083">
        <ele>2142.44</ele>
        <time>2016-07-05T09:30:21Z</time>
      </trkpt>
      <trkpt lat="42.89134" lon="0.20081">
        <ele>2146.28</ele>
        <time>2016-07-05T09:30:34Z</time>
      </trkpt>
      <trkpt lat="42.89134" lon="0.20081">
        <ele>2142.92</ele>
        <time>2016-07-05T09:30:35Z</time>
      </trkpt>
      <trkpt lat="42.89137" lon="0.20086">
        <ele>2142.92</ele>
        <time>2016-07-05T09:30:51Z</time>
      </trkpt>
      <trkpt lat="42.89139" lon="0.20088">
        <ele>2142.92</ele>
        <time>2016-07-05T09:30:57Z</time>
      </trkpt>
      <trkpt lat="42.89136" lon="0.20089">
        <ele>2143.4</ele>
        <time>2016-07-05T09:31:10Z</time>
      </trkpt>
      <trkpt lat="42.89136" lon="0.20086">
        <ele>2142.92</ele>
        <time>2016-07-05T09:31:29Z</time>
      </trkpt>
      <trkpt lat="42.89139" lon="0.20089">
        <ele>2142.92</ele>
        <time>2016-07-05T09:31:45Z</time>
      </trkpt>
      <trkpt lat="42.89138" lon="0.20088">
        <ele>2143.4</ele>
        <time>2016-07-05T09:32:05Z</time>
      </trkpt>
      <trkpt lat="42.89136" lon="0.20089">
        <ele>2143.4</ele>
        <time>2016-07-05T09:32:21Z</time>
      </trkpt>
      <trkpt lat="42.89136" lon="0.20097">
        <ele>2144.84</ele>
        <time>2016-07-05T09:32:37Z</time>
      </trkpt>
      <trkpt lat="42.89133" lon="0.20104">
        <ele>2146.28</ele>
        <time>2016-07-05T09:32:52Z</time>
      </trkpt>
      <trkpt lat="42.89127" lon="0.20107">
        <ele>2147.72</ele>
        <time>2016-07-05T09:33:03Z</time>
      </trkpt>
      <trkpt lat="42.89123" lon="0.20108">
        <ele>2150.13</ele>
        <time>2016-07-05T09:33:11Z</time>
      </trkpt>
      <trkpt lat="42.89114" lon="0.2011">
        <ele>2152.05</ele>
        <time>2016-07-05T09:33:25Z</time>
      </trkpt>
      <trkpt lat="42.89117" lon="0.2012">
        <ele>2153.01</ele>
        <time>2016-07-05T09:33:37Z</time>
      </trkpt>
      <trkpt lat="42.89114" lon="0.20128">
        <ele>2154.93</ele>
        <time>2016-07-05T09:33:48Z</time>
      </trkpt>
      <trkpt lat="42.89107" lon="0.20131">
        <ele>2156.37</ele>
        <time>2016-07-05T09:33:58Z</time>
      </trkpt>
      <trkpt lat="42.89101" lon="0.20139">
        <ele>2156.86</ele>
        <time>2016-07-05T09:34:11Z</time>
      </trkpt>
      <trkpt lat="42.89094" lon="0.20152">
        <ele>2158.3</ele>
        <time>2016-07-05T09:34:26Z</time>
      </trkpt>
      <trkpt lat="42.89087" lon="0.20158">
        <ele>2157.34</ele>
        <time>2016-07-05T09:34:38Z</time>
      </trkpt>
      <trkpt lat="42.8908" lon="0.20162">
        <ele>2156.37</ele>
        <time>2016-07-05T09:34:50Z</time>
      </trkpt>
      <trkpt lat="42.89074" lon="0.20161">
        <ele>2155.41</ele>
        <time>2016-07-05T09:35:01Z</time>
      </trkpt>
      <trkpt lat="42.89072" lon="0.20168">
        <ele>2154.93</ele>
        <time>2016-07-05T09:35:09Z</time>
      </trkpt>
      <trkpt lat="42.89071" lon="0.20183">
        <ele>2152.53</ele>
        <time>2016-07-05T09:35:23Z</time>
      </trkpt>
      <trkpt lat="42.89069" lon="0.20187">
        <ele>2152.05</ele>
        <time>2016-07-05T09:35:28Z</time>
      </trkpt>
      <trkpt lat="42.89069" lon="0.20191">
        <ele>2152.05</ele>
        <time>2016-07-05T09:35:31Z</time>
      </trkpt>
      <trkpt lat="42.89066" lon="0.20194">
        <ele>2152.53</ele>
        <time>2016-07-05T09:35:36Z</time>
      </trkpt>
      <trkpt lat="42.89065" lon="0.20194">
        <ele>2152.05</ele>
        <time>2016-07-05T09:35:53Z</time>
      </trkpt>
      <trkpt lat="42.89062" lon="0.202">
        <ele>2153.97</ele>
        <time>2016-07-05T09:36:04Z</time>
      </trkpt>
      <trkpt lat="42.89061" lon="0.20206">
        <ele>2154.93</ele>
        <time>2016-07-05T09:36:12Z</time>
      </trkpt>
      <trkpt lat="42.89052" lon="0.2021">
        <ele>2156.37</ele>
        <time>2016-07-05T09:36:24Z</time>
      </trkpt>
      <trkpt lat="42.8905" lon="0.20213">
        <ele>2156.37</ele>
        <time>2016-07-05T09:36:27Z</time>
      </trkpt>
      <trkpt lat="42.89044" lon="0.20221">
        <ele>2155.89</ele>
        <time>2016-07-05T09:36:41Z</time>
      </trkpt>
      <trkpt lat="42.89038" lon="0.20228">
        <ele>2154.93</ele>
        <time>2016-07-05T09:36:53Z</time>
      </trkpt>
      <trkpt lat="42.89039" lon="0.20233">
        <ele>2154.45</ele>
        <time>2016-07-05T09:37:06Z</time>
      </trkpt>
      <trkpt lat="42.89033" lon="0.20241">
        <ele>2152.53</ele>
        <time>2016-07-05T09:37:19Z</time>
      </trkpt>
      <trkpt lat="42.89027" lon="0.20251">
        <ele>2150.61</ele>
        <time>2016-07-05T09:37:35Z</time>
      </trkpt>
      <trkpt lat="42.89022" lon="0.20259">
        <ele>2148.68</ele>
        <time>2016-07-05T09:37:47Z</time>
      </trkpt>
      <trkpt lat="42.89016" lon="0.20261">
        <ele>2147.72</ele>
        <time>2016-07-05T09:37:59Z</time>
      </trkpt>
      <trkpt lat="42.89009" lon="0.20266">
        <ele>2145.32</ele>
        <time>2016-07-05T09:38:14Z</time>
      </trkpt>
      <trkpt lat="42.8901" lon="0.20268">
        <ele>2145.32</ele>
        <time>2016-07-05T09:38:39Z</time>
      </trkpt>
      <trkpt lat="42.89003" lon="0.20275">
        <ele>2143.4</ele>
        <time>2016-07-05T09:38:53Z</time>
      </trkpt>
      <trkpt lat="42.88994" lon="0.20286">
        <ele>2142.44</ele>
        <time>2016-07-05T09:39:08Z</time>
      </trkpt>
      <trkpt lat="42.88988" lon="0.20298">
        <ele>2142.44</ele>
        <time>2016-07-05T09:39:21Z</time>
      </trkpt>
      <trkpt lat="42.88983" lon="0.20305">
        <ele>2141.95</ele>
        <time>2016-07-05T09:39:32Z</time>
      </trkpt>
      <trkpt lat="42.88979" lon="0.20314">
        <ele>2140.99</ele>
        <time>2016-07-05T09:39:44Z</time>
      </trkpt>
      <trkpt lat="42.88977" lon="0.20324">
        <ele>2139.07</ele>
        <time>2016-07-05T09:39:57Z</time>
      </trkpt>
      <trkpt lat="42.88974" lon="0.20325">
        <ele>2136.67</ele>
        <time>2016-07-05T09:40:10Z</time>
      </trkpt>
      <trkpt lat="42.88972" lon="0.20327">
        <ele>2136.19</ele>
        <time>2016-07-05T09:40:14Z</time>
      </trkpt>
      <trkpt lat="42.88968" lon="0.20335">
        <ele>2134.74</ele>
        <time>2016-07-05T09:40:29Z</time>
      </trkpt>
      <trkpt lat="42.88966" lon="0.20342">
        <ele>2132.82</ele>
        <time>2016-07-05T09:40:39Z</time>
      </trkpt>
      <trkpt lat="42.88963" lon="0.20351">
        <ele>2131.86</ele>
        <time>2016-07-05T09:40:51Z</time>
      </trkpt>
      <trkpt lat="42.88958" lon="0.20358">
        <ele>2129.94</ele>
        <time>2016-07-05T09:41:04Z</time>
      </trkpt>
      <trkpt lat="42.88954" lon="0.20366">
        <ele>2128.5</ele>
        <time>2016-07-05T09:41:16Z</time>
      </trkpt>
      <trkpt lat="42.88951" lon="0.2037">
        <ele>2127.53</ele>
        <time>2016-07-05T09:41:28Z</time>
      </trkpt>
      <trkpt lat="42.88946" lon="0.20377">
        <ele>2125.61</ele>
        <time>2016-07-05T09:41:41Z</time>
      </trkpt>
      <trkpt lat="42.88939" lon="0.20383">
        <ele>2123.21</ele>
        <time>2016-07-05T09:41:54Z</time>
      </trkpt>
      <trkpt lat="42.88934" lon="0.20389">
        <ele>2120.81</ele>
        <time>2016-07-05T09:42:09Z</time>
      </trkpt>
      <trkpt lat="42.88935" lon="0.20379">
        <ele>2119.84</ele>
        <time>2016-07-05T09:42:20Z</time>
      </trkpt>
      <trkpt lat="42.88933" lon="0.20381">
        <ele>2117.92</ele>
        <time>2016-07-05T09:42:31Z</time>
      </trkpt>
      <trkpt lat="42.88926" lon="0.2039">
        <ele>2117.92</ele>
        <time>2016-07-05T09:42:44Z</time>
      </trkpt>
      <trkpt lat="42.88922" lon="0.20399">
        <ele>2116.96</ele>
        <time>2016-07-05T09:42:55Z</time>
      </trkpt>
      <trkpt lat="42.88917" lon="0.20405">
        <ele>2116.48</ele>
        <time>2016-07-05T09:43:07Z</time>
      </trkpt>
      <trkpt lat="42.88914" lon="0.20414">
        <ele>2117.44</ele>
        <time>2016-07-05T09:43:25Z</time>
      </trkpt>
      <trkpt lat="42.88908" lon="0.20423">
        <ele>2119.36</ele>
        <time>2016-07-05T09:43:38Z</time>
      </trkpt>
      <trkpt lat="42.88903" lon="0.20426">
        <ele>2119.36</ele>
        <time>2016-07-05T09:43:44Z</time>
      </trkpt>
      <trkpt lat="42.88902" lon="0.20428">
        <ele>2119.36</ele>
        <time>2016-07-05T09:43:46Z</time>
      </trkpt>
      <trkpt lat="42.889" lon="0.20436">
        <ele>2119.36</ele>
        <time>2016-07-05T09:43:59Z</time>
      </trkpt>
      <trkpt lat="42.88899" lon="0.20447">
        <ele>2118.88</ele>
        <time>2016-07-05T09:44:11Z</time>
      </trkpt>
      <trkpt lat="42.88898" lon="0.20459">
        <ele>2119.36</ele>
        <time>2016-07-05T09:44:24Z</time>
      </trkpt>
      <trkpt lat="42.88895" lon="0.2047">
        <ele>2118.4</ele>
        <time>2016-07-05T09:44:37Z</time>
      </trkpt>
      <trkpt lat="42.88891" lon="0.20478">
        <ele>2119.84</ele>
        <time>2016-07-05T09:44:50Z</time>
      </trkpt>
      <trkpt lat="42.88885" lon="0.20476">
        <ele>2117.92</ele>
        <time>2016-07-05T09:45:04Z</time>
      </trkpt>
      <trkpt lat="42.88881" lon="0.20476">
        <ele>2116.96</ele>
        <time>2016-07-05T09:45:10Z</time>
      </trkpt>
      <trkpt lat="42.88876" lon="0.20478">
        <ele>2116.48</ele>
        <time>2016-07-05T09:45:24Z</time>
      </trkpt>
      <trkpt lat="42.88868" lon="0.20485">
        <ele>2117.44</ele>
        <time>2016-07-05T09:45:36Z</time>
      </trkpt>
      <trkpt lat="42.88861" lon="0.20494">
        <ele>2119.84</ele>
        <time>2016-07-05T09:45:49Z</time>
      </trkpt>
      <trkpt lat="42.88858" lon="0.20502">
        <ele>2122.25</ele>
        <time>2016-07-05T09:46:04Z</time>
      </trkpt>
      <trkpt lat="42.88853" lon="0.20505">
        <ele>2123.69</ele>
        <time>2016-07-05T09:46:16Z</time>
      </trkpt>
      <trkpt lat="42.8885" lon="0.20513">
        <ele>2126.09</ele>
        <time>2016-07-05T09:46:30Z</time>
      </trkpt>
      <trkpt lat="42.88842" lon="0.20517">
        <ele>2126.57</ele>
        <time>2016-07-05T09:46:42Z</time>
      </trkpt>
      <trkpt lat="42.88837" lon="0.20515">
        <ele>2127.05</ele>
        <time>2016-07-05T09:46:55Z</time>
      </trkpt>
      <trkpt lat="42.88834" lon="0.2051">
        <ele>2126.57</ele>
        <time>2016-07-05T09:47:08Z</time>
      </trkpt>
      <trkpt lat="42.88828" lon="0.20518">
        <ele>2127.05</ele>
        <time>2016-07-05T09:47:23Z</time>
      </trkpt>
      <trkpt lat="42.88822" lon="0.20516">
        <ele>2126.57</ele>
        <time>2016-07-05T09:47:36Z</time>
      </trkpt>
      <trkpt lat="42.88812" lon="0.20513">
        <ele>2125.13</ele>
        <time>2016-07-05T09:47:47Z</time>
      </trkpt>
      <trkpt lat="42.88798" lon="0.20519">
        <ele>2125.61</ele>
        <time>2016-07-05T09:48:04Z</time>
      </trkpt>
      <trkpt lat="42.88792" lon="0.20521">
        <ele>2126.57</ele>
        <time>2016-07-05T09:48:16Z</time>
      </trkpt>
      <trkpt lat="42.88784" lon="0.20521">
        <ele>2125.13</ele>
        <time>2016-07-05T09:48:28Z</time>
      </trkpt>
      <trkpt lat="42.88781" lon="0.20521">
        <ele>2125.61</ele>
        <time>2016-07-05T09:48:32Z</time>
      </trkpt>
      <trkpt lat="42.88778" lon="0.20517">
        <ele>2125.61</ele>
        <time>2016-07-05T09:48:41Z</time>
      </trkpt>
      <trkpt lat="42.88774" lon="0.20514">
        <ele>2125.13</ele>
        <time>2016-07-05T09:48:52Z</time>
      </trkpt>
      <trkpt lat="42.88774" lon="0.20511">
        <ele>2125.61</ele>
        <time>2016-07-05T09:49:05Z</time>
      </trkpt>
      <trkpt lat="42.88773" lon="0.2051">
        <ele>2126.09</ele>
        <time>2016-07-05T09:49:22Z</time>
      </trkpt>
      <trkpt lat="42.88773" lon="0.20511">
        <ele>2125.13</ele>
        <time>2016-07-05T09:49:32Z</time>
      </trkpt>
      <trkpt lat="42.8877" lon="0.20513">
        <ele>2125.61</ele>
        <time>2016-07-05T09:50:01Z</time>
      </trkpt>
      <trkpt lat="42.8877" lon="0.20512">
        <ele>2126.09</ele>
        <time>2016-07-05T09:50:33Z</time>
      </trkpt>
      <trkpt lat="42.88771" lon="0.20512">
        <ele>2125.61</ele>
        <time>2016-07-05T09:51:02Z</time>
      </trkpt>
      <trkpt lat="42.88772" lon="0.20512">
        <ele>2126.09</ele>
        <time>2016-07-05T09:51:28Z</time>
      </trkpt>
      <trkpt lat="42.88774" lon="0.20512">
        <ele>2126.09</ele>
        <time>2016-07-05T09:51:53Z</time>
      </trkpt>
      <trkpt lat="42.8877" lon="0.20511">
        <ele>2127.53</ele>
        <time>2016-07-05T09:52:05Z</time>
      </trkpt>
      <trkpt lat="42.88773" lon="0.20513">
        <ele>2126.57</ele>
        <time>2016-07-05T09:52:24Z</time>
      </trkpt>
      <trkpt lat="42.88772" lon="0.20514">
        <ele>2127.05</ele>
        <time>2016-07-05T09:52:42Z</time>
      </trkpt>
      <trkpt lat="42.88772" lon="0.20513">
        <ele>2127.53</ele>
        <time>2016-07-05T09:52:57Z</time>
      </trkpt>
      <trkpt lat="42.88771" lon="0.20517">
        <ele>2128.02</ele>
        <time>2016-07-05T09:53:11Z</time>
      </trkpt>
      <trkpt lat="42.88766" lon="0.20519">
        <ele>2128.98</ele>
        <time>2016-07-05T09:53:25Z</time>
      </trkpt>
      <trkpt lat="42.88758" lon="0.20519">
        <ele>2130.42</ele>
        <time>2016-07-05T09:53:39Z</time>
      </trkpt>
      <trkpt lat="42.8875" lon="0.20519">
        <ele>2130.42</ele>
        <time>2016-07-05T09:53:53Z</time>
      </trkpt>
      <trkpt lat="42.88745" lon="0.20531">
        <ele>2130.9</ele>
        <time>2016-07-05T09:54:07Z</time>
      </trkpt>
      <trkpt lat="42.88739" lon="0.20534">
        <ele>2129.46</ele>
        <time>2016-07-05T09:54:16Z</time>
      </trkpt>
      <trkpt lat="42.8873" lon="0.20534">
        <ele>2128.02</ele>
        <time>2016-07-05T09:54:28Z</time>
      </trkpt>
      <trkpt lat="42.88722" lon="0.20534">
        <ele>2126.09</ele>
        <time>2016-07-05T09:54:41Z</time>
      </trkpt>
      <trkpt lat="42.88721" lon="0.20534">
        <ele>2126.09</ele>
        <time>2016-07-05T09:54:43Z</time>
      </trkpt>
      <trkpt lat="42.88715" lon="0.20536">
        <ele>2124.17</ele>
        <time>2016-07-05T09:54:55Z</time>
      </trkpt>
      <trkpt lat="42.88705" lon="0.20538">
        <ele>2121.77</ele>
        <time>2016-07-05T09:55:09Z</time>
      </trkpt>
      <trkpt lat="42.88699" lon="0.20535">
        <ele>2122.25</ele>
        <time>2016-07-05T09:55:21Z</time>
      </trkpt>
      <trkpt lat="42.88688" lon="0.20539">
        <ele>2119.84</ele>
        <time>2016-07-05T09:55:36Z</time>
      </trkpt>
      <trkpt lat="42.88676" lon="0.20544">
        <ele>2119.84</ele>
        <time>2016-07-05T09:55:51Z</time>
      </trkpt>
      <trkpt lat="42.88669" lon="0.20544">
        <ele>2117.92</ele>
        <time>2016-07-05T09:56:02Z</time>
      </trkpt>
      <trkpt lat="42.88661" lon="0.20551">
        <ele>2117.92</ele>
        <time>2016-07-05T09:56:18Z</time>
      </trkpt>
      <trkpt lat="42.88655" lon="0.20556">
        <ele>2117.92</ele>
        <time>2016-07-05T09:56:30Z</time>
      </trkpt>
      <trkpt lat="42.88651" lon="0.20566">
        <ele>2120.32</ele>
        <time>2016-07-05T09:56:45Z</time>
      </trkpt>
      <trkpt lat="42.88644" lon="0.20577">
        <ele>2119.84</ele>
        <time>2016-07-05T09:57:00Z</time>
      </trkpt>
      <trkpt lat="42.88643" lon="0.20583">
        <ele>2119.84</ele>
        <time>2016-07-05T09:57:06Z</time>
      </trkpt>
      <trkpt lat="42.88633" lon="0.20597">
        <ele>2121.29</ele>
        <time>2016-07-05T09:57:22Z</time>
      </trkpt>
      <trkpt lat="42.88628" lon="0.20608">
        <ele>2122.73</ele>
        <time>2016-07-05T09:57:35Z</time>
      </trkpt>
      <trkpt lat="42.88624" lon="0.20618">
        <ele>2123.69</ele>
        <time>2016-07-05T09:57:46Z</time>
      </trkpt>
      <trkpt lat="42.88618" lon="0.20627">
        <ele>2124.17</ele>
        <time>2016-07-05T09:57:59Z</time>
      </trkpt>
      <trkpt lat="42.88614" lon="0.2063">
        <ele>2122.25</ele>
        <time>2016-07-05T09:58:11Z</time>
      </trkpt>
      <trkpt lat="42.88608" lon="0.20636">
        <ele>2121.29</ele>
        <time>2016-07-05T09:58:24Z</time>
      </trkpt>
      <trkpt lat="42.88601" lon="0.20633">
        <ele>2119.84</ele>
        <time>2016-07-05T09:58:36Z</time>
      </trkpt>
      <trkpt lat="42.88594" lon="0.20632">
        <ele>2118.4</ele>
        <time>2016-07-05T09:58:49Z</time>
      </trkpt>
      <trkpt lat="42.88588" lon="0.20634">
        <ele>2117.92</ele>
        <time>2016-07-05T09:58:59Z</time>
      </trkpt>
      <trkpt lat="42.88581" lon="0.20636">
        <ele>2117.44</ele>
        <time>2016-07-05T09:59:09Z</time>
      </trkpt>
      <trkpt lat="42.88574" lon="0.20645">
        <ele>2118.4</ele>
        <time>2016-07-05T09:59:21Z</time>
      </trkpt>
      <trkpt lat="42.8857" lon="0.20649">
        <ele>2119.36</ele>
        <time>2016-07-05T09:59:33Z</time>
      </trkpt>
      <trkpt lat="42.88569" lon="0.20651">
        <ele>2119.36</ele>
        <time>2016-07-05T09:59:37Z</time>
      </trkpt>
      <trkpt lat="42.88564" lon="0.20655">
        <ele>2119.84</ele>
        <time>2016-07-05T09:59:43Z</time>
      </trkpt>
      <trkpt lat="42.88553" lon="0.20653">
        <ele>2120.81</ele>
        <time>2016-07-05T09:59:56Z</time>
      </trkpt>
      <trkpt lat="42.8854" lon="0.20653">
        <ele>2121.29</ele>
        <time>2016-07-05T10:00:10Z</time>
      </trkpt>
      <trkpt lat="42.88532" lon="0.20649">
        <ele>2120.81</ele>
        <time>2016-07-05T10:00:21Z</time>
      </trkpt>
      <trkpt lat="42.88529" lon="0.2064">
        <ele>2121.29</ele>
        <time>2016-07-05T10:00:33Z</time>
      </trkpt>
      <trkpt lat="42.88529" lon="0.20638">
        <ele>2121.29</ele>
        <time>2016-07-05T10:00:35Z</time>
      </trkpt>
      <trkpt lat="42.88534" lon="0.20628">
        <ele>2121.29</ele>
        <time>2016-07-05T10:00:47Z</time>
      </trkpt>
      <trkpt lat="42.88531" lon="0.2062">
        <ele>2122.25</ele>
        <time>2016-07-05T10:00:59Z</time>
      </trkpt>
      <trkpt lat="42.88533" lon="0.20608">
        <ele>2123.69</ele>
        <time>2016-07-05T10:01:11Z</time>
      </trkpt>
      <trkpt lat="42.88529" lon="0.20606">
        <ele>2124.17</ele>
        <time>2016-07-05T10:01:16Z</time>
      </trkpt>
      <trkpt lat="42.88526" lon="0.20593">
        <ele>2125.13</ele>
        <time>2016-07-05T10:01:30Z</time>
      </trkpt>
      <trkpt lat="42.88522" lon="0.20577">
        <ele>2125.61</ele>
        <time>2016-07-05T10:01:45Z</time>
      </trkpt>
      <trkpt lat="42.88521" lon="0.2057">
        <ele>2126.57</ele>
        <time>2016-07-05T10:01:55Z</time>
      </trkpt>
      <trkpt lat="42.88519" lon="0.20557">
        <ele>2128.98</ele>
        <time>2016-07-05T10:02:09Z</time>
      </trkpt>
      <trkpt lat="42.88515" lon="0.20548">
        <ele>2129.94</ele>
        <time>2016-07-05T10:02:24Z</time>
      </trkpt>
      <trkpt lat="42.88509" lon="0.20551">
        <ele>2128.98</ele>
        <time>2016-07-05T10:02:31Z</time>
      </trkpt>
      <trkpt lat="42.88506" lon="0.20553">
        <ele>2128.5</ele>
        <time>2016-07-05T10:02:34Z</time>
      </trkpt>
      <trkpt lat="42.88497" lon="0.20544">
        <ele>2128.02</ele>
        <time>2016-07-05T10:02:48Z</time>
      </trkpt>
      <trkpt lat="42.8849" lon="0.20533">
        <ele>2128.98</ele>
        <time>2016-07-05T10:03:02Z</time>
      </trkpt>
      <trkpt lat="42.88486" lon="0.20527">
        <ele>2129.94</ele>
        <time>2016-07-05T10:03:15Z</time>
      </trkpt>
      <trkpt lat="42.88478" lon="0.20525">
        <ele>2130.42</ele>
        <time>2016-07-05T10:03:29Z</time>
      </trkpt>
      <trkpt lat="42.88476" lon="0.20522">
        <ele>2132.34</ele>
        <time>2016-07-05T10:03:42Z</time>
      </trkpt>
      <trkpt lat="42.88472" lon="0.2052">
        <ele>2134.74</ele>
        <time>2016-07-05T10:03:56Z</time>
      </trkpt>
      <trkpt lat="42.88466" lon="0.20513">
        <ele>2137.15</ele>
        <time>2016-07-05T10:04:10Z</time>
      </trkpt>
      <trkpt lat="42.88468" lon="0.20507">
        <ele>2139.55</ele>
        <time>2016-07-05T10:04:23Z</time>
      </trkpt>
      <trkpt lat="42.88471" lon="0.20497">
        <ele>2140.99</ele>
        <time>2016-07-05T10:04:35Z</time>
      </trkpt>
      <trkpt lat="42.88472" lon="0.20496">
        <ele>2140.99</ele>
        <time>2016-07-05T10:04:36Z</time>
      </trkpt>
      <trkpt lat="42.88476" lon="0.20487">
        <ele>2142.44</ele>
        <time>2016-07-05T10:04:48Z</time>
      </trkpt>
      <trkpt lat="42.88473" lon="0.20485">
        <ele>2144.36</ele>
        <time>2016-07-05T10:05:01Z</time>
      </trkpt>
      <trkpt lat="42.88465" lon="0.20485">
        <ele>2146.28</ele>
        <time>2016-07-05T10:05:15Z</time>
      </trkpt>
      <trkpt lat="42.88456" lon="0.20485">
        <ele>2149.16</ele>
        <time>2016-07-05T10:05:30Z</time>
      </trkpt>
      <trkpt lat="42.88452" lon="0.20479">
        <ele>2150.61</ele>
        <time>2016-07-05T10:05:42Z</time>
      </trkpt>
      <trkpt lat="42.88449" lon="0.20474">
        <ele>2153.01</ele>
        <time>2016-07-05T10:05:55Z</time>
      </trkpt>
      <trkpt lat="42.88443" lon="0.20472">
        <ele>2155.41</ele>
        <time>2016-07-05T10:06:09Z</time>
      </trkpt>
      <trkpt lat="42.88438" lon="0.20466">
        <ele>2157.82</ele>
        <time>2016-07-05T10:06:22Z</time>
      </trkpt>
      <trkpt lat="42.88443" lon="0.20459">
        <ele>2159.26</ele>
        <time>2016-07-05T10:06:35Z</time>
      </trkpt>
      <trkpt lat="42.88448" lon="0.20453">
        <ele>2161.18</ele>
        <time>2016-07-05T10:06:48Z</time>
      </trkpt>
      <trkpt lat="42.88451" lon="0.20448">
        <ele>2162.62</ele>
        <time>2016-07-05T10:06:59Z</time>
      </trkpt>
      <trkpt lat="42.8845" lon="0.20443">
        <ele>2165.03</ele>
        <time>2016-07-05T10:07:13Z</time>
      </trkpt>
      <trkpt lat="42.88437" lon="0.20443">
        <ele>2166.95</ele>
        <time>2016-07-05T10:07:28Z</time>
      </trkpt>
      <trkpt lat="42.88429" lon="0.20439">
        <ele>2169.35</ele>
        <time>2016-07-05T10:07:43Z</time>
      </trkpt>
      <trkpt lat="42.88425" lon="0.20435">
        <ele>2170.79</ele>
        <time>2016-07-05T10:07:55Z</time>
      </trkpt>
      <trkpt lat="42.8842" lon="0.20431">
        <ele>2173.2</ele>
        <time>2016-07-05T10:08:07Z</time>
      </trkpt>
      <trkpt lat="42.88417" lon="0.20426">
        <ele>2175.6</ele>
        <time>2016-07-05T10:08:20Z</time>
      </trkpt>
      <trkpt lat="42.88417" lon="0.20421">
        <ele>2177.52</ele>
        <time>2016-07-05T10:08:34Z</time>
      </trkpt>
      <trkpt lat="42.88412" lon="0.20425">
        <ele>2178.97</ele>
        <time>2016-07-05T10:08:45Z</time>
      </trkpt>
      <trkpt lat="42.88411" lon="0.20425">
        <ele>2179.45</ele>
        <time>2016-07-05T10:08:46Z</time>
      </trkpt>
      <trkpt lat="42.88405" lon="0.20435">
        <ele>2180.89</ele>
        <time>2016-07-05T10:09:01Z</time>
      </trkpt>
      <trkpt lat="42.88405" lon="0.20433">
        <ele>2180.41</ele>
        <time>2016-07-05T10:09:25Z</time>
      </trkpt>
      <trkpt lat="42.88403" lon="0.20441">
        <ele>2178</ele>
        <time>2016-07-05T10:09:36Z</time>
      </trkpt>
      <trkpt lat="42.88396" lon="0.20451">
        <ele>2178.48</ele>
        <time>2016-07-05T10:09:50Z</time>
      </trkpt>
      <trkpt lat="42.88392" lon="0.20459">
        <ele>2179.93</ele>
        <time>2016-07-05T10:09:59Z</time>
      </trkpt>
      <trkpt lat="42.88389" lon="0.20463">
        <ele>2179.93</ele>
        <time>2016-07-05T10:10:03Z</time>
      </trkpt>
      <trkpt lat="42.88386" lon="0.20467">
        <ele>2179.93</ele>
        <time>2016-07-05T10:10:08Z</time>
      </trkpt>
      <trkpt lat="42.88385" lon="0.20476">
        <ele>2179.45</ele>
        <time>2016-07-05T10:10:16Z</time>
      </trkpt>
      <trkpt lat="42.88385" lon="0.20491">
        <ele>2179.45</ele>
        <time>2016-07-05T10:10:29Z</time>
      </trkpt>
      <trkpt lat="42.88381" lon="0.205">
        <ele>2179.93</ele>
        <time>2016-07-05T10:10:38Z</time>
      </trkpt>
      <trkpt lat="42.88372" lon="0.20499">
        <ele>2181.85</ele>
        <time>2016-07-05T10:10:51Z</time>
      </trkpt>
      <trkpt lat="42.88364" lon="0.20509">
        <ele>2183.77</ele>
        <time>2016-07-05T10:11:05Z</time>
      </trkpt>
      <trkpt lat="42.88358" lon="0.20507">
        <ele>2185.69</ele>
        <time>2016-07-05T10:11:18Z</time>
      </trkpt>
      <trkpt lat="42.88354" lon="0.20507">
        <ele>2188.1</ele>
        <time>2016-07-05T10:11:32Z</time>
      </trkpt>
      <trkpt lat="42.88347" lon="0.20511">
        <ele>2190.5</ele>
        <time>2016-07-05T10:11:48Z</time>
      </trkpt>
      <trkpt lat="42.88337" lon="0.20512">
        <ele>2192.42</ele>
        <time>2016-07-05T10:12:03Z</time>
      </trkpt>
      <trkpt lat="42.88335" lon="0.20512">
        <ele>2194.35</ele>
        <time>2016-07-05T10:12:17Z</time>
      </trkpt>
      <trkpt lat="42.88328" lon="0.20512">
        <ele>2195.79</ele>
        <time>2016-07-05T10:12:30Z</time>
      </trkpt>
      <trkpt lat="42.88324" lon="0.20515">
        <ele>2196.27</ele>
        <time>2016-07-05T10:12:35Z</time>
      </trkpt>
      <trkpt lat="42.88312" lon="0.20513">
        <ele>2196.75</ele>
        <time>2016-07-05T10:12:48Z</time>
      </trkpt>
      <trkpt lat="42.8831" lon="0.20513">
        <ele>2196.75</ele>
        <time>2016-07-05T10:12:51Z</time>
      </trkpt>
      <trkpt lat="42.88297" lon="0.20514">
        <ele>2198.67</ele>
        <time>2016-07-05T10:13:08Z</time>
      </trkpt>
      <trkpt lat="42.88288" lon="0.20518">
        <ele>2198.67</ele>
        <time>2016-07-05T10:13:20Z</time>
      </trkpt>
      <trkpt lat="42.88287" lon="0.20519">
        <ele>2198.67</ele>
        <time>2016-07-05T10:13:22Z</time>
      </trkpt>
      <trkpt lat="42.88277" lon="0.20518">
        <ele>2199.63</ele>
        <time>2016-07-05T10:13:36Z</time>
      </trkpt>
      <trkpt lat="42.88267" lon="0.20522">
        <ele>2199.63</ele>
        <time>2016-07-05T10:13:50Z</time>
      </trkpt>
      <trkpt lat="42.88266" lon="0.20524">
        <ele>2199.63</ele>
        <time>2016-07-05T10:13:52Z</time>
      </trkpt>
      <trkpt lat="42.88257" lon="0.20532">
        <ele>2200.59</ele>
        <time>2016-07-05T10:14:07Z</time>
      </trkpt>
      <trkpt lat="42.8825" lon="0.20535">
        <ele>2200.11</ele>
        <time>2016-07-05T10:14:19Z</time>
      </trkpt>
      <trkpt lat="42.88243" lon="0.20533">
        <ele>2202.04</ele>
        <time>2016-07-05T10:14:31Z</time>
      </trkpt>
      <trkpt lat="42.88239" lon="0.20528">
        <ele>2203.96</ele>
        <time>2016-07-05T10:14:44Z</time>
      </trkpt>
      <trkpt lat="42.88231" lon="0.20523">
        <ele>2205.88</ele>
        <time>2016-07-05T10:14:57Z</time>
      </trkpt>
      <trkpt lat="42.88222" lon="0.20523">
        <ele>2207.81</ele>
        <time>2016-07-05T10:15:12Z</time>
      </trkpt>
      <trkpt lat="42.88216" lon="0.20524">
        <ele>2209.25</ele>
        <time>2016-07-05T10:15:25Z</time>
      </trkpt>
      <trkpt lat="42.8821" lon="0.20523">
        <ele>2209.73</ele>
        <time>2016-07-05T10:15:36Z</time>
      </trkpt>
      <trkpt lat="42.88209" lon="0.20526">
        <ele>2209.73</ele>
        <time>2016-07-05T10:15:41Z</time>
      </trkpt>
      <trkpt lat="42.88211" lon="0.20538">
        <ele>2210.69</ele>
        <time>2016-07-05T10:15:55Z</time>
      </trkpt>
      <trkpt lat="42.8821" lon="0.20544">
        <ele>2211.65</ele>
        <time>2016-07-05T10:16:02Z</time>
      </trkpt>
      <trkpt lat="42.88202" lon="0.20552">
        <ele>2213.57</ele>
        <time>2016-07-05T10:16:16Z</time>
      </trkpt>
      <trkpt lat="42.882" lon="0.20554">
        <ele>2213.57</ele>
        <time>2016-07-05T10:16:19Z</time>
      </trkpt>
      <trkpt lat="42.88198" lon="0.20556">
        <ele>2213.09</ele>
        <time>2016-07-05T10:16:22Z</time>
      </trkpt>
      <trkpt lat="42.88192" lon="0.20563">
        <ele>2213.57</ele>
        <time>2016-07-05T10:16:34Z</time>
      </trkpt>
      <trkpt lat="42.88187" lon="0.20571">
        <ele>2215.01</ele>
        <time>2016-07-05T10:16:47Z</time>
      </trkpt>
      <trkpt lat="42.88185" lon="0.20573">
        <ele>2215.5</ele>
        <time>2016-07-05T10:16:50Z</time>
      </trkpt>
      <trkpt lat="42.88174" lon="0.20577">
        <ele>2215.01</ele>
        <time>2016-07-05T10:17:02Z</time>
      </trkpt>
      <trkpt lat="42.88164" lon="0.20575">
        <ele>2215.98</ele>
        <time>2016-07-05T10:17:17Z</time>
      </trkpt>
      <trkpt lat="42.88161" lon="0.20573">
        <ele>2217.42</ele>
        <time>2016-07-05T10:17:25Z</time>
      </trkpt>
      <trkpt lat="42.88151" lon="0.20564">
        <ele>2218.86</ele>
        <time>2016-07-05T10:17:40Z</time>
      </trkpt>
      <trkpt lat="42.88145" lon="0.20556">
        <ele>2220.78</ele>
        <time>2016-07-05T10:17:54Z</time>
      </trkpt>
      <trkpt lat="42.88145" lon="0.20554">
        <ele>2217.9</ele>
        <time>2016-07-05T10:18:09Z</time>
      </trkpt>
      <trkpt lat="42.88145" lon="0.20554">
        <ele>2221.26</ele>
        <time>2016-07-05T10:18:10Z</time>
      </trkpt>
      <trkpt lat="42.88145" lon="0.20553">
        <ele>2217.9</ele>
        <time>2016-07-05T10:18:12Z</time>
      </trkpt>
      <trkpt lat="42.88144" lon="0.20553">
        <ele>2219.34</ele>
        <time>2016-07-05T10:18:13Z</time>
      </trkpt>
      <trkpt lat="42.88145" lon="0.20558">
        <ele>2219.82</ele>
        <time>2016-07-05T10:18:24Z</time>
      </trkpt>
      <trkpt lat="42.88145" lon="0.20557">
        <ele>2219.82</ele>
        <time>2016-07-05T10:18:35Z</time>
      </trkpt>
      <trkpt lat="42.88144" lon="0.20545">
        <ele>2219.34</ele>
        <time>2016-07-05T10:19:28Z</time>
      </trkpt>
      <trkpt lat="42.88143" lon="0.20542">
        <ele>2220.78</ele>
        <time>2016-07-05T10:19:31Z</time>
      </trkpt>
      <trkpt lat="42.88142" lon="0.20534">
        <ele>2220.3</ele>
        <time>2016-07-05T10:19:43Z</time>
      </trkpt>
      <trkpt lat="42.88141" lon="0.2054">
        <ele>2220.78</ele>
        <time>2016-07-05T10:20:18Z</time>
      </trkpt>
      <trkpt lat="42.88147" lon="0.20558">
        <ele>2220.3</ele>
        <time>2016-07-05T10:20:42Z</time>
      </trkpt>
      <trkpt lat="42.88148" lon="0.20559">
        <ele>2219.82</ele>
        <time>2016-07-05T10:21:43Z</time>
      </trkpt>
      <trkpt lat="42.88145" lon="0.20558">
        <ele>2220.78</ele>
        <time>2016-07-05T10:22:09Z</time>
      </trkpt>
      <trkpt lat="42.88146" lon="0.20557">
        <ele>2220.3</ele>
        <time>2016-07-05T10:23:12Z</time>
      </trkpt>
      <trkpt lat="42.88148" lon="0.20557">
        <ele>2220.3</ele>
        <time>2016-07-05T10:23:29Z</time>
      </trkpt>
      <trkpt lat="42.88144" lon="0.20556">
        <ele>2220.3</ele>
        <time>2016-07-05T10:23:41Z</time>
      </trkpt>
      <trkpt lat="42.88142" lon="0.20554">
        <ele>2219.82</ele>
        <time>2016-07-05T10:24:10Z</time>
      </trkpt>
      <trkpt lat="42.88142" lon="0.20554">
        <ele>2219.82</ele>
        <time>2016-07-05T10:24:47Z</time>
      </trkpt>
      <trkpt lat="42.88142" lon="0.20554">
        <ele>2219.82</ele>
        <time>2016-07-05T10:25:26Z</time>
      </trkpt>
      <trkpt lat="42.88143" lon="0.20554">
        <ele>2220.78</ele>
        <time>2016-07-05T10:25:54Z</time>
      </trkpt>
      <trkpt lat="42.88145" lon="0.20556">
        <ele>2220.78</ele>
        <time>2016-07-05T10:26:09Z</time>
      </trkpt>
      <trkpt lat="42.88145" lon="0.20564">
        <ele>2220.3</ele>
        <time>2016-07-05T10:26:42Z</time>
      </trkpt>
      <trkpt lat="42.88144" lon="0.20567">
        <ele>2220.78</ele>
        <time>2016-07-05T10:26:47Z</time>
      </trkpt>
      <trkpt lat="42.88143" lon="0.20576">
        <ele>2221.74</ele>
        <time>2016-07-05T10:27:02Z</time>
      </trkpt>
      <trkpt lat="42.8814" lon="0.20565">
        <ele>2221.74</ele>
        <time>2016-07-05T10:27:16Z</time>
      </trkpt>
      <trkpt lat="42.88141" lon="0.20563">
        <ele>2221.26</ele>
        <time>2016-07-05T10:27:18Z</time>
      </trkpt>
      <trkpt lat="42.88139" lon="0.2056">
        <ele>2221.26</ele>
        <time>2016-07-05T10:27:21Z</time>
      </trkpt>
      <trkpt lat="42.88133" lon="0.20547">
        <ele>2220.3</ele>
        <time>2016-07-05T10:27:34Z</time>
      </trkpt>
      <trkpt lat="42.88127" lon="0.20541">
        <ele>2219.34</ele>
        <time>2016-07-05T10:27:44Z</time>
      </trkpt>
      <trkpt lat="42.88119" lon="0.20541">
        <ele>2219.82</ele>
        <time>2016-07-05T10:27:52Z</time>
      </trkpt>
      <trkpt lat="42.88117" lon="0.20542">
        <ele>2219.82</ele>
        <time>2016-07-05T10:27:54Z</time>
      </trkpt>
      <trkpt lat="42.88112" lon="0.20551">
        <ele>2220.3</ele>
        <time>2016-07-05T10:28:03Z</time>
      </trkpt>
      <trkpt lat="42.88103" lon="0.2056">
        <ele>2221.74</ele>
        <time>2016-07-05T10:28:19Z</time>
      </trkpt>
      <trkpt lat="42.88101" lon="0.20562">
        <ele>2222.22</ele>
        <time>2016-07-05T10:28:28Z</time>
      </trkpt>
      <trkpt lat="42.88093" lon="0.20571">
        <ele>2224.63</ele>
        <time>2016-07-05T10:28:42Z</time>
      </trkpt>
      <trkpt lat="42.88084" lon="0.20573">
        <ele>2227.03</ele>
        <time>2016-07-05T10:28:55Z</time>
      </trkpt>
      <trkpt lat="42.88076" lon="0.20568">
        <ele>2228.95</ele>
        <time>2016-07-05T10:29:08Z</time>
      </trkpt>
      <trkpt lat="42.88072" lon="0.20567">
        <ele>2228.95</ele>
        <time>2016-07-05T10:29:14Z</time>
      </trkpt>
      <trkpt lat="42.88058" lon="0.20562">
        <ele>2229.43</ele>
        <time>2016-07-05T10:29:30Z</time>
      </trkpt>
      <trkpt lat="42.88048" lon="0.20565">
        <ele>2229.92</ele>
        <time>2016-07-05T10:29:44Z</time>
      </trkpt>
      <trkpt lat="42.88036" lon="0.20569">
        <ele>2230.88</ele>
        <time>2016-07-05T10:29:59Z</time>
      </trkpt>
      <trkpt lat="42.88031" lon="0.20574">
        <ele>2231.36</ele>
        <time>2016-07-05T10:30:05Z</time>
      </trkpt>
      <trkpt lat="42.88027" lon="0.20577">
        <ele>2231.36</ele>
        <time>2016-07-05T10:30:09Z</time>
      </trkpt>
      <trkpt lat="42.88024" lon="0.20575">
        <ele>2230.88</ele>
        <time>2016-07-05T10:30:12Z</time>
      </trkpt>
      <trkpt lat="42.8802" lon="0.20578">
        <ele>2230.4</ele>
        <time>2016-07-05T10:30:16Z</time>
      </trkpt>
      <trkpt lat="42.88019" lon="0.2058">
        <ele>2230.4</ele>
        <time>2016-07-05T10:30:18Z</time>
      </trkpt>
      <trkpt lat="42.8801" lon="0.20571">
        <ele>2231.36</ele>
        <time>2016-07-05T10:30:30Z</time>
      </trkpt>
      <trkpt lat="42.88" lon="0.20564">
        <ele>2233.76</ele>
        <time>2016-07-05T10:30:45Z</time>
      </trkpt>
      <trkpt lat="42.87991" lon="0.20568">
        <ele>2235.68</ele>
        <time>2016-07-05T10:30:59Z</time>
      </trkpt>
      <trkpt lat="42.87989" lon="0.20569">
        <ele>2235.2</ele>
        <time>2016-07-05T10:31:01Z</time>
      </trkpt>
      <trkpt lat="42.87987" lon="0.2057">
        <ele>2235.68</ele>
        <time>2016-07-05T10:31:03Z</time>
      </trkpt>
      <trkpt lat="42.87975" lon="0.20563">
        <ele>2235.68</ele>
        <time>2016-07-05T10:31:17Z</time>
      </trkpt>
      <trkpt lat="42.87973" lon="0.20562">
        <ele>2235.68</ele>
        <time>2016-07-05T10:31:19Z</time>
      </trkpt>
      <trkpt lat="42.87967" lon="0.20545">
        <ele>2234.72</ele>
        <time>2016-07-05T10:31:34Z</time>
      </trkpt>
      <trkpt lat="42.87963" lon="0.20531">
        <ele>2234.72</ele>
        <time>2016-07-05T10:31:47Z</time>
      </trkpt>
      <trkpt lat="42.87958" lon="0.20518">
        <ele>2236.16</ele>
        <time>2016-07-05T10:32:01Z</time>
      </trkpt>
      <trkpt lat="42.87956" lon="0.20507">
        <ele>2238.09</ele>
        <time>2016-07-05T10:32:13Z</time>
      </trkpt>
      <trkpt lat="42.87954" lon="0.205">
        <ele>2239.53</ele>
        <time>2016-07-05T10:32:27Z</time>
      </trkpt>
      <trkpt lat="42.87953" lon="0.20501">
        <ele>2240.01</ele>
        <time>2016-07-05T10:32:28Z</time>
      </trkpt>
      <trkpt lat="42.87946" lon="0.20493">
        <ele>2238.57</ele>
        <time>2016-07-05T10:32:40Z</time>
      </trkpt>
      <trkpt lat="42.87945" lon="0.20487">
        <ele>2239.05</ele>
        <time>2016-07-05T10:32:46Z</time>
      </trkpt>
      <trkpt lat="42.87945" lon="0.2048">
        <ele>2241.45</ele>
        <time>2016-07-05T10:32:59Z</time>
      </trkpt>
      <trkpt lat="42.87942" lon="0.20469">
        <ele>2243.37</ele>
        <time>2016-07-05T10:33:12Z</time>
      </trkpt>
      <trkpt lat="42.87938" lon="0.2046">
        <ele>2245.3</ele>
        <time>2016-07-05T10:33:26Z</time>
      </trkpt>
      <trkpt lat="42.87935" lon="0.20449">
        <ele>2247.7</ele>
        <time>2016-07-05T10:33:41Z</time>
      </trkpt>
      <trkpt lat="42.87936" lon="0.20441">
        <ele>2249.14</ele>
        <time>2016-07-05T10:33:50Z</time>
      </trkpt>
      <trkpt lat="42.87931" lon="0.20426">
        <ele>2250.1</ele>
        <time>2016-07-05T10:34:05Z</time>
      </trkpt>
      <trkpt lat="42.87926" lon="0.20423">
        <ele>2252.03</ele>
        <time>2016-07-05T10:34:19Z</time>
      </trkpt>
      <trkpt lat="42.87923" lon="0.20416">
        <ele>2254.43</ele>
        <time>2016-07-05T10:34:31Z</time>
      </trkpt>
      <trkpt lat="42.87918" lon="0.20422">
        <ele>2256.35</ele>
        <time>2016-07-05T10:34:45Z</time>
      </trkpt>
      <trkpt lat="42.87914" lon="0.20414">
        <ele>2258.27</ele>
        <time>2016-07-05T10:34:59Z</time>
      </trkpt>
      <trkpt lat="42.87914" lon="0.20411">
        <ele>2259.24</ele>
        <time>2016-07-05T10:35:03Z</time>
      </trkpt>
      <trkpt lat="42.87912" lon="0.20403">
        <ele>2260.68</ele>
        <time>2016-07-05T10:35:19Z</time>
      </trkpt>
      <trkpt lat="42.87903" lon="0.20411">
        <ele>2262.6</ele>
        <time>2016-07-05T10:35:35Z</time>
      </trkpt>
      <trkpt lat="42.87899" lon="0.20409">
        <ele>2263.56</ele>
        <time>2016-07-05T10:35:44Z</time>
      </trkpt>
      <trkpt lat="42.87897" lon="0.20403">
        <ele>2264.52</ele>
        <time>2016-07-05T10:35:51Z</time>
      </trkpt>
      <trkpt lat="42.8789" lon="0.20398">
        <ele>2265.96</ele>
        <time>2016-07-05T10:36:02Z</time>
      </trkpt>
      <trkpt lat="42.87876" lon="0.20403">
        <ele>2265.96</ele>
        <time>2016-07-05T10:36:17Z</time>
      </trkpt>
      <trkpt lat="42.87865" lon="0.20409">
        <ele>2266.93</ele>
        <time>2016-07-05T10:36:29Z</time>
      </trkpt>
      <trkpt lat="42.87853" lon="0.2042">
        <ele>2267.41</ele>
        <time>2016-07-05T10:36:42Z</time>
      </trkpt>
      <trkpt lat="42.87848" lon="0.20427">
        <ele>2268.37</ele>
        <time>2016-07-05T10:36:50Z</time>
      </trkpt>
      <trkpt lat="42.87847" lon="0.2043">
        <ele>2268.37</ele>
        <time>2016-07-05T10:36:52Z</time>
      </trkpt>
      <trkpt lat="42.87841" lon="0.20435">
        <ele>2269.33</ele>
        <time>2016-07-05T10:37:00Z</time>
      </trkpt>
      <trkpt lat="42.87833" lon="0.20444">
        <ele>2270.77</ele>
        <time>2016-07-05T10:37:13Z</time>
      </trkpt>
      <trkpt lat="42.87823" lon="0.20442">
        <ele>2273.66</ele>
        <time>2016-07-05T10:37:27Z</time>
      </trkpt>
      <trkpt lat="42.87819" lon="0.20441">
        <ele>2275.58</ele>
        <time>2016-07-05T10:37:39Z</time>
      </trkpt>
      <trkpt lat="42.87814" lon="0.20447">
        <ele>2277.5</ele>
        <time>2016-07-05T10:37:53Z</time>
      </trkpt>
      <trkpt lat="42.87811" lon="0.20454">
        <ele>2280.87</ele>
        <time>2016-07-05T10:38:10Z</time>
      </trkpt>
      <trkpt lat="42.87804" lon="0.20457">
        <ele>2283.27</ele>
        <time>2016-07-05T10:38:25Z</time>
      </trkpt>
      <trkpt lat="42.87794" lon="0.2046">
        <ele>2284.23</ele>
        <time>2016-07-05T10:38:38Z</time>
      </trkpt>
      <trkpt lat="42.8778" lon="0.20465">
        <ele>2283.75</ele>
        <time>2016-07-05T10:38:52Z</time>
      </trkpt>
      <trkpt lat="42.8777" lon="0.20475">
        <ele>2284.71</ele>
        <time>2016-07-05T10:39:07Z</time>
      </trkpt>
      <trkpt lat="42.87762" lon="0.20484">
        <ele>2286.63</ele>
        <time>2016-07-05T10:39:19Z</time>
      </trkpt>
      <trkpt lat="42.87752" lon="0.20501">
        <ele>2288.56</ele>
        <time>2016-07-05T10:39:34Z</time>
      </trkpt>
      <trkpt lat="42.87743" lon="0.20509">
        <ele>2290.96</ele>
        <time>2016-07-05T10:39:48Z</time>
      </trkpt>
      <trkpt lat="42.87733" lon="0.20512">
        <ele>2293.84</ele>
        <time>2016-07-05T10:40:02Z</time>
      </trkpt>
      <trkpt lat="42.87726" lon="0.20516">
        <ele>2295.28</ele>
        <time>2016-07-05T10:40:15Z</time>
      </trkpt>
      <trkpt lat="42.87719" lon="0.20522">
        <ele>2297.21</ele>
        <time>2016-07-05T10:40:29Z</time>
      </trkpt>
      <trkpt lat="42.8771" lon="0.20531">
        <ele>2299.13</ele>
        <time>2016-07-05T10:40:45Z</time>
      </trkpt>
      <trkpt lat="42.87704" lon="0.20537">
        <ele>2302.01</ele>
        <time>2016-07-05T10:41:00Z</time>
      </trkpt>
      <trkpt lat="42.87697" lon="0.20541">
        <ele>2303.94</ele>
        <time>2016-07-05T10:41:14Z</time>
      </trkpt>
      <trkpt lat="42.87694" lon="0.2055">
        <ele>2306.34</ele>
        <time>2016-07-05T10:41:28Z</time>
      </trkpt>
      <trkpt lat="42.8769" lon="0.20553">
        <ele>2308.26</ele>
        <time>2016-07-05T10:41:41Z</time>
      </trkpt>
      <trkpt lat="42.87687" lon="0.20557">
        <ele>2310.19</ele>
        <time>2016-07-05T10:41:56Z</time>
      </trkpt>
      <trkpt lat="42.8768" lon="0.20564">
        <ele>2312.59</ele>
        <time>2016-07-05T10:42:09Z</time>
      </trkpt>
      <trkpt lat="42.87673" lon="0.2057">
        <ele>2314.03</ele>
        <time>2016-07-05T10:42:24Z</time>
      </trkpt>
      <trkpt lat="42.87665" lon="0.20575">
        <ele>2314.99</ele>
        <time>2016-07-05T10:42:38Z</time>
      </trkpt>
      <trkpt lat="42.87656" lon="0.20577">
        <ele>2314.99</ele>
        <time>2016-07-05T10:42:51Z</time>
      </trkpt>
      <trkpt lat="42.87655" lon="0.20579">
        <ele>2316.43</ele>
        <time>2016-07-05T10:43:06Z</time>
      </trkpt>
      <trkpt lat="42.8765" lon="0.20583">
        <ele>2318.36</ele>
        <time>2016-07-05T10:43:17Z</time>
      </trkpt>
      <trkpt lat="42.87641" lon="0.20589">
        <ele>2319.8</ele>
        <time>2016-07-05T10:43:31Z</time>
      </trkpt>
      <trkpt lat="42.8763" lon="0.20592">
        <ele>2320.76</ele>
        <time>2016-07-05T10:43:49Z</time>
      </trkpt>
      <trkpt lat="42.87621" lon="0.20593">
        <ele>2321.72</ele>
        <time>2016-07-05T10:44:00Z</time>
      </trkpt>
      <trkpt lat="42.8761" lon="0.20593">
        <ele>2323.16</ele>
        <time>2016-07-05T10:44:14Z</time>
      </trkpt>
      <trkpt lat="42.87607" lon="0.20593">
        <ele>2323.64</ele>
        <time>2016-07-05T10:44:17Z</time>
      </trkpt>
      <trkpt lat="42.87598" lon="0.20582">
        <ele>2325.57</ele>
        <time>2016-07-05T10:44:32Z</time>
      </trkpt>
      <trkpt lat="42.876" lon="0.20575">
        <ele>2327.97</ele>
        <time>2016-07-05T10:44:43Z</time>
      </trkpt>
      <trkpt lat="42.87592" lon="0.20568">
        <ele>2329.41</ele>
        <time>2016-07-05T10:44:55Z</time>
      </trkpt>
      <trkpt lat="42.87588" lon="0.20556">
        <ele>2331.33</ele>
        <time>2016-07-05T10:45:09Z</time>
      </trkpt>
      <trkpt lat="42.87581" lon="0.20551">
        <ele>2333.26</ele>
        <time>2016-07-05T10:45:22Z</time>
      </trkpt>
      <trkpt lat="42.87574" lon="0.20544">
        <ele>2333.26</ele>
        <time>2016-07-05T10:45:35Z</time>
      </trkpt>
      <trkpt lat="42.87569" lon="0.20538">
        <ele>2333.26</ele>
        <time>2016-07-05T10:45:42Z</time>
      </trkpt>
      <trkpt lat="42.87564" lon="0.20538">
        <ele>2333.74</ele>
        <time>2016-07-05T10:45:46Z</time>
      </trkpt>
      <trkpt lat="42.87558" lon="0.20536">
        <ele>2333.26</ele>
        <time>2016-07-05T10:45:51Z</time>
      </trkpt>
      <trkpt lat="42.87554" lon="0.20534">
        <ele>2333.26</ele>
        <time>2016-07-05T10:45:56Z</time>
      </trkpt>
      <trkpt lat="42.87535" lon="0.20544">
        <ele>2333.26</ele>
        <time>2016-07-05T10:46:14Z</time>
      </trkpt>
      <trkpt lat="42.87526" lon="0.20555">
        <ele>2333.26</ele>
        <time>2016-07-05T10:46:28Z</time>
      </trkpt>
      <trkpt lat="42.87514" lon="0.20556">
        <ele>2333.74</ele>
        <time>2016-07-05T10:46:43Z</time>
      </trkpt>
      <trkpt lat="42.87513" lon="0.20558">
        <ele>2333.26</ele>
        <time>2016-07-05T10:46:45Z</time>
      </trkpt>
      <trkpt lat="42.87511" lon="0.20561">
        <ele>2333.26</ele>
        <time>2016-07-05T10:46:49Z</time>
      </trkpt>
      <trkpt lat="42.87502" lon="0.20561">
        <ele>2333.26</ele>
        <time>2016-07-05T10:47:02Z</time>
      </trkpt>
      <trkpt lat="42.875" lon="0.20559">
        <ele>2333.74</ele>
        <time>2016-07-05T10:47:07Z</time>
      </trkpt>
      <trkpt lat="42.87498" lon="0.20558">
        <ele>2333.26</ele>
        <time>2016-07-05T10:47:09Z</time>
      </trkpt>
      <trkpt lat="42.87492" lon="0.20555">
        <ele>2333.74</ele>
        <time>2016-07-05T10:47:16Z</time>
      </trkpt>
      <trkpt lat="42.87479" lon="0.20546">
        <ele>2334.7</ele>
        <time>2016-07-05T10:47:32Z</time>
      </trkpt>
      <trkpt lat="42.87475" lon="0.20547">
        <ele>2334.7</ele>
        <time>2016-07-05T10:47:46Z</time>
      </trkpt>
      <trkpt lat="42.87474" lon="0.20547">
        <ele>2334.7</ele>
        <time>2016-07-05T10:47:48Z</time>
      </trkpt>
      <trkpt lat="42.87464" lon="0.20538">
        <ele>2335.18</ele>
        <time>2016-07-05T10:48:01Z</time>
      </trkpt>
      <trkpt lat="42.87454" lon="0.20532">
        <ele>2336.14</ele>
        <time>2016-07-05T10:48:14Z</time>
      </trkpt>
      <trkpt lat="42.8745" lon="0.20531">
        <ele>2336.62</ele>
        <time>2016-07-05T10:48:19Z</time>
      </trkpt>
      <trkpt lat="42.87446" lon="0.20532">
        <ele>2336.62</ele>
        <time>2016-07-05T10:48:25Z</time>
      </trkpt>
      <trkpt lat="42.87446" lon="0.20517">
        <ele>2338.06</ele>
        <time>2016-07-05T10:48:40Z</time>
      </trkpt>
      <trkpt lat="42.87452" lon="0.20509">
        <ele>2340.95</ele>
        <time>2016-07-05T10:48:54Z</time>
      </trkpt>
      <trkpt lat="42.87453" lon="0.20504">
        <ele>2341.43</ele>
        <time>2016-07-05T10:49:10Z</time>
      </trkpt>
      <trkpt lat="42.87446" lon="0.20507">
        <ele>2343.35</ele>
        <time>2016-07-05T10:49:22Z</time>
      </trkpt>
      <trkpt lat="42.87444" lon="0.2051">
        <ele>2343.35</ele>
        <time>2016-07-05T10:49:24Z</time>
      </trkpt>
      <trkpt lat="42.87439" lon="0.2051">
        <ele>2343.83</ele>
        <time>2016-07-05T10:49:29Z</time>
      </trkpt>
      <trkpt lat="42.87428" lon="0.20511">
        <ele>2345.27</ele>
        <time>2016-07-05T10:49:45Z</time>
      </trkpt>
      <trkpt lat="42.87427" lon="0.20515">
        <ele>2345.75</ele>
        <time>2016-07-05T10:49:48Z</time>
      </trkpt>
      <trkpt lat="42.87422" lon="0.20528">
        <ele>2347.2</ele>
        <time>2016-07-05T10:50:01Z</time>
      </trkpt>
      <trkpt lat="42.87418" lon="0.2053">
        <ele>2349.12</ele>
        <time>2016-07-05T10:50:13Z</time>
      </trkpt>
      <trkpt lat="42.87418" lon="0.20539">
        <ele>2351.52</ele>
        <time>2016-07-05T10:50:25Z</time>
      </trkpt>
      <trkpt lat="42.8741" lon="0.20544">
        <ele>2354.41</ele>
        <time>2016-07-05T10:50:41Z</time>
      </trkpt>
      <trkpt lat="42.87409" lon="0.20548">
        <ele>2355.85</ele>
        <time>2016-07-05T10:50:51Z</time>
      </trkpt>
      <trkpt lat="42.87408" lon="0.20552">
        <ele>2358.25</ele>
        <time>2016-07-05T10:51:06Z</time>
      </trkpt>
      <trkpt lat="42.87397" lon="0.20551">
        <ele>2361.14</ele>
        <time>2016-07-05T10:51:22Z</time>
      </trkpt>
      <trkpt lat="42.87394" lon="0.20555">
        <ele>2363.06</ele>
        <time>2016-07-05T10:51:35Z</time>
      </trkpt>
      <trkpt lat="42.87385" lon="0.20558">
        <ele>2364.5</ele>
        <time>2016-07-05T10:51:48Z</time>
      </trkpt>
      <trkpt lat="42.87375" lon="0.20559">
        <ele>2364.5</ele>
        <time>2016-07-05T10:52:01Z</time>
      </trkpt>
      <trkpt lat="42.87363" lon="0.20562">
        <ele>2364.5</ele>
        <time>2016-07-05T10:52:15Z</time>
      </trkpt>
      <trkpt lat="42.8736" lon="0.20551">
        <ele>2365.94</ele>
        <time>2016-07-05T10:52:27Z</time>
      </trkpt>
      <trkpt lat="42.87357" lon="0.20546">
        <ele>2366.9</ele>
        <time>2016-07-05T10:52:34Z</time>
      </trkpt>
      <trkpt lat="42.87353" lon="0.2054">
        <ele>2367.38</ele>
        <time>2016-07-05T10:52:42Z</time>
      </trkpt>
      <trkpt lat="42.8735" lon="0.20539">
        <ele>2367.38</ele>
        <time>2016-07-05T10:52:45Z</time>
      </trkpt>
      <trkpt lat="42.87338" lon="0.20533">
        <ele>2368.35</ele>
        <time>2016-07-05T10:53:00Z</time>
      </trkpt>
      <trkpt lat="42.87332" lon="0.20543">
        <ele>2369.79</ele>
        <time>2016-07-05T10:53:11Z</time>
      </trkpt>
      <trkpt lat="42.87328" lon="0.20547">
        <ele>2370.75</ele>
        <time>2016-07-05T10:53:17Z</time>
      </trkpt>
      <trkpt lat="42.8732" lon="0.20547">
        <ele>2372.67</ele>
        <time>2016-07-05T10:53:32Z</time>
      </trkpt>
      <trkpt lat="42.87317" lon="0.20537">
        <ele>2375.07</ele>
        <time>2016-07-05T10:53:45Z</time>
      </trkpt>
      <trkpt lat="42.87315" lon="0.20528">
        <ele>2377</ele>
        <time>2016-07-05T10:53:59Z</time>
      </trkpt>
      <trkpt lat="42.87314" lon="0.20517">
        <ele>2379.4</ele>
        <time>2016-07-05T10:54:14Z</time>
      </trkpt>
      <trkpt lat="42.87307" lon="0.20511">
        <ele>2380.84</ele>
        <time>2016-07-05T10:54:27Z</time>
      </trkpt>
      <trkpt lat="42.87303" lon="0.205">
        <ele>2382.28</ele>
        <time>2016-07-05T10:54:41Z</time>
      </trkpt>
      <trkpt lat="42.87301" lon="0.20496">
        <ele>2384.21</ele>
        <time>2016-07-05T10:54:55Z</time>
      </trkpt>
      <trkpt lat="42.87296" lon="0.20502">
        <ele>2386.61</ele>
        <time>2016-07-05T10:55:08Z</time>
      </trkpt>
      <trkpt lat="42.87292" lon="0.20505">
        <ele>2388.53</ele>
        <time>2016-07-05T10:55:21Z</time>
      </trkpt>
      <trkpt lat="42.87288" lon="0.20512">
        <ele>2389.49</ele>
        <time>2016-07-05T10:55:31Z</time>
      </trkpt>
      <trkpt lat="42.87286" lon="0.20519">
        <ele>2391.42</ele>
        <time>2016-07-05T10:55:42Z</time>
      </trkpt>
      <trkpt lat="42.87292" lon="0.20526">
        <ele>2392.38</ele>
        <time>2016-07-05T10:55:54Z</time>
      </trkpt>
      <trkpt lat="42.87289" lon="0.20534">
        <ele>2394.78</ele>
        <time>2016-07-05T10:56:08Z</time>
      </trkpt>
      <trkpt lat="42.8728" lon="0.20532">
        <ele>2397.18</ele>
        <time>2016-07-05T10:56:23Z</time>
      </trkpt>
      <trkpt lat="42.87274" lon="0.2054">
        <ele>2399.59</ele>
        <time>2016-07-05T10:56:38Z</time>
      </trkpt>
      <trkpt lat="42.87269" lon="0.20549">
        <ele>2401.51</ele>
        <time>2016-07-05T10:56:51Z</time>
      </trkpt>
      <trkpt lat="42.87266" lon="0.20553">
        <ele>2401.51</ele>
        <time>2016-07-05T10:57:03Z</time>
      </trkpt>
      <trkpt lat="42.87258" lon="0.20545">
        <ele>2400.07</ele>
        <time>2016-07-05T10:57:14Z</time>
      </trkpt>
      <trkpt lat="42.87256" lon="0.2054">
        <ele>2400.55</ele>
        <time>2016-07-05T10:57:20Z</time>
      </trkpt>
      <trkpt lat="42.87253" lon="0.20538">
        <ele>2400.55</ele>
        <time>2016-07-05T10:57:24Z</time>
      </trkpt>
      <trkpt lat="42.87251" lon="0.20537">
        <ele>2400.55</ele>
        <time>2016-07-05T10:57:26Z</time>
      </trkpt>
      <trkpt lat="42.87243" lon="0.20536">
        <ele>2401.03</ele>
        <time>2016-07-05T10:57:41Z</time>
      </trkpt>
      <trkpt lat="42.87234" lon="0.20531">
        <ele>2401.51</ele>
        <time>2016-07-05T10:57:51Z</time>
      </trkpt>
      <trkpt lat="42.87225" lon="0.20523">
        <ele>2401.99</ele>
        <time>2016-07-05T10:58:03Z</time>
      </trkpt>
      <trkpt lat="42.87222" lon="0.2052">
        <ele>2401.51</ele>
        <time>2016-07-05T10:58:06Z</time>
      </trkpt>
      <trkpt lat="42.87218" lon="0.20521">
        <ele>2401.99</ele>
        <time>2016-07-05T10:58:10Z</time>
      </trkpt>
      <trkpt lat="42.87202" lon="0.20526">
        <ele>2401.99</ele>
        <time>2016-07-05T10:58:27Z</time>
      </trkpt>
      <trkpt lat="42.8719" lon="0.20537">
        <ele>2401.99</ele>
        <time>2016-07-05T10:58:40Z</time>
      </trkpt>
      <trkpt lat="42.87181" lon="0.20541">
        <ele>2402.47</ele>
        <time>2016-07-05T10:58:49Z</time>
      </trkpt>
      <trkpt lat="42.87171" lon="0.20541">
        <ele>2403.91</ele>
        <time>2016-07-05T10:59:00Z</time>
      </trkpt>
      <trkpt lat="42.87167" lon="0.20538">
        <ele>2404.39</ele>
        <time>2016-07-05T10:59:04Z</time>
      </trkpt>
      <trkpt lat="42.87155" lon="0.20525">
        <ele>2405.84</ele>
        <time>2016-07-05T10:59:19Z</time>
      </trkpt>
      <trkpt lat="42.87141" lon="0.20515">
        <ele>2405.84</ele>
        <time>2016-07-05T10:59:34Z</time>
      </trkpt>
      <trkpt lat="42.87126" lon="0.2051">
        <ele>2406.8</ele>
        <time>2016-07-05T10:59:49Z</time>
      </trkpt>
      <trkpt lat="42.87122" lon="0.20509">
        <ele>2407.28</ele>
        <time>2016-07-05T10:59:53Z</time>
      </trkpt>
      <trkpt lat="42.8711" lon="0.20491">
        <ele>2407.28</ele>
        <time>2016-07-05T11:00:10Z</time>
      </trkpt>
      <trkpt lat="42.87108" lon="0.20486">
        <ele>2407.28</ele>
        <time>2016-07-05T11:00:14Z</time>
      </trkpt>
      <trkpt lat="42.87106" lon="0.20483">
        <ele>2407.76</ele>
        <time>2016-07-05T11:00:31Z</time>
      </trkpt>
      <trkpt lat="42.87105" lon="0.20481">
        <ele>2407.76</ele>
        <time>2016-07-05T11:00:47Z</time>
      </trkpt>
      <trkpt lat="42.87106" lon="0.20481">
        <ele>2408.24</ele>
        <time>2016-07-05T11:01:02Z</time>
      </trkpt>
      <trkpt lat="42.87106" lon="0.2048">
        <ele>2408.24</ele>
        <time>2016-07-05T11:01:17Z</time>
      </trkpt>
      <trkpt lat="42.87105" lon="0.20477">
        <ele>2408.24</ele>
        <time>2016-07-05T11:01:33Z</time>
      </trkpt>
      <trkpt lat="42.87105" lon="0.20475">
        <ele>2408.24</ele>
        <time>2016-07-05T11:01:50Z</time>
      </trkpt>
      <trkpt lat="42.87106" lon="0.20472">
        <ele>2408.24</ele>
        <time>2016-07-05T11:02:03Z</time>
      </trkpt>
      <trkpt lat="42.87105" lon="0.20471">
        <ele>2411.6</ele>
        <time>2016-07-05T11:23:25Z</time>
      </trkpt>
      <trkpt lat="42.87104" lon="0.20469">
        <ele>2411.6</ele>
        <time>2016-07-05T11:24:08Z</time>
      </trkpt>
      <trkpt lat="42.87104" lon="0.2047">
        <ele>2411.6</ele>
        <time>2016-07-05T11:24:47Z</time>
      </trkpt>
      <trkpt lat="42.87105" lon="0.2047">
        <ele>2412.09</ele>
        <time>2016-07-05T11:25:24Z</time>
      </trkpt>
      <trkpt lat="42.87104" lon="0.20469">
        <ele>2412.09</ele>
        <time>2016-07-05T11:26:02Z</time>
      </trkpt>
      <trkpt lat="42.87104" lon="0.20469">
        <ele>2412.09</ele>
        <time>2016-07-05T11:27:13Z</time>
      </trkpt>
      <trkpt lat="42.87105" lon="0.2047">
        <ele>2412.57</ele>
        <time>2016-07-05T11:30:01Z</time>
      </trkpt>
      <trkpt lat="42.87105" lon="0.20473">
        <ele>2413.53</ele>
        <time>2016-07-05T11:30:52Z</time>
      </trkpt>
      <trkpt lat="42.87104" lon="0.20476">
        <ele>2413.05</ele>
        <time>2016-07-05T11:31:16Z</time>
      </trkpt>
      <trkpt lat="42.87105" lon="0.2048">
        <ele>2413.05</ele>
        <time>2016-07-05T11:31:33Z</time>
      </trkpt>
      <trkpt lat="42.87105" lon="0.20482">
        <ele>2413.05</ele>
        <time>2016-07-05T11:31:52Z</time>
      </trkpt>
      <trkpt lat="42.87106" lon="0.20482">
        <ele>2406.8</ele>
        <time>2016-07-05T11:32:05Z</time>
      </trkpt>
      <trkpt lat="42.87106" lon="0.20482">
        <ele>2419.78</ele>
        <time>2016-07-05T11:32:06Z</time>
      </trkpt>
      <trkpt lat="42.87106" lon="0.20482">
        <ele>2411.6</ele>
        <time>2016-07-05T11:32:07Z</time>
      </trkpt>
      <trkpt lat="42.87106" lon="0.20483">
        <ele>2412.09</ele>
        <time>2016-07-05T11:32:30Z</time>
      </trkpt>
      <trkpt lat="42.87105" lon="0.20487">
        <ele>2412.57</ele>
        <time>2016-07-05T11:32:48Z</time>
      </trkpt>
      <trkpt lat="42.87114" lon="0.205">
        <ele>2412.57</ele>
        <time>2016-07-05T11:33:04Z</time>
      </trkpt>
      <trkpt lat="42.8713" lon="0.20513">
        <ele>2412.09</ele>
        <time>2016-07-05T11:33:21Z</time>
      </trkpt>
      <trkpt lat="42.87148" lon="0.2052">
        <ele>2411.12</ele>
        <time>2016-07-05T11:33:37Z</time>
      </trkpt>
      <trkpt lat="42.87154" lon="0.20523">
        <ele>2411.12</ele>
        <time>2016-07-05T11:33:43Z</time>
      </trkpt>
      <trkpt lat="42.87168" lon="0.20536">
        <ele>2410.64</ele>
        <time>2016-07-05T11:33:59Z</time>
      </trkpt>
      <trkpt lat="42.8717" lon="0.20537">
        <ele>2410.64</ele>
        <time>2016-07-05T11:34:01Z</time>
      </trkpt>
      <trkpt lat="42.87178" lon="0.20543">
        <ele>2409.68</ele>
        <time>2016-07-05T11:34:10Z</time>
      </trkpt>
      <trkpt lat="42.87197" lon="0.20531">
        <ele>2407.76</ele>
        <time>2016-07-05T11:34:27Z</time>
      </trkpt>
      <trkpt lat="42.87217" lon="0.20522">
        <ele>2407.76</ele>
        <time>2016-07-05T11:34:45Z</time>
      </trkpt>
      <trkpt lat="42.87219" lon="0.20522">
        <ele>2407.76</ele>
        <time>2016-07-05T11:34:47Z</time>
      </trkpt>
      <trkpt lat="42.87224" lon="0.20522">
        <ele>2407.76</ele>
        <time>2016-07-05T11:34:51Z</time>
      </trkpt>
      <trkpt lat="42.87233" lon="0.20529">
        <ele>2407.76</ele>
        <time>2016-07-05T11:35:00Z</time>
      </trkpt>
      <trkpt lat="42.87245" lon="0.20535">
        <ele>2407.28</ele>
        <time>2016-07-05T11:35:12Z</time>
      </trkpt>
      <trkpt lat="42.87247" lon="0.20534">
        <ele>2407.28</ele>
        <time>2016-07-05T11:35:14Z</time>
      </trkpt>
      <trkpt lat="42.87261" lon="0.20544">
        <ele>2406.8</ele>
        <time>2016-07-05T11:35:28Z</time>
      </trkpt>
      <trkpt lat="42.87269" lon="0.20549">
        <ele>2407.28</ele>
        <time>2016-07-05T11:35:41Z</time>
      </trkpt>
      <trkpt lat="42.87278" lon="0.20537">
        <ele>2405.84</ele>
        <time>2016-07-05T11:35:57Z</time>
      </trkpt>
      <trkpt lat="42.87284" lon="0.2053">
        <ele>2402.95</ele>
        <time>2016-07-05T11:36:11Z</time>
      </trkpt>
      <trkpt lat="42.87292" lon="0.20537">
        <ele>2400.55</ele>
        <time>2016-07-05T11:36:24Z</time>
      </trkpt>
      <trkpt lat="42.87293" lon="0.20532">
        <ele>2400.07</ele>
        <time>2016-07-05T11:36:28Z</time>
      </trkpt>
      <trkpt lat="42.87292" lon="0.20525">
        <ele>2399.11</ele>
        <time>2016-07-05T11:36:33Z</time>
      </trkpt>
      <trkpt lat="42.87286" lon="0.20509">
        <ele>2396.7</ele>
        <time>2016-07-05T11:36:47Z</time>
      </trkpt>
      <trkpt lat="42.87292" lon="0.20501">
        <ele>2394.78</ele>
        <time>2016-07-05T11:36:59Z</time>
      </trkpt>
      <trkpt lat="42.87297" lon="0.20499">
        <ele>2392.38</ele>
        <time>2016-07-05T11:37:11Z</time>
      </trkpt>
      <trkpt lat="42.87304" lon="0.20498">
        <ele>2390.46</ele>
        <time>2016-07-05T11:37:23Z</time>
      </trkpt>
      <trkpt lat="42.87306" lon="0.20509">
        <ele>2388.05</ele>
        <time>2016-07-05T11:37:31Z</time>
      </trkpt>
      <trkpt lat="42.87313" lon="0.20521">
        <ele>2386.61</ele>
        <time>2016-07-05T11:37:46Z</time>
      </trkpt>
      <trkpt lat="42.87315" lon="0.20533">
        <ele>2383.73</ele>
        <time>2016-07-05T11:38:01Z</time>
      </trkpt>
      <trkpt lat="42.87317" lon="0.20538">
        <ele>2382.76</ele>
        <time>2016-07-05T11:38:07Z</time>
      </trkpt>
      <trkpt lat="42.87318" lon="0.2054">
        <ele>2381.8</ele>
        <time>2016-07-05T11:38:09Z</time>
      </trkpt>
      <trkpt lat="42.87325" lon="0.20549">
        <ele>2378.92</ele>
        <time>2016-07-05T11:38:22Z</time>
      </trkpt>
      <trkpt lat="42.87326" lon="0.2055">
        <ele>2378.44</ele>
        <time>2016-07-05T11:38:23Z</time>
      </trkpt>
      <trkpt lat="42.87333" lon="0.20546">
        <ele>2377.48</ele>
        <time>2016-07-05T11:38:30Z</time>
      </trkpt>
      <trkpt lat="42.87346" lon="0.2054">
        <ele>2375.55</ele>
        <time>2016-07-05T11:38:44Z</time>
      </trkpt>
      <trkpt lat="42.87349" lon="0.20536">
        <ele>2375.07</ele>
        <time>2016-07-05T11:38:48Z</time>
      </trkpt>
      <trkpt lat="42.87351" lon="0.20536">
        <ele>2374.59</ele>
        <time>2016-07-05T11:38:50Z</time>
      </trkpt>
      <trkpt lat="42.87358" lon="0.20548">
        <ele>2374.59</ele>
        <time>2016-07-05T11:39:02Z</time>
      </trkpt>
      <trkpt lat="42.87361" lon="0.2055">
        <ele>2374.11</ele>
        <time>2016-07-05T11:39:06Z</time>
      </trkpt>
      <trkpt lat="42.87365" lon="0.20556">
        <ele>2373.15</ele>
        <time>2016-07-05T11:39:12Z</time>
      </trkpt>
      <trkpt lat="42.8737" lon="0.20562">
        <ele>2371.71</ele>
        <time>2016-07-05T11:39:21Z</time>
      </trkpt>
      <trkpt lat="42.87385" lon="0.20559">
        <ele>2371.71</ele>
        <time>2016-07-05T11:39:35Z</time>
      </trkpt>
      <trkpt lat="42.8739" lon="0.20556">
        <ele>2371.71</ele>
        <time>2016-07-05T11:39:40Z</time>
      </trkpt>
      <trkpt lat="42.87395" lon="0.20553">
        <ele>2371.23</ele>
        <time>2016-07-05T11:39:54Z</time>
      </trkpt>
      <trkpt lat="42.87398" lon="0.20551">
        <ele>2368.35</ele>
        <time>2016-07-05T11:40:01Z</time>
      </trkpt>
      <trkpt lat="42.87399" lon="0.20551">
        <ele>2373.63</ele>
        <time>2016-07-05T11:40:02Z</time>
      </trkpt>
      <trkpt lat="42.87399" lon="0.20552">
        <ele>2368.83</ele>
        <time>2016-07-05T11:40:03Z</time>
      </trkpt>
      <trkpt lat="42.87401" lon="0.20552">
        <ele>2373.15</ele>
        <time>2016-07-05T11:40:05Z</time>
      </trkpt>
      <trkpt lat="42.87402" lon="0.20552">
        <ele>2372.67</ele>
        <time>2016-07-05T11:40:06Z</time>
      </trkpt>
      <trkpt lat="42.87404" lon="0.20551">
        <ele>2370.75</ele>
        <time>2016-07-05T11:40:08Z</time>
      </trkpt>
      <trkpt lat="42.87408" lon="0.20547">
        <ele>2367.38</ele>
        <time>2016-07-05T11:40:15Z</time>
      </trkpt>
      <trkpt lat="42.87408" lon="0.20548">
        <ele>2366.9</ele>
        <time>2016-07-05T11:40:16Z</time>
      </trkpt>
      <trkpt lat="42.87412" lon="0.20541">
        <ele>2364.5</ele>
        <time>2016-07-05T11:40:29Z</time>
      </trkpt>
      <trkpt lat="42.87417" lon="0.20539">
        <ele>2361.62</ele>
        <time>2016-07-05T11:40:40Z</time>
      </trkpt>
      <trkpt lat="42.87419" lon="0.2054">
        <ele>2360.65</ele>
        <time>2016-07-05T11:40:47Z</time>
      </trkpt>
      <trkpt lat="42.87422" lon="0.20536">
        <ele>2359.69</ele>
        <time>2016-07-05T11:40:51Z</time>
      </trkpt>
      <trkpt lat="42.87421" lon="0.20532">
        <ele>2356.81</ele>
        <time>2016-07-05T11:41:07Z</time>
      </trkpt>
      <trkpt lat="42.87424" lon="0.20529">
        <ele>2355.85</ele>
        <time>2016-07-05T11:41:11Z</time>
      </trkpt>
      <trkpt lat="42.87433" lon="0.2051">
        <ele>2352.96</ele>
        <time>2016-07-05T11:41:30Z</time>
      </trkpt>
      <trkpt lat="42.87438" lon="0.20511">
        <ele>2352</ele>
        <time>2016-07-05T11:41:38Z</time>
      </trkpt>
      <trkpt lat="42.87451" lon="0.20511">
        <ele>2350.08</ele>
        <time>2016-07-05T11:41:52Z</time>
      </trkpt>
      <trkpt lat="42.87452" lon="0.20515">
        <ele>2348.64</ele>
        <time>2016-07-05T11:42:03Z</time>
      </trkpt>
      <trkpt lat="42.87447" lon="0.20521">
        <ele>2346.72</ele>
        <time>2016-07-05T11:42:14Z</time>
      </trkpt>
      <trkpt lat="42.87447" lon="0.20533">
        <ele>2344.79</ele>
        <time>2016-07-05T11:42:25Z</time>
      </trkpt>
      <trkpt lat="42.87452" lon="0.20533">
        <ele>2344.31</ele>
        <time>2016-07-05T11:42:30Z</time>
      </trkpt>
      <trkpt lat="42.87467" lon="0.20537">
        <ele>2343.35</ele>
        <time>2016-07-05T11:42:43Z</time>
      </trkpt>
      <trkpt lat="42.87475" lon="0.20548">
        <ele>2342.39</ele>
        <time>2016-07-05T11:42:53Z</time>
      </trkpt>
      <trkpt lat="42.87489" lon="0.20555">
        <ele>2342.39</ele>
        <time>2016-07-05T11:43:06Z</time>
      </trkpt>
      <trkpt lat="42.87501" lon="0.20559">
        <ele>2341.43</ele>
        <time>2016-07-05T11:43:20Z</time>
      </trkpt>
      <trkpt lat="42.87505" lon="0.20559">
        <ele>2341.43</ele>
        <time>2016-07-05T11:43:25Z</time>
      </trkpt>
      <trkpt lat="42.87509" lon="0.2056">
        <ele>2341.43</ele>
        <time>2016-07-05T11:43:31Z</time>
      </trkpt>
      <trkpt lat="42.87513" lon="0.2056">
        <ele>2341.43</ele>
        <time>2016-07-05T11:43:36Z</time>
      </trkpt>
      <trkpt lat="42.87522" lon="0.20553">
        <ele>2341.43</ele>
        <time>2016-07-05T11:43:50Z</time>
      </trkpt>
      <trkpt lat="42.87529" lon="0.20549">
        <ele>2340.95</ele>
        <time>2016-07-05T11:44:00Z</time>
      </trkpt>
      <trkpt lat="42.87538" lon="0.20545">
        <ele>2341.91</ele>
        <time>2016-07-05T11:44:14Z</time>
      </trkpt>
      <trkpt lat="42.87538" lon="0.20542">
        <ele>2341.43</ele>
        <time>2016-07-05T11:44:18Z</time>
      </trkpt>
      <trkpt lat="42.87539" lon="0.20539">
        <ele>2341.43</ele>
        <time>2016-07-05T11:44:20Z</time>
      </trkpt>
      <trkpt lat="42.87556" lon="0.20536">
        <ele>2340.95</ele>
        <time>2016-07-05T11:44:34Z</time>
      </trkpt>
      <trkpt lat="42.87561" lon="0.20536">
        <ele>2341.43</ele>
        <time>2016-07-05T11:44:39Z</time>
      </trkpt>
      <trkpt lat="42.87562" lon="0.20539">
        <ele>2340.95</ele>
        <time>2016-07-05T11:44:41Z</time>
      </trkpt>
      <trkpt lat="42.87564" lon="0.2054">
        <ele>2340.95</ele>
        <time>2016-07-05T11:44:43Z</time>
      </trkpt>
      <trkpt lat="42.8757" lon="0.20545">
        <ele>2340.95</ele>
        <time>2016-07-05T11:44:50Z</time>
      </trkpt>
      <trkpt lat="42.87573" lon="0.20549">
        <ele>2341.43</ele>
        <time>2016-07-05T11:44:54Z</time>
      </trkpt>
      <trkpt lat="42.87586" lon="0.20556">
        <ele>2340.95</ele>
        <time>2016-07-05T11:45:09Z</time>
      </trkpt>
      <trkpt lat="42.87591" lon="0.20566">
        <ele>2339.02</ele>
        <time>2016-07-05T11:45:21Z</time>
      </trkpt>
      <trkpt lat="42.87592" lon="0.20567">
        <ele>2339.02</ele>
        <time>2016-07-05T11:45:22Z</time>
      </trkpt>
      <trkpt lat="42.87599" lon="0.2058">
        <ele>2336.62</ele>
        <time>2016-07-05T11:45:38Z</time>
      </trkpt>
      <trkpt lat="42.87604" lon="0.20592">
        <ele>2333.74</ele>
        <time>2016-07-05T11:45:52Z</time>
      </trkpt>
      <trkpt lat="42.87608" lon="0.20596">
        <ele>2332.3</ele>
        <time>2016-07-05T11:46:00Z</time>
      </trkpt>
      <trkpt lat="42.87619" lon="0.20594">
        <ele>2330.85</ele>
        <time>2016-07-05T11:46:17Z</time>
      </trkpt>
      <trkpt lat="42.87629" lon="0.20592">
        <ele>2329.41</ele>
        <time>2016-07-05T11:46:30Z</time>
      </trkpt>
      <trkpt lat="42.87638" lon="0.20587">
        <ele>2328.45</ele>
        <time>2016-07-05T11:46:42Z</time>
      </trkpt>
      <trkpt lat="42.87649" lon="0.20581">
        <ele>2327.49</ele>
        <time>2016-07-05T11:46:57Z</time>
      </trkpt>
      <trkpt lat="42.87651" lon="0.2058">
        <ele>2327.01</ele>
        <time>2016-07-05T11:47:00Z</time>
      </trkpt>
      <trkpt lat="42.87657" lon="0.20573">
        <ele>2323.64</ele>
        <time>2016-07-05T11:47:14Z</time>
      </trkpt>
      <trkpt lat="42.87668" lon="0.20568">
        <ele>2323.64</ele>
        <time>2016-07-05T11:47:31Z</time>
      </trkpt>
      <trkpt lat="42.87679" lon="0.20563">
        <ele>2322.68</ele>
        <time>2016-07-05T11:47:45Z</time>
      </trkpt>
      <trkpt lat="42.87684" lon="0.20556">
        <ele>2320.76</ele>
        <time>2016-07-05T11:47:57Z</time>
      </trkpt>
      <trkpt lat="42.87688" lon="0.20553">
        <ele>2318.36</ele>
        <time>2016-07-05T11:48:10Z</time>
      </trkpt>
      <trkpt lat="42.87693" lon="0.20546">
        <ele>2315.47</ele>
        <time>2016-07-05T11:48:23Z</time>
      </trkpt>
      <trkpt lat="42.87696" lon="0.20535">
        <ele>2312.59</ele>
        <time>2016-07-05T11:48:38Z</time>
      </trkpt>
      <trkpt lat="42.87708" lon="0.20533">
        <ele>2310.19</ele>
        <time>2016-07-05T11:48:52Z</time>
      </trkpt>
      <trkpt lat="42.87712" lon="0.2052">
        <ele>2307.3</ele>
        <time>2016-07-05T11:49:07Z</time>
      </trkpt>
      <trkpt lat="42.87722" lon="0.20513">
        <ele>2305.86</ele>
        <time>2016-07-05T11:49:21Z</time>
      </trkpt>
      <trkpt lat="42.87728" lon="0.20506">
        <ele>2303.94</ele>
        <time>2016-07-05T11:49:34Z</time>
      </trkpt>
      <trkpt lat="42.87744" lon="0.20505">
        <ele>2301.53</ele>
        <time>2016-07-05T11:49:48Z</time>
      </trkpt>
      <trkpt lat="42.87754" lon="0.20495">
        <ele>2298.17</ele>
        <time>2016-07-05T11:50:02Z</time>
      </trkpt>
      <trkpt lat="42.87757" lon="0.20492">
        <ele>2297.69</ele>
        <time>2016-07-05T11:50:05Z</time>
      </trkpt>
      <trkpt lat="42.87759" lon="0.20485">
        <ele>2296.73</ele>
        <time>2016-07-05T11:50:10Z</time>
      </trkpt>
      <trkpt lat="42.87768" lon="0.20474">
        <ele>2294.8</ele>
        <time>2016-07-05T11:50:27Z</time>
      </trkpt>
      <trkpt lat="42.87775" lon="0.20463">
        <ele>2293.36</ele>
        <time>2016-07-05T11:50:36Z</time>
      </trkpt>
      <trkpt lat="42.87783" lon="0.20458">
        <ele>2292.88</ele>
        <time>2016-07-05T11:50:43Z</time>
      </trkpt>
      <trkpt lat="42.87787" lon="0.20456">
        <ele>2292.88</ele>
        <time>2016-07-05T11:50:46Z</time>
      </trkpt>
      <trkpt lat="42.87804" lon="0.20458">
        <ele>2293.84</ele>
        <time>2016-07-05T11:51:00Z</time>
      </trkpt>
      <trkpt lat="42.87812" lon="0.20453">
        <ele>2291.44</ele>
        <time>2016-07-05T11:51:14Z</time>
      </trkpt>
      <trkpt lat="42.87815" lon="0.20446">
        <ele>2288.08</ele>
        <time>2016-07-05T11:51:26Z</time>
      </trkpt>
      <trkpt lat="42.87815" lon="0.20445">
        <ele>2288.08</ele>
        <time>2016-07-05T11:51:27Z</time>
      </trkpt>
      <trkpt lat="42.8782" lon="0.2044">
        <ele>2285.19</ele>
        <time>2016-07-05T11:51:39Z</time>
      </trkpt>
      <trkpt lat="42.87822" lon="0.20441">
        <ele>2284.23</ele>
        <time>2016-07-05T11:51:45Z</time>
      </trkpt>
      <trkpt lat="42.8783" lon="0.20447">
        <ele>2281.35</ele>
        <time>2016-07-05T11:51:59Z</time>
      </trkpt>
      <trkpt lat="42.87839" lon="0.20436">
        <ele>2279.42</ele>
        <time>2016-07-05T11:52:09Z</time>
      </trkpt>
      <trkpt lat="42.87846" lon="0.2043">
        <ele>2278.46</ele>
        <time>2016-07-05T11:52:16Z</time>
      </trkpt>
      <trkpt lat="42.87849" lon="0.20422">
        <ele>2277.5</ele>
        <time>2016-07-05T11:52:22Z</time>
      </trkpt>
      <trkpt lat="42.8786" lon="0.20409">
        <ele>2276.54</ele>
        <time>2016-07-05T11:52:35Z</time>
      </trkpt>
      <trkpt lat="42.87877" lon="0.20402">
        <ele>2275.58</ele>
        <time>2016-07-05T11:52:50Z</time>
      </trkpt>
      <trkpt lat="42.87891" lon="0.20398">
        <ele>2275.58</ele>
        <time>2016-07-05T11:53:03Z</time>
      </trkpt>
      <trkpt lat="42.87899" lon="0.20407">
        <ele>2274.62</ele>
        <time>2016-07-05T11:53:15Z</time>
      </trkpt>
      <trkpt lat="42.87903" lon="0.20414">
        <ele>2272.21</ele>
        <time>2016-07-05T11:53:26Z</time>
      </trkpt>
      <trkpt lat="42.8791" lon="0.20421">
        <ele>2269.81</ele>
        <time>2016-07-05T11:53:39Z</time>
      </trkpt>
      <trkpt lat="42.87916" lon="0.20424">
        <ele>2266.45</ele>
        <time>2016-07-05T11:53:52Z</time>
      </trkpt>
      <trkpt lat="42.87922" lon="0.20425">
        <ele>2264.52</ele>
        <time>2016-07-05T11:54:06Z</time>
      </trkpt>
      <trkpt lat="42.87928" lon="0.20429">
        <ele>2261.64</ele>
        <time>2016-07-05T11:54:20Z</time>
      </trkpt>
      <trkpt lat="42.87932" lon="0.2043">
        <ele>2260.2</ele>
        <time>2016-07-05T11:54:27Z</time>
      </trkpt>
      <trkpt lat="42.87937" lon="0.2045">
        <ele>2258.75</ele>
        <time>2016-07-05T11:54:42Z</time>
      </trkpt>
      <trkpt lat="42.87937" lon="0.20455">
        <ele>2257.31</ele>
        <time>2016-07-05T11:54:51Z</time>
      </trkpt>
      <trkpt lat="42.87938" lon="0.20463">
        <ele>2256.83</ele>
        <time>2016-07-05T11:54:59Z</time>
      </trkpt>
      <trkpt lat="42.87943" lon="0.20478">
        <ele>2253.95</ele>
        <time>2016-07-05T11:55:13Z</time>
      </trkpt>
      <trkpt lat="42.87942" lon="0.20484">
        <ele>2252.51</ele>
        <time>2016-07-05T11:55:20Z</time>
      </trkpt>
      <trkpt lat="42.87949" lon="0.20489">
        <ele>2249.14</ele>
        <time>2016-07-05T11:55:34Z</time>
      </trkpt>
      <trkpt lat="42.87948" lon="0.20495">
        <ele>2248.66</ele>
        <time>2016-07-05T11:55:40Z</time>
      </trkpt>
      <trkpt lat="42.8795" lon="0.20498">
        <ele>2248.18</ele>
        <time>2016-07-05T11:55:43Z</time>
      </trkpt>
      <trkpt lat="42.87958" lon="0.20502">
        <ele>2250.1</ele>
        <time>2016-07-05T11:55:57Z</time>
      </trkpt>
      <trkpt lat="42.87957" lon="0.20507">
        <ele>2248.66</ele>
        <time>2016-07-05T11:56:12Z</time>
      </trkpt>
      <trkpt lat="42.87958" lon="0.20516">
        <ele>2247.7</ele>
        <time>2016-07-05T11:56:23Z</time>
      </trkpt>
      <trkpt lat="42.87958" lon="0.20518">
        <ele>2247.22</ele>
        <time>2016-07-05T11:56:27Z</time>
      </trkpt>
      <trkpt lat="42.87964" lon="0.20528">
        <ele>2245.3</ele>
        <time>2016-07-05T11:56:39Z</time>
      </trkpt>
      <trkpt lat="42.87966" lon="0.20533">
        <ele>2244.82</ele>
        <time>2016-07-05T11:56:45Z</time>
      </trkpt>
      <trkpt lat="42.87971" lon="0.20542">
        <ele>2244.33</ele>
        <time>2016-07-05T11:56:56Z</time>
      </trkpt>
      <trkpt lat="42.87975" lon="0.20558">
        <ele>2244.82</ele>
        <time>2016-07-05T11:57:10Z</time>
      </trkpt>
      <trkpt lat="42.87977" lon="0.20562">
        <ele>2245.3</ele>
        <time>2016-07-05T11:57:14Z</time>
      </trkpt>
      <trkpt lat="42.87983" lon="0.20566">
        <ele>2244.82</ele>
        <time>2016-07-05T11:57:24Z</time>
      </trkpt>
      <trkpt lat="42.87995" lon="0.20566">
        <ele>2245.3</ele>
        <time>2016-07-05T11:57:39Z</time>
      </trkpt>
      <trkpt lat="42.88002" lon="0.20562">
        <ele>2243.37</ele>
        <time>2016-07-05T11:57:52Z</time>
      </trkpt>
      <trkpt lat="42.88004" lon="0.20563">
        <ele>2243.37</ele>
        <time>2016-07-05T11:57:54Z</time>
      </trkpt>
      <trkpt lat="42.88012" lon="0.20569">
        <ele>2242.41</ele>
        <time>2016-07-05T11:58:06Z</time>
      </trkpt>
      <trkpt lat="42.88015" lon="0.20571">
        <ele>2241.45</ele>
        <time>2016-07-05T11:58:11Z</time>
      </trkpt>
      <trkpt lat="42.8802" lon="0.20576">
        <ele>2240.49</ele>
        <time>2016-07-05T11:58:24Z</time>
      </trkpt>
      <trkpt lat="42.88025" lon="0.20571">
        <ele>2240.49</ele>
        <time>2016-07-05T11:58:29Z</time>
      </trkpt>
      <trkpt lat="42.88033" lon="0.20567">
        <ele>2241.45</ele>
        <time>2016-07-05T11:58:39Z</time>
      </trkpt>
      <trkpt lat="42.88036" lon="0.20564">
        <ele>2240.97</ele>
        <time>2016-07-05T11:58:43Z</time>
      </trkpt>
      <trkpt lat="42.8805" lon="0.20566">
        <ele>2240.49</ele>
        <time>2016-07-05T11:58:58Z</time>
      </trkpt>
      <trkpt lat="42.88051" lon="0.20564">
        <ele>2240.01</ele>
        <time>2016-07-05T11:58:59Z</time>
      </trkpt>
      <trkpt lat="42.88056" lon="0.20564">
        <ele>2239.53</ele>
        <time>2016-07-05T11:59:05Z</time>
      </trkpt>
      <trkpt lat="42.88068" lon="0.20568">
        <ele>2239.53</ele>
        <time>2016-07-05T11:59:19Z</time>
      </trkpt>
      <trkpt lat="42.88074" lon="0.2057">
        <ele>2239.53</ele>
        <time>2016-07-05T11:59:26Z</time>
      </trkpt>
      <trkpt lat="42.88082" lon="0.20575">
        <ele>2238.09</ele>
        <time>2016-07-05T11:59:40Z</time>
      </trkpt>
      <trkpt lat="42.88092" lon="0.20573">
        <ele>2235.68</ele>
        <time>2016-07-05T11:59:55Z</time>
      </trkpt>
      <trkpt lat="42.88098" lon="0.20566">
        <ele>2233.28</ele>
        <time>2016-07-05T12:00:05Z</time>
      </trkpt>
      <trkpt lat="42.88106" lon="0.20559">
        <ele>2231.84</ele>
        <time>2016-07-05T12:00:17Z</time>
      </trkpt>
      <trkpt lat="42.88114" lon="0.20549">
        <ele>2230.88</ele>
        <time>2016-07-05T12:00:30Z</time>
      </trkpt>
      <trkpt lat="42.88115" lon="0.20547">
        <ele>2230.88</ele>
        <time>2016-07-05T12:00:32Z</time>
      </trkpt>
      <trkpt lat="42.88116" lon="0.20544">
        <ele>2230.88</ele>
        <time>2016-07-05T12:00:34Z</time>
      </trkpt>
      <trkpt lat="42.88128" lon="0.20544">
        <ele>2229.43</ele>
        <time>2016-07-05T12:00:49Z</time>
      </trkpt>
      <trkpt lat="42.88136" lon="0.20545">
        <ele>2230.88</ele>
        <time>2016-07-05T12:01:01Z</time>
      </trkpt>
      <trkpt lat="42.88139" lon="0.20549">
        <ele>2231.36</ele>
        <time>2016-07-05T12:01:07Z</time>
      </trkpt>
      <trkpt lat="42.88141" lon="0.20554">
        <ele>2231.36</ele>
        <time>2016-07-05T12:01:11Z</time>
      </trkpt>
      <trkpt lat="42.88148" lon="0.20558">
        <ele>2230.88</ele>
        <time>2016-07-05T12:01:24Z</time>
      </trkpt>
      <trkpt lat="42.88151" lon="0.20565">
        <ele>2229.92</ele>
        <time>2016-07-05T12:01:34Z</time>
      </trkpt>
      <trkpt lat="42.88154" lon="0.20569">
        <ele>2229.43</ele>
        <time>2016-07-05T12:01:40Z</time>
      </trkpt>
      <trkpt lat="42.88163" lon="0.20575">
        <ele>2228.47</ele>
        <time>2016-07-05T12:01:54Z</time>
      </trkpt>
      <trkpt lat="42.88172" lon="0.20577">
        <ele>2226.07</ele>
        <time>2016-07-05T12:02:09Z</time>
      </trkpt>
      <trkpt lat="42.88179" lon="0.20574">
        <ele>2225.59</ele>
        <time>2016-07-05T12:02:22Z</time>
      </trkpt>
      <trkpt lat="42.88181" lon="0.20572">
        <ele>2226.07</ele>
        <time>2016-07-05T12:02:26Z</time>
      </trkpt>
      <trkpt lat="42.88192" lon="0.20562">
        <ele>2226.07</ele>
        <time>2016-07-05T12:02:41Z</time>
      </trkpt>
      <trkpt lat="42.88199" lon="0.20556">
        <ele>2224.63</ele>
        <time>2016-07-05T12:02:51Z</time>
      </trkpt>
      <trkpt lat="42.88209" lon="0.20545">
        <ele>2224.15</ele>
        <time>2016-07-05T12:03:05Z</time>
      </trkpt>
      <trkpt lat="42.8821" lon="0.20535">
        <ele>2221.74</ele>
        <time>2016-07-05T12:03:19Z</time>
      </trkpt>
      <trkpt lat="42.88209" lon="0.20532">
        <ele>2221.26</ele>
        <time>2016-07-05T12:03:22Z</time>
      </trkpt>
      <trkpt lat="42.88217" lon="0.20523">
        <ele>2220.78</ele>
        <time>2016-07-05T12:03:37Z</time>
      </trkpt>
      <trkpt lat="42.88226" lon="0.20524">
        <ele>2218.86</ele>
        <time>2016-07-05T12:03:50Z</time>
      </trkpt>
      <trkpt lat="42.88236" lon="0.20526">
        <ele>2216.46</ele>
        <time>2016-07-05T12:04:04Z</time>
      </trkpt>
      <trkpt lat="42.88239" lon="0.20528">
        <ele>2215.98</ele>
        <time>2016-07-05T12:04:08Z</time>
      </trkpt>
      <trkpt lat="42.88244" lon="0.20535">
        <ele>2213.09</ele>
        <time>2016-07-05T12:04:22Z</time>
      </trkpt>
      <trkpt lat="42.8825" lon="0.20537">
        <ele>2211.17</ele>
        <time>2016-07-05T12:04:32Z</time>
      </trkpt>
      <trkpt lat="42.88258" lon="0.2053">
        <ele>2211.17</ele>
        <time>2016-07-05T12:04:44Z</time>
      </trkpt>
      <trkpt lat="42.88259" lon="0.20529">
        <ele>2210.69</ele>
        <time>2016-07-05T12:04:45Z</time>
      </trkpt>
      <trkpt lat="42.88263" lon="0.20526">
        <ele>2211.17</ele>
        <time>2016-07-05T12:04:49Z</time>
      </trkpt>
      <trkpt lat="42.88276" lon="0.20518">
        <ele>2210.21</ele>
        <time>2016-07-05T12:05:05Z</time>
      </trkpt>
      <trkpt lat="42.88275" lon="0.2052">
        <ele>2210.21</ele>
        <time>2016-07-05T12:05:22Z</time>
      </trkpt>
      <trkpt lat="42.88277" lon="0.2052">
        <ele>2210.21</ele>
        <time>2016-07-05T12:05:33Z</time>
      </trkpt>
      <trkpt lat="42.88284" lon="0.20522">
        <ele>2209.25</ele>
        <time>2016-07-05T12:05:41Z</time>
      </trkpt>
      <trkpt lat="42.88293" lon="0.20518">
        <ele>2205.88</ele>
        <time>2016-07-05T12:05:52Z</time>
      </trkpt>
      <trkpt lat="42.88294" lon="0.20518">
        <ele>2210.21</ele>
        <time>2016-07-05T12:05:53Z</time>
      </trkpt>
      <trkpt lat="42.88295" lon="0.20518">
        <ele>2209.73</ele>
        <time>2016-07-05T12:05:54Z</time>
      </trkpt>
      <trkpt lat="42.88296" lon="0.20518">
        <ele>2206.36</ele>
        <time>2016-07-05T12:06:01Z</time>
      </trkpt>
      <trkpt lat="42.883" lon="0.20515">
        <ele>2212.13</ele>
        <time>2016-07-05T12:06:05Z</time>
      </trkpt>
      <trkpt lat="42.88301" lon="0.20515">
        <ele>2203.48</ele>
        <time>2016-07-05T12:06:06Z</time>
      </trkpt>
      <trkpt lat="42.88302" lon="0.20515">
        <ele>2210.69</ele>
        <time>2016-07-05T12:06:07Z</time>
      </trkpt>
      <trkpt lat="42.88306" lon="0.20517">
        <ele>2207.81</ele>
        <time>2016-07-05T12:06:10Z</time>
      </trkpt>
      <trkpt lat="42.88307" lon="0.20517">
        <ele>2207.81</ele>
        <time>2016-07-05T12:06:11Z</time>
      </trkpt>
      <trkpt lat="42.88325" lon="0.20516">
        <ele>2205.88</ele>
        <time>2016-07-05T12:06:26Z</time>
      </trkpt>
      <trkpt lat="42.88336" lon="0.20515">
        <ele>2204.92</ele>
        <time>2016-07-05T12:06:37Z</time>
      </trkpt>
      <trkpt lat="42.8834" lon="0.20516">
        <ele>2202.52</ele>
        <time>2016-07-05T12:06:51Z</time>
      </trkpt>
      <trkpt lat="42.88344" lon="0.20515">
        <ele>2201.08</ele>
        <time>2016-07-05T12:06:57Z</time>
      </trkpt>
      <trkpt lat="42.88354" lon="0.20511">
        <ele>2198.67</ele>
        <time>2016-07-05T12:07:09Z</time>
      </trkpt>
      <trkpt lat="42.88361" lon="0.20507">
        <ele>2196.27</ele>
        <time>2016-07-05T12:07:22Z</time>
      </trkpt>
      <trkpt lat="42.88366" lon="0.20508">
        <ele>2193.87</ele>
        <time>2016-07-05T12:07:35Z</time>
      </trkpt>
      <trkpt lat="42.88376" lon="0.20503">
        <ele>2190.5</ele>
        <time>2016-07-05T12:07:48Z</time>
      </trkpt>
      <trkpt lat="42.88387" lon="0.20492">
        <ele>2189.06</ele>
        <time>2016-07-05T12:08:02Z</time>
      </trkpt>
      <trkpt lat="42.88387" lon="0.2049">
        <ele>2189.06</ele>
        <time>2016-07-05T12:08:05Z</time>
      </trkpt>
      <trkpt lat="42.88387" lon="0.2048">
        <ele>2188.58</ele>
        <time>2016-07-05T12:08:10Z</time>
      </trkpt>
      <trkpt lat="42.88391" lon="0.20461">
        <ele>2189.06</ele>
        <time>2016-07-05T12:08:24Z</time>
      </trkpt>
      <trkpt lat="42.88399" lon="0.2045">
        <ele>2188.58</ele>
        <time>2016-07-05T12:08:36Z</time>
      </trkpt>
      <trkpt lat="42.88404" lon="0.20444">
        <ele>2187.14</ele>
        <time>2016-07-05T12:08:44Z</time>
      </trkpt>
      <trkpt lat="42.88404" lon="0.20434">
        <ele>2187.62</ele>
        <time>2016-07-05T12:08:55Z</time>
      </trkpt>
      <trkpt lat="42.88409" lon="0.20429">
        <ele>2189.06</ele>
        <time>2016-07-05T12:09:05Z</time>
      </trkpt>
      <trkpt lat="42.88417" lon="0.20425">
        <ele>2187.62</ele>
        <time>2016-07-05T12:09:19Z</time>
      </trkpt>
      <trkpt lat="42.88418" lon="0.20432">
        <ele>2184.73</ele>
        <time>2016-07-05T12:09:30Z</time>
      </trkpt>
      <trkpt lat="42.88423" lon="0.20437">
        <ele>2181.85</ele>
        <time>2016-07-05T12:09:42Z</time>
      </trkpt>
      <trkpt lat="42.88431" lon="0.20442">
        <ele>2178.48</ele>
        <time>2016-07-05T12:09:55Z</time>
      </trkpt>
      <trkpt lat="42.88437" lon="0.20445">
        <ele>2176.08</ele>
        <time>2016-07-05T12:10:07Z</time>
      </trkpt>
      <trkpt lat="42.88438" lon="0.20447">
        <ele>2174.64</ele>
        <time>2016-07-05T12:10:11Z</time>
      </trkpt>
      <trkpt lat="42.8844" lon="0.20449">
        <ele>2172.72</ele>
        <time>2016-07-05T12:10:22Z</time>
      </trkpt>
      <trkpt lat="42.88443" lon="0.2045">
        <ele>2176.08</ele>
        <time>2016-07-05T12:10:28Z</time>
      </trkpt>
      <trkpt lat="42.88443" lon="0.20451">
        <ele>2174.64</ele>
        <time>2016-07-05T12:10:29Z</time>
      </trkpt>
      <trkpt lat="42.88443" lon="0.20452">
        <ele>2172.24</ele>
        <time>2016-07-05T12:10:31Z</time>
      </trkpt>
      <trkpt lat="42.8844" lon="0.2046">
        <ele>2168.87</ele>
        <time>2016-07-05T12:10:41Z</time>
      </trkpt>
      <trkpt lat="42.88444" lon="0.20468">
        <ele>2165.51</ele>
        <time>2016-07-05T12:10:52Z</time>
      </trkpt>
      <trkpt lat="42.88448" lon="0.20474">
        <ele>2162.62</ele>
        <time>2016-07-05T12:11:05Z</time>
      </trkpt>
      <trkpt lat="42.88454" lon="0.20478">
        <ele>2160.22</ele>
        <time>2016-07-05T12:11:16Z</time>
      </trkpt>
      <trkpt lat="42.88458" lon="0.2049">
        <ele>2157.34</ele>
        <time>2016-07-05T12:11:31Z</time>
      </trkpt>
      <trkpt lat="42.88465" lon="0.20495">
        <ele>2153.49</ele>
        <time>2016-07-05T12:11:44Z</time>
      </trkpt>
      <trkpt lat="42.88468" lon="0.20504">
        <ele>2150.61</ele>
        <time>2016-07-05T12:11:57Z</time>
      </trkpt>
      <trkpt lat="42.88465" lon="0.20514">
        <ele>2147.72</ele>
        <time>2016-07-05T12:12:08Z</time>
      </trkpt>
      <trkpt lat="42.8847" lon="0.20519">
        <ele>2144.84</ele>
        <time>2016-07-05T12:12:20Z</time>
      </trkpt>
      <trkpt lat="42.88476" lon="0.2052">
        <ele>2142.44</ele>
        <time>2016-07-05T12:12:32Z</time>
      </trkpt>
      <trkpt lat="42.88479" lon="0.20524">
        <ele>2140.03</ele>
        <time>2016-07-05T12:12:47Z</time>
      </trkpt>
      <trkpt lat="42.88484" lon="0.20523">
        <ele>2138.11</ele>
        <time>2016-07-05T12:12:59Z</time>
      </trkpt>
      <trkpt lat="42.88487" lon="0.20526">
        <ele>2137.63</ele>
        <time>2016-07-05T12:13:04Z</time>
      </trkpt>
      <trkpt lat="42.88492" lon="0.20531">
        <ele>2136.67</ele>
        <time>2016-07-05T12:13:10Z</time>
      </trkpt>
      <trkpt lat="42.88495" lon="0.20539">
        <ele>2136.67</ele>
        <time>2016-07-05T12:13:19Z</time>
      </trkpt>
      <trkpt lat="42.88492" lon="0.20548">
        <ele>2137.15</ele>
        <time>2016-07-05T12:13:34Z</time>
      </trkpt>
      <trkpt lat="42.88493" lon="0.20546">
        <ele>2136.67</ele>
        <time>2016-07-05T12:13:48Z</time>
      </trkpt>
      <trkpt lat="42.88493" lon="0.20549">
        <ele>2136.67</ele>
        <time>2016-07-05T12:14:02Z</time>
      </trkpt>
      <trkpt lat="42.88493" lon="0.20545">
        <ele>2136.67</ele>
        <time>2016-07-05T12:14:16Z</time>
      </trkpt>
      <trkpt lat="42.88494" lon="0.20547">
        <ele>2136.67</ele>
        <time>2016-07-05T12:14:23Z</time>
      </trkpt>
      <trkpt lat="42.88506" lon="0.20551">
        <ele>2137.15</ele>
        <time>2016-07-05T12:14:37Z</time>
      </trkpt>
      <trkpt lat="42.88516" lon="0.20549">
        <ele>2138.59</ele>
        <time>2016-07-05T12:14:50Z</time>
      </trkpt>
      <trkpt lat="42.88521" lon="0.20563">
        <ele>2137.63</ele>
        <time>2016-07-05T12:15:04Z</time>
      </trkpt>
      <trkpt lat="42.88521" lon="0.20578">
        <ele>2135.71</ele>
        <time>2016-07-05T12:15:18Z</time>
      </trkpt>
      <trkpt lat="42.88523" lon="0.20585">
        <ele>2134.74</ele>
        <time>2016-07-05T12:15:26Z</time>
      </trkpt>
      <trkpt lat="42.88524" lon="0.20595">
        <ele>2134.26</ele>
        <time>2016-07-05T12:15:33Z</time>
      </trkpt>
      <trkpt lat="42.88529" lon="0.20611">
        <ele>2133.3</ele>
        <time>2016-07-05T12:15:47Z</time>
      </trkpt>
      <trkpt lat="42.8853" lon="0.20613">
        <ele>2132.34</ele>
        <time>2016-07-05T12:15:51Z</time>
      </trkpt>
      <trkpt lat="42.88531" lon="0.20622">
        <ele>2130.9</ele>
        <time>2016-07-05T12:15:58Z</time>
      </trkpt>
      <trkpt lat="42.88534" lon="0.20632">
        <ele>2130.42</ele>
        <time>2016-07-05T12:16:11Z</time>
      </trkpt>
      <trkpt lat="42.88529" lon="0.20643">
        <ele>2130.42</ele>
        <time>2016-07-05T12:16:21Z</time>
      </trkpt>
      <trkpt lat="42.88529" lon="0.20648">
        <ele>2130.9</ele>
        <time>2016-07-05T12:16:25Z</time>
      </trkpt>
      <trkpt lat="42.88543" lon="0.20651">
        <ele>2130.42</ele>
        <time>2016-07-05T12:16:38Z</time>
      </trkpt>
      <trkpt lat="42.88549" lon="0.20651">
        <ele>2130.42</ele>
        <time>2016-07-05T12:16:43Z</time>
      </trkpt>
      <trkpt lat="42.88553" lon="0.20651">
        <ele>2130.42</ele>
        <time>2016-07-05T12:16:47Z</time>
      </trkpt>
      <trkpt lat="42.88566" lon="0.20651">
        <ele>2129.46</ele>
        <time>2016-07-05T12:16:58Z</time>
      </trkpt>
      <trkpt lat="42.88571" lon="0.20648">
        <ele>2128.98</ele>
        <time>2016-07-05T12:17:03Z</time>
      </trkpt>
      <trkpt lat="42.88576" lon="0.20641">
        <ele>2128.5</ele>
        <time>2016-07-05T12:17:15Z</time>
      </trkpt>
      <trkpt lat="42.88576" lon="0.2064">
        <ele>2128.02</ele>
        <time>2016-07-05T12:17:17Z</time>
      </trkpt>
      <trkpt lat="42.88586" lon="0.20631">
        <ele>2126.09</ele>
        <time>2016-07-05T12:17:30Z</time>
      </trkpt>
      <trkpt lat="42.8859" lon="0.2063">
        <ele>2127.05</ele>
        <time>2016-07-05T12:17:38Z</time>
      </trkpt>
      <trkpt lat="42.88601" lon="0.2063">
        <ele>2128.5</ele>
        <time>2016-07-05T12:17:52Z</time>
      </trkpt>
      <trkpt lat="42.88607" lon="0.20633">
        <ele>2129.94</ele>
        <time>2016-07-05T12:18:05Z</time>
      </trkpt>
      <trkpt lat="42.88614" lon="0.20623">
        <ele>2131.38</ele>
        <time>2016-07-05T12:18:21Z</time>
      </trkpt>
      <trkpt lat="42.88619" lon="0.2062">
        <ele>2133.3</ele>
        <time>2016-07-05T12:18:34Z</time>
      </trkpt>
      <trkpt lat="42.88623" lon="0.20615">
        <ele>2133.78</ele>
        <time>2016-07-05T12:18:48Z</time>
      </trkpt>
      <trkpt lat="42.88627" lon="0.20609">
        <ele>2133.3</ele>
        <time>2016-07-05T12:18:59Z</time>
      </trkpt>
      <trkpt lat="42.88631" lon="0.206">
        <ele>2131.86</ele>
        <time>2016-07-05T12:19:08Z</time>
      </trkpt>
      <trkpt lat="42.88632" lon="0.20598">
        <ele>2130.9</ele>
        <time>2016-07-05T12:19:10Z</time>
      </trkpt>
      <trkpt lat="42.88638" lon="0.20589">
        <ele>2129.94</ele>
        <time>2016-07-05T12:19:20Z</time>
      </trkpt>
      <trkpt lat="42.88643" lon="0.20564">
        <ele>2129.46</ele>
        <time>2016-07-05T12:19:35Z</time>
      </trkpt>
      <trkpt lat="42.88646" lon="0.20542">
        <ele>2128.5</ele>
        <time>2016-07-05T12:19:52Z</time>
      </trkpt>
      <trkpt lat="42.88652" lon="0.2053">
        <ele>2127.53</ele>
        <time>2016-07-05T12:20:06Z</time>
      </trkpt>
      <trkpt lat="42.88667" lon="0.20531">
        <ele>2126.57</ele>
        <time>2016-07-05T12:20:19Z</time>
      </trkpt>
      <trkpt lat="42.88681" lon="0.20539">
        <ele>2128.5</ele>
        <time>2016-07-05T12:20:32Z</time>
      </trkpt>
      <trkpt lat="42.88686" lon="0.20539">
        <ele>2129.46</ele>
        <time>2016-07-05T12:20:38Z</time>
      </trkpt>
      <trkpt lat="42.88688" lon="0.20538">
        <ele>2128.98</ele>
        <time>2016-07-05T12:20:40Z</time>
      </trkpt>
      <trkpt lat="42.88697" lon="0.20533">
        <ele>2128.98</ele>
        <time>2016-07-05T12:20:49Z</time>
      </trkpt>
      <trkpt lat="42.88705" lon="0.20536">
        <ele>2131.38</ele>
        <time>2016-07-05T12:21:01Z</time>
      </trkpt>
      <trkpt lat="42.88706" lon="0.20535">
        <ele>2130.9</ele>
        <time>2016-07-05T12:21:05Z</time>
      </trkpt>
      <trkpt lat="42.88715" lon="0.20534">
        <ele>2131.86</ele>
        <time>2016-07-05T12:21:19Z</time>
      </trkpt>
      <trkpt lat="42.88722" lon="0.20532">
        <ele>2134.26</ele>
        <time>2016-07-05T12:21:35Z</time>
      </trkpt>
      <trkpt lat="42.88728" lon="0.20532">
        <ele>2136.19</ele>
        <time>2016-07-05T12:21:48Z</time>
      </trkpt>
      <trkpt lat="42.88737" lon="0.20529">
        <ele>2136.19</ele>
        <time>2016-07-05T12:22:01Z</time>
      </trkpt>
      <trkpt lat="42.88737" lon="0.20529">
        <ele>2138.59</ele>
        <time>2016-07-05T12:22:04Z</time>
      </trkpt>
      <trkpt lat="42.88738" lon="0.20531">
        <ele>2134.74</ele>
        <time>2016-07-05T12:22:20Z</time>
      </trkpt>
      <trkpt lat="42.88738" lon="0.20531">
        <ele>2140.51</ele>
        <time>2016-07-05T12:22:21Z</time>
      </trkpt>
      <trkpt lat="42.88742" lon="0.20531">
        <ele>2139.55</ele>
        <time>2016-07-05T12:22:27Z</time>
      </trkpt>
      <trkpt lat="42.88748" lon="0.20524">
        <ele>2139.07</ele>
        <time>2016-07-05T12:22:36Z</time>
      </trkpt>
      <trkpt lat="42.88759" lon="0.20516">
        <ele>2139.55</ele>
        <time>2016-07-05T12:22:50Z</time>
      </trkpt>
      <trkpt lat="42.88764" lon="0.20517">
        <ele>2138.59</ele>
        <time>2016-07-05T12:22:56Z</time>
      </trkpt>
      <trkpt lat="42.88771" lon="0.20514">
        <ele>2136.67</ele>
        <time>2016-07-05T12:23:08Z</time>
      </trkpt>
      <trkpt lat="42.88772" lon="0.20513">
        <ele>2136.67</ele>
        <time>2016-07-05T12:23:09Z</time>
      </trkpt>
      <trkpt lat="42.8878" lon="0.20516">
        <ele>2134.74</ele>
        <time>2016-07-05T12:23:18Z</time>
      </trkpt>
      <trkpt lat="42.88791" lon="0.20519">
        <ele>2135.71</ele>
        <time>2016-07-05T12:23:31Z</time>
      </trkpt>
      <trkpt lat="42.88799" lon="0.20518">
        <ele>2135.71</ele>
        <time>2016-07-05T12:23:40Z</time>
      </trkpt>
      <trkpt lat="42.88804" lon="0.20516">
        <ele>2135.71</ele>
        <time>2016-07-05T12:23:45Z</time>
      </trkpt>
      <trkpt lat="42.88821" lon="0.20517">
        <ele>2136.19</ele>
        <time>2016-07-05T12:24:00Z</time>
      </trkpt>
      <trkpt lat="42.88831" lon="0.20513">
        <ele>2136.67</ele>
        <time>2016-07-05T12:24:12Z</time>
      </trkpt>
      <trkpt lat="42.88841" lon="0.20514">
        <ele>2137.15</ele>
        <time>2016-07-05T12:24:26Z</time>
      </trkpt>
      <trkpt lat="42.88847" lon="0.20513">
        <ele>2137.63</ele>
        <time>2016-07-05T12:24:35Z</time>
      </trkpt>
      <trkpt lat="42.88859" lon="0.20509">
        <ele>2136.67</ele>
        <time>2016-07-05T12:24:47Z</time>
      </trkpt>
      <trkpt lat="42.88865" lon="0.20514">
        <ele>2136.67</ele>
        <time>2016-07-05T12:24:52Z</time>
      </trkpt>
      <trkpt lat="42.88875" lon="0.20514">
        <ele>2136.19</ele>
        <time>2016-07-05T12:25:04Z</time>
      </trkpt>
      <trkpt lat="42.88877" lon="0.20514">
        <ele>2136.19</ele>
        <time>2016-07-05T12:25:07Z</time>
      </trkpt>
      <trkpt lat="42.88882" lon="0.20506">
        <ele>2135.71</ele>
        <time>2016-07-05T12:25:19Z</time>
      </trkpt>
      <trkpt lat="42.88884" lon="0.20505">
        <ele>2135.71</ele>
        <time>2016-07-05T12:25:22Z</time>
      </trkpt>
      <trkpt lat="42.8889" lon="0.20492">
        <ele>2133.3</ele>
        <time>2016-07-05T12:25:36Z</time>
      </trkpt>
      <trkpt lat="42.88895" lon="0.20483">
        <ele>2131.86</ele>
        <time>2016-07-05T12:25:47Z</time>
      </trkpt>
      <trkpt lat="42.88895" lon="0.20473">
        <ele>2129.94</ele>
        <time>2016-07-05T12:25:58Z</time>
      </trkpt>
      <trkpt lat="42.88895" lon="0.20472">
        <ele>2129.46</ele>
        <time>2016-07-05T12:25:59Z</time>
      </trkpt>
      <trkpt lat="42.88895" lon="0.20468">
        <ele>2129.46</ele>
        <time>2016-07-05T12:26:02Z</time>
      </trkpt>
      <trkpt lat="42.88904" lon="0.20455">
        <ele>2130.42</ele>
        <time>2016-07-05T12:26:15Z</time>
      </trkpt>
      <trkpt lat="42.88903" lon="0.2044">
        <ele>2129.46</ele>
        <time>2016-07-05T12:26:29Z</time>
      </trkpt>
      <trkpt lat="42.88903" lon="0.20436">
        <ele>2130.42</ele>
        <time>2016-07-05T12:26:34Z</time>
      </trkpt>
      <trkpt lat="42.88903" lon="0.2043">
        <ele>2129.94</ele>
        <time>2016-07-05T12:26:38Z</time>
      </trkpt>
      <trkpt lat="42.88914" lon="0.2042">
        <ele>2129.94</ele>
        <time>2016-07-05T12:26:53Z</time>
      </trkpt>
      <trkpt lat="42.8892" lon="0.20408">
        <ele>2128.5</ele>
        <time>2016-07-05T12:27:06Z</time>
      </trkpt>
      <trkpt lat="42.88926" lon="0.20395">
        <ele>2128.02</ele>
        <time>2016-07-05T12:27:20Z</time>
      </trkpt>
      <trkpt lat="42.88931" lon="0.20384">
        <ele>2128.5</ele>
        <time>2016-07-05T12:27:33Z</time>
      </trkpt>
      <trkpt lat="42.88933" lon="0.20383">
        <ele>2128.98</ele>
        <time>2016-07-05T12:27:45Z</time>
      </trkpt>
      <trkpt lat="42.88931" lon="0.20382">
        <ele>2128.98</ele>
        <time>2016-07-05T12:27:47Z</time>
      </trkpt>
      <trkpt lat="42.88927" lon="0.20377">
        <ele>2127.53</ele>
        <time>2016-07-05T12:27:56Z</time>
      </trkpt>
      <trkpt lat="42.88929" lon="0.20362">
        <ele>2126.09</ele>
        <time>2016-07-05T12:28:07Z</time>
      </trkpt>
      <trkpt lat="42.88932" lon="0.20339">
        <ele>2126.09</ele>
        <time>2016-07-05T12:28:23Z</time>
      </trkpt>
      <trkpt lat="42.8894" lon="0.20325">
        <ele>2128.02</ele>
        <time>2016-07-05T12:28:37Z</time>
      </trkpt>
      <trkpt lat="42.88945" lon="0.20311">
        <ele>2128.98</ele>
        <time>2016-07-05T12:28:50Z</time>
      </trkpt>
      <trkpt lat="42.88954" lon="0.20295">
        <ele>2129.46</ele>
        <time>2016-07-05T12:29:04Z</time>
      </trkpt>
      <trkpt lat="42.88959" lon="0.2028">
        <ele>2130.42</ele>
        <time>2016-07-05T12:29:17Z</time>
      </trkpt>
      <trkpt lat="42.88953" lon="0.20273">
        <ele>2133.3</ele>
        <time>2016-07-05T12:29:31Z</time>
      </trkpt>
      <trkpt lat="42.88955" lon="0.20261">
        <ele>2134.74</ele>
        <time>2016-07-05T12:29:43Z</time>
      </trkpt>
      <trkpt lat="42.88954" lon="0.20253">
        <ele>2135.71</ele>
        <time>2016-07-05T12:29:51Z</time>
      </trkpt>
      <trkpt lat="42.88958" lon="0.20244">
        <ele>2135.71</ele>
        <time>2016-07-05T12:29:57Z</time>
      </trkpt>
      <trkpt lat="42.88965" lon="0.20244">
        <ele>2135.71</ele>
        <time>2016-07-05T12:30:03Z</time>
      </trkpt>
      <trkpt lat="42.88969" lon="0.2024">
        <ele>2134.74</ele>
        <time>2016-07-05T12:30:07Z</time>
      </trkpt>
      <trkpt lat="42.88977" lon="0.20221">
        <ele>2132.82</ele>
        <time>2016-07-05T12:30:22Z</time>
      </trkpt>
      <trkpt lat="42.88981" lon="0.20212">
        <ele>2130.42</ele>
        <time>2016-07-05T12:30:36Z</time>
      </trkpt>
      <trkpt lat="42.88985" lon="0.2021">
        <ele>2128.5</ele>
        <time>2016-07-05T12:30:49Z</time>
      </trkpt>
      <trkpt lat="42.88985" lon="0.20208">
        <ele>2127.53</ele>
        <time>2016-07-05T12:31:07Z</time>
      </trkpt>
      <trkpt lat="42.88984" lon="0.20207">
        <ele>2127.05</ele>
        <time>2016-07-05T12:31:25Z</time>
      </trkpt>
      <trkpt lat="42.88988" lon="0.20203">
        <ele>2125.61</ele>
        <time>2016-07-05T12:31:41Z</time>
      </trkpt>
      <trkpt lat="42.88989" lon="0.20198">
        <ele>2125.13</ele>
        <time>2016-07-05T12:31:56Z</time>
      </trkpt>
      <trkpt lat="42.88991" lon="0.20193">
        <ele>2123.69</ele>
        <time>2016-07-05T12:32:04Z</time>
      </trkpt>
      <trkpt lat="42.88997" lon="0.20185">
        <ele>2123.69</ele>
        <time>2016-07-05T12:32:16Z</time>
      </trkpt>
      <trkpt lat="42.89001" lon="0.2018">
        <ele>2125.61</ele>
        <time>2016-07-05T12:32:28Z</time>
      </trkpt>
      <trkpt lat="42.89005" lon="0.20176">
        <ele>2126.57</ele>
        <time>2016-07-05T12:32:46Z</time>
      </trkpt>
      <trkpt lat="42.89006" lon="0.20176">
        <ele>2126.57</ele>
        <time>2016-07-05T12:32:59Z</time>
      </trkpt>
      <trkpt lat="42.89007" lon="0.20172">
        <ele>2126.09</ele>
        <time>2016-07-05T12:33:10Z</time>
      </trkpt>
      <trkpt lat="42.89009" lon="0.20169">
        <ele>2125.61</ele>
        <time>2016-07-05T12:33:16Z</time>
      </trkpt>
      <trkpt lat="42.89013" lon="0.20165">
        <ele>2126.57</ele>
        <time>2016-07-05T12:33:29Z</time>
      </trkpt>
      <trkpt lat="42.89014" lon="0.20165">
        <ele>2126.09</ele>
        <time>2016-07-05T12:33:43Z</time>
      </trkpt>
      <trkpt lat="42.89015" lon="0.20167">
        <ele>2128.02</ele>
        <time>2016-07-05T12:33:57Z</time>
      </trkpt>
      <trkpt lat="42.89021" lon="0.20162">
        <ele>2128.5</ele>
        <time>2016-07-05T12:34:09Z</time>
      </trkpt>
      <trkpt lat="42.89023" lon="0.20157">
        <ele>2128.02</ele>
        <time>2016-07-05T12:34:21Z</time>
      </trkpt>
      <trkpt lat="42.89022" lon="0.20155">
        <ele>2127.53</ele>
        <time>2016-07-05T12:34:36Z</time>
      </trkpt>
      <trkpt lat="42.89031" lon="0.2015">
        <ele>2126.57</ele>
        <time>2016-07-05T12:34:51Z</time>
      </trkpt>
      <trkpt lat="42.89041" lon="0.20142">
        <ele>2126.09</ele>
        <time>2016-07-05T12:35:05Z</time>
      </trkpt>
      <trkpt lat="42.89044" lon="0.2013">
        <ele>2125.61</ele>
        <time>2016-07-05T12:35:17Z</time>
      </trkpt>
      <trkpt lat="42.89051" lon="0.2012">
        <ele>2126.57</ele>
        <time>2016-07-05T12:35:31Z</time>
      </trkpt>
      <trkpt lat="42.89055" lon="0.2011">
        <ele>2127.05</ele>
        <time>2016-07-05T12:35:45Z</time>
      </trkpt>
      <trkpt lat="42.89061" lon="0.20099">
        <ele>2125.61</ele>
        <time>2016-07-05T12:35:59Z</time>
      </trkpt>
      <trkpt lat="42.8906" lon="0.20084">
        <ele>2127.53</ele>
        <time>2016-07-05T12:36:16Z</time>
      </trkpt>
      <trkpt lat="42.89066" lon="0.20086">
        <ele>2129.94</ele>
        <time>2016-07-05T12:36:29Z</time>
      </trkpt>
      <trkpt lat="42.89071" lon="0.20075">
        <ele>2129.46</ele>
        <time>2016-07-05T12:36:42Z</time>
      </trkpt>
      <trkpt lat="42.89076" lon="0.20067">
        <ele>2129.94</ele>
        <time>2016-07-05T12:36:53Z</time>
      </trkpt>
      <trkpt lat="42.89079" lon="0.20059">
        <ele>2130.9</ele>
        <time>2016-07-05T12:37:05Z</time>
      </trkpt>
      <trkpt lat="42.89083" lon="0.20047">
        <ele>2130.9</ele>
        <time>2016-07-05T12:37:18Z</time>
      </trkpt>
      <trkpt lat="42.89089" lon="0.2004">
        <ele>2132.82</ele>
        <time>2016-07-05T12:37:32Z</time>
      </trkpt>
      <trkpt lat="42.89096" lon="0.20027">
        <ele>2131.86</ele>
        <time>2016-07-05T12:37:45Z</time>
      </trkpt>
      <trkpt lat="42.89096" lon="0.20026">
        <ele>2132.34</ele>
        <time>2016-07-05T12:37:46Z</time>
      </trkpt>
      <trkpt lat="42.89101" lon="0.20017">
        <ele>2131.86</ele>
        <time>2016-07-05T12:37:56Z</time>
      </trkpt>
      <trkpt lat="42.89106" lon="0.20016">
        <ele>2131.86</ele>
        <time>2016-07-05T12:38:01Z</time>
      </trkpt>
      <trkpt lat="42.89117" lon="0.20014">
        <ele>2133.3</ele>
        <time>2016-07-05T12:38:16Z</time>
      </trkpt>
      <trkpt lat="42.89119" lon="0.20013">
        <ele>2132.82</ele>
        <time>2016-07-05T12:38:18Z</time>
      </trkpt>
      <trkpt lat="42.89128" lon="0.20004">
        <ele>2132.82</ele>
        <time>2016-07-05T12:38:32Z</time>
      </trkpt>
      <trkpt lat="42.89132" lon="0.20003">
        <ele>2132.82</ele>
        <time>2016-07-05T12:38:39Z</time>
      </trkpt>
      <trkpt lat="42.8914" lon="0.19993">
        <ele>2132.82</ele>
        <time>2016-07-05T12:38:52Z</time>
      </trkpt>
      <trkpt lat="42.89144" lon="0.19982">
        <ele>2133.78</ele>
        <time>2016-07-05T12:39:05Z</time>
      </trkpt>
      <trkpt lat="42.89141" lon="0.19971">
        <ele>2135.23</ele>
        <time>2016-07-05T12:39:17Z</time>
      </trkpt>
      <trkpt lat="42.89137" lon="0.19971">
        <ele>2136.19</ele>
        <time>2016-07-05T12:39:29Z</time>
      </trkpt>
      <trkpt lat="42.89138" lon="0.1997">
        <ele>2136.19</ele>
        <time>2016-07-05T12:39:32Z</time>
      </trkpt>
      <trkpt lat="42.89138" lon="0.19969">
        <ele>2135.71</ele>
        <time>2016-07-05T12:39:43Z</time>
      </trkpt>
      <trkpt lat="42.89137" lon="0.19969">
        <ele>2136.19</ele>
        <time>2016-07-05T12:40:10Z</time>
      </trkpt>
      <trkpt lat="42.89139" lon="0.19969">
        <ele>2135.71</ele>
        <time>2016-07-05T12:40:48Z</time>
      </trkpt>
      <trkpt lat="42.89138" lon="0.1997">
        <ele>2135.23</ele>
        <time>2016-07-05T12:41:08Z</time>
      </trkpt>
      <trkpt lat="42.8914" lon="0.19967">
        <ele>2134.74</ele>
        <time>2016-07-05T12:42:13Z</time>
      </trkpt>
      <trkpt lat="42.89137" lon="0.19967">
        <ele>2136.19</ele>
        <time>2016-07-05T12:42:33Z</time>
      </trkpt>
      <trkpt lat="42.89134" lon="0.19968">
        <ele>2135.23</ele>
        <time>2016-07-05T12:42:46Z</time>
      </trkpt>
      <trkpt lat="42.8913" lon="0.19967">
        <ele>2134.74</ele>
        <time>2016-07-05T12:42:57Z</time>
      </trkpt>
      <trkpt lat="42.89116" lon="0.19961">
        <ele>2134.74</ele>
        <time>2016-07-05T12:43:15Z</time>
      </trkpt>
      <trkpt lat="42.89117" lon="0.19963">
        <ele>2134.26</ele>
        <time>2016-07-05T12:43:17Z</time>
      </trkpt>
      <trkpt lat="42.89126" lon="0.19967">
        <ele>2135.71</ele>
        <time>2016-07-05T12:43:33Z</time>
      </trkpt>
      <trkpt lat="42.89145" lon="0.19969">
        <ele>2135.23</ele>
        <time>2016-07-05T12:43:55Z</time>
      </trkpt>
      <trkpt lat="42.8916" lon="0.19963">
        <ele>2134.74</ele>
        <time>2016-07-05T12:44:12Z</time>
      </trkpt>
      <trkpt lat="42.89161" lon="0.1996">
        <ele>2133.78</ele>
        <time>2016-07-05T12:44:16Z</time>
      </trkpt>
      <trkpt lat="42.89163" lon="0.19956">
        <ele>2132.82</ele>
        <time>2016-07-05T12:44:19Z</time>
      </trkpt>
      <trkpt lat="42.89166" lon="0.19949">
        <ele>2129.94</ele>
        <time>2016-07-05T12:44:29Z</time>
      </trkpt>
      <trkpt lat="42.89167" lon="0.19941">
        <ele>2128.5</ele>
        <time>2016-07-05T12:44:37Z</time>
      </trkpt>
      <trkpt lat="42.89167" lon="0.19934">
        <ele>2127.53</ele>
        <time>2016-07-05T12:44:42Z</time>
      </trkpt>
      <trkpt lat="42.89167" lon="0.19926">
        <ele>2127.53</ele>
        <time>2016-07-05T12:44:47Z</time>
      </trkpt>
      <trkpt lat="42.89164" lon="0.19922">
        <ele>2127.05</ele>
        <time>2016-07-05T12:44:51Z</time>
      </trkpt>
      <trkpt lat="42.89153" lon="0.19904">
        <ele>2126.09</ele>
        <time>2016-07-05T12:49:47Z</time>
      </trkpt>
      <trkpt lat="42.8916" lon="0.19917">
        <ele>2126.57</ele>
        <time>2016-07-05T12:50:00Z</time>
      </trkpt>
      <trkpt lat="42.89167" lon="0.1994">
        <ele>2127.05</ele>
        <time>2016-07-05T12:50:17Z</time>
      </trkpt>
      <trkpt lat="42.8917" lon="0.19935">
        <ele>2124.65</ele>
        <time>2016-07-05T12:50:29Z</time>
      </trkpt>
      <trkpt lat="42.89171" lon="0.1993">
        <ele>2123.21</ele>
        <time>2016-07-05T12:50:36Z</time>
      </trkpt>
      <trkpt lat="42.89179" lon="0.19921">
        <ele>2118.4</ele>
        <time>2016-07-05T12:50:51Z</time>
      </trkpt>
      <trkpt lat="42.89186" lon="0.19915">
        <ele>2116.48</ele>
        <time>2016-07-05T12:51:04Z</time>
      </trkpt>
      <trkpt lat="42.89188" lon="0.19912">
        <ele>2115.04</ele>
        <time>2016-07-05T12:51:09Z</time>
      </trkpt>
      <trkpt lat="42.89196" lon="0.19916">
        <ele>2111.67</ele>
        <time>2016-07-05T12:51:22Z</time>
      </trkpt>
      <trkpt lat="42.89199" lon="0.19909">
        <ele>2108.79</ele>
        <time>2016-07-05T12:51:34Z</time>
      </trkpt>
      <trkpt lat="42.89203" lon="0.19905">
        <ele>2106.87</ele>
        <time>2016-07-05T12:51:47Z</time>
      </trkpt>
      <trkpt lat="42.89209" lon="0.19905">
        <ele>2104.46</ele>
        <time>2016-07-05T12:51:58Z</time>
      </trkpt>
      <trkpt lat="42.89212" lon="0.19902">
        <ele>2103.5</ele>
        <time>2016-07-05T12:52:03Z</time>
      </trkpt>
      <trkpt lat="42.89213" lon="0.19886">
        <ele>2101.58</ele>
        <time>2016-07-05T12:52:17Z</time>
      </trkpt>
      <trkpt lat="42.89213" lon="0.19878">
        <ele>2100.62</ele>
        <time>2016-07-05T12:52:23Z</time>
      </trkpt>
      <trkpt lat="42.89217" lon="0.19874">
        <ele>2099.66</ele>
        <time>2016-07-05T12:52:28Z</time>
      </trkpt>
      <trkpt lat="42.8922" lon="0.19856">
        <ele>2098.21</ele>
        <time>2016-07-05T12:52:44Z</time>
      </trkpt>
      <trkpt lat="42.89228" lon="0.19848">
        <ele>2095.81</ele>
        <time>2016-07-05T12:52:58Z</time>
      </trkpt>
      <trkpt lat="42.89237" lon="0.19843">
        <ele>2093.41</ele>
        <time>2016-07-05T12:53:12Z</time>
      </trkpt>
      <trkpt lat="42.89235" lon="0.19836">
        <ele>2091.97</ele>
        <time>2016-07-05T12:53:26Z</time>
      </trkpt>
      <trkpt lat="42.89235" lon="0.19836">
        <ele>2091.97</ele>
        <time>2016-07-05T12:53:27Z</time>
      </trkpt>
      <trkpt lat="42.89236" lon="0.1983">
        <ele>2091</ele>
        <time>2016-07-05T12:53:31Z</time>
      </trkpt>
      <trkpt lat="42.89247" lon="0.19803">
        <ele>2090.04</ele>
        <time>2016-07-05T12:53:51Z</time>
      </trkpt>
      <trkpt lat="42.89257" lon="0.19791">
        <ele>2088.6</ele>
        <time>2016-07-05T12:54:05Z</time>
      </trkpt>
      <trkpt lat="42.89261" lon="0.19791">
        <ele>2087.64</ele>
        <time>2016-07-05T12:54:08Z</time>
      </trkpt>
      <trkpt lat="42.89269" lon="0.19785">
        <ele>2087.64</ele>
        <time>2016-07-05T12:54:20Z</time>
      </trkpt>
      <trkpt lat="42.89274" lon="0.19782">
        <ele>2086.68</ele>
        <time>2016-07-05T12:54:28Z</time>
      </trkpt>
      <trkpt lat="42.89279" lon="0.19756">
        <ele>2087.16</ele>
        <time>2016-07-05T12:54:45Z</time>
      </trkpt>
      <trkpt lat="42.89289" lon="0.1975">
        <ele>2086.2</ele>
        <time>2016-07-05T12:54:58Z</time>
      </trkpt>
      <trkpt lat="42.89292" lon="0.1974">
        <ele>2085.24</ele>
        <time>2016-07-05T12:55:05Z</time>
      </trkpt>
      <trkpt lat="42.89304" lon="0.19735">
        <ele>2082.35</ele>
        <time>2016-07-05T12:55:17Z</time>
      </trkpt>
      <trkpt lat="42.89313" lon="0.19742">
        <ele>2079.47</ele>
        <time>2016-07-05T12:55:29Z</time>
      </trkpt>
      <trkpt lat="42.89314" lon="0.19743">
        <ele>2078.99</ele>
        <time>2016-07-05T12:55:30Z</time>
      </trkpt>
      <trkpt lat="42.89315" lon="0.19747">
        <ele>2078.99</ele>
        <time>2016-07-05T12:55:33Z</time>
      </trkpt>
      <trkpt lat="42.89324" lon="0.19751">
        <ele>2075.14</ele>
        <time>2016-07-05T12:55:46Z</time>
      </trkpt>
      <trkpt lat="42.89328" lon="0.19748">
        <ele>2072.74</ele>
        <time>2016-07-05T12:55:57Z</time>
      </trkpt>
      <trkpt lat="42.89328" lon="0.1974">
        <ele>2072.74</ele>
        <time>2016-07-05T12:56:07Z</time>
      </trkpt>
      <trkpt lat="42.8933" lon="0.19738">
        <ele>2071.3</ele>
        <time>2016-07-05T12:56:10Z</time>
      </trkpt>
      <trkpt lat="42.89331" lon="0.19738">
        <ele>2070.82</ele>
        <time>2016-07-05T12:56:11Z</time>
      </trkpt>
      <trkpt lat="42.89335" lon="0.1974">
        <ele>2069.38</ele>
        <time>2016-07-05T12:56:15Z</time>
      </trkpt>
      <trkpt lat="42.8934" lon="0.19741">
        <ele>2068.41</ele>
        <time>2016-07-05T12:56:19Z</time>
      </trkpt>
      <trkpt lat="42.89353" lon="0.19741">
        <ele>2066.97</ele>
        <time>2016-07-05T12:56:31Z</time>
      </trkpt>
      <trkpt lat="42.89357" lon="0.1974">
        <ele>2066.49</ele>
        <time>2016-07-05T12:56:34Z</time>
      </trkpt>
      <trkpt lat="42.89367" lon="0.19726">
        <ele>2066.97</ele>
        <time>2016-07-05T12:56:49Z</time>
      </trkpt>
      <trkpt lat="42.89376" lon="0.19726">
        <ele>2067.93</ele>
        <time>2016-07-05T12:57:00Z</time>
      </trkpt>
      <trkpt lat="42.89385" lon="0.19725">
        <ele>2066.01</ele>
        <time>2016-07-05T12:57:13Z</time>
      </trkpt>
      <trkpt lat="42.89392" lon="0.19724">
        <ele>2064.09</ele>
        <time>2016-07-05T12:57:26Z</time>
      </trkpt>
      <trkpt lat="42.89401" lon="0.19718">
        <ele>2062.17</ele>
        <time>2016-07-05T12:57:38Z</time>
      </trkpt>
      <trkpt lat="42.8941" lon="0.19714">
        <ele>2061.2</ele>
        <time>2016-07-05T12:57:49Z</time>
      </trkpt>
      <trkpt lat="42.89417" lon="0.19722">
        <ele>2059.76</ele>
        <time>2016-07-05T12:58:03Z</time>
      </trkpt>
      <trkpt lat="42.89423" lon="0.19729">
        <ele>2057.84</ele>
        <time>2016-07-05T12:58:15Z</time>
      </trkpt>
      <trkpt lat="42.89427" lon="0.1973">
        <ele>2057.84</ele>
        <time>2016-07-05T12:58:19Z</time>
      </trkpt>
      <trkpt lat="42.89436" lon="0.19737">
        <ele>2057.84</ele>
        <time>2016-07-05T12:58:32Z</time>
      </trkpt>
      <trkpt lat="42.89443" lon="0.1975">
        <ele>2055.44</ele>
        <time>2016-07-05T12:58:46Z</time>
      </trkpt>
      <trkpt lat="42.89444" lon="0.19751">
        <ele>2055.44</ele>
        <time>2016-07-05T12:58:48Z</time>
      </trkpt>
      <trkpt lat="42.89448" lon="0.19757">
        <ele>2054.96</ele>
        <time>2016-07-05T12:58:54Z</time>
      </trkpt>
      <trkpt lat="42.89454" lon="0.19771">
        <ele>2052.07</ele>
        <time>2016-07-05T12:59:10Z</time>
      </trkpt>
      <trkpt lat="42.89463" lon="0.19775">
        <ele>2051.59</ele>
        <time>2016-07-05T12:59:21Z</time>
      </trkpt>
      <trkpt lat="42.89472" lon="0.19784">
        <ele>2051.59</ele>
        <time>2016-07-05T12:59:33Z</time>
      </trkpt>
      <trkpt lat="42.89475" lon="0.19789">
        <ele>2051.59</ele>
        <time>2016-07-05T12:59:47Z</time>
      </trkpt>
      <trkpt lat="42.89474" lon="0.19789">
        <ele>2051.59</ele>
        <time>2016-07-05T13:00:03Z</time>
      </trkpt>
      <trkpt lat="42.89474" lon="0.1979">
        <ele>2051.11</ele>
        <time>2016-07-05T13:00:26Z</time>
      </trkpt>
      <trkpt lat="42.89475" lon="0.19787">
        <ele>2051.11</ele>
        <time>2016-07-05T13:00:50Z</time>
      </trkpt>
      <trkpt lat="42.89477" lon="0.19789">
        <ele>2051.59</ele>
        <time>2016-07-05T13:01:14Z</time>
      </trkpt>
      <trkpt lat="42.89477" lon="0.19791">
        <ele>2051.11</ele>
        <time>2016-07-05T13:01:30Z</time>
      </trkpt>
      <trkpt lat="42.89476" lon="0.19786">
        <ele>2051.59</ele>
        <time>2016-07-05T13:01:51Z</time>
      </trkpt>
      <trkpt lat="42.89478" lon="0.19787">
        <ele>2051.59</ele>
        <time>2016-07-05T13:02:09Z</time>
      </trkpt>
      <trkpt lat="42.89476" lon="0.19791">
        <ele>2051.11</ele>
        <time>2016-07-05T13:02:25Z</time>
      </trkpt>
      <trkpt lat="42.89477" lon="0.19792">
        <ele>2051.11</ele>
        <time>2016-07-05T13:02:49Z</time>
      </trkpt>
      <trkpt lat="42.89478" lon="0.19791">
        <ele>2051.11</ele>
        <time>2016-07-05T13:03:21Z</time>
      </trkpt>
      <trkpt lat="42.89478" lon="0.19794">
        <ele>2051.11</ele>
        <time>2016-07-05T13:03:55Z</time>
      </trkpt>
      <trkpt lat="42.89481" lon="0.19795">
        <ele>2051.59</ele>
        <time>2016-07-05T13:04:03Z</time>
      </trkpt>
      <trkpt lat="42.89485" lon="0.1981">
        <ele>2050.63</ele>
        <time>2016-07-05T13:04:18Z</time>
      </trkpt>
      <trkpt lat="42.89494" lon="0.19815">
        <ele>2052.07</ele>
        <time>2016-07-05T13:04:31Z</time>
      </trkpt>
      <trkpt lat="42.89504" lon="0.19818">
        <ele>2050.63</ele>
        <time>2016-07-05T13:04:43Z</time>
      </trkpt>
      <trkpt lat="42.89512" lon="0.1982">
        <ele>2050.15</ele>
        <time>2016-07-05T13:04:51Z</time>
      </trkpt>
      <trkpt lat="42.8952" lon="0.19825">
        <ele>2050.63</ele>
        <time>2016-07-05T13:05:01Z</time>
      </trkpt>
      <trkpt lat="42.89525" lon="0.1983">
        <ele>2050.63</ele>
        <time>2016-07-05T13:05:12Z</time>
      </trkpt>
      <trkpt lat="42.89529" lon="0.19836">
        <ele>2048.71</ele>
        <time>2016-07-05T13:05:22Z</time>
      </trkpt>
      <trkpt lat="42.89539" lon="0.19838">
        <ele>2049.19</ele>
        <time>2016-07-05T13:05:36Z</time>
      </trkpt>
      <trkpt lat="42.89541" lon="0.1984">
        <ele>2049.67</ele>
        <time>2016-07-05T13:05:39Z</time>
      </trkpt>
      <trkpt lat="42.89543" lon="0.19842">
        <ele>2049.67</ele>
        <time>2016-07-05T13:05:41Z</time>
      </trkpt>
      <trkpt lat="42.89549" lon="0.19848">
        <ele>2050.15</ele>
        <time>2016-07-05T13:05:53Z</time>
      </trkpt>
      <trkpt lat="42.89552" lon="0.19847">
        <ele>2050.63</ele>
        <time>2016-07-05T13:05:56Z</time>
      </trkpt>
      <trkpt lat="42.89561" lon="0.19854">
        <ele>2049.67</ele>
        <time>2016-07-05T13:06:10Z</time>
      </trkpt>
      <trkpt lat="42.89572" lon="0.19857">
        <ele>2050.15</ele>
        <time>2016-07-05T13:06:23Z</time>
      </trkpt>
      <trkpt lat="42.89582" lon="0.19856">
        <ele>2050.63</ele>
        <time>2016-07-05T13:06:35Z</time>
      </trkpt>
      <trkpt lat="42.89593" lon="0.19863">
        <ele>2049.67</ele>
        <time>2016-07-05T13:06:48Z</time>
      </trkpt>
      <trkpt lat="42.89596" lon="0.19866">
        <ele>2049.67</ele>
        <time>2016-07-05T13:06:53Z</time>
      </trkpt>
      <trkpt lat="42.89602" lon="0.19874">
        <ele>2049.19</ele>
        <time>2016-07-05T13:07:04Z</time>
      </trkpt>
      <trkpt lat="42.89612" lon="0.19883">
        <ele>2049.19</ele>
        <time>2016-07-05T13:07:19Z</time>
      </trkpt>
      <trkpt lat="42.89619" lon="0.19895">
        <ele>2049.67</ele>
        <time>2016-07-05T13:07:33Z</time>
      </trkpt>
      <trkpt lat="42.89623" lon="0.19903">
        <ele>2050.15</ele>
        <time>2016-07-05T13:07:43Z</time>
      </trkpt>
      <trkpt lat="42.89625" lon="0.19914">
        <ele>2049.67</ele>
        <time>2016-07-05T13:07:59Z</time>
      </trkpt>
      <trkpt lat="42.89626" lon="0.19919">
        <ele>2049.67</ele>
        <time>2016-07-05T13:08:17Z</time>
      </trkpt>
      <trkpt lat="42.89625" lon="0.19919">
        <ele>2049.67</ele>
        <time>2016-07-05T13:08:29Z</time>
      </trkpt>
      <trkpt lat="42.89625" lon="0.19918">
        <ele>2049.67</ele>
        <time>2016-07-05T13:09:02Z</time>
      </trkpt>
      <trkpt lat="42.89632" lon="0.1993">
        <ele>2049.19</ele>
        <time>2016-07-05T13:09:13Z</time>
      </trkpt>
      <trkpt lat="42.89641" lon="0.19946">
        <ele>2050.15</ele>
        <time>2016-07-05T13:09:30Z</time>
      </trkpt>
      <trkpt lat="42.89642" lon="0.19949">
        <ele>2050.63</ele>
        <time>2016-07-05T13:09:34Z</time>
      </trkpt>
      <trkpt lat="42.89644" lon="0.1997">
        <ele>2048.71</ele>
        <time>2016-07-05T13:09:51Z</time>
      </trkpt>
      <trkpt lat="42.89644" lon="0.19971">
        <ele>2049.19</ele>
        <time>2016-07-05T13:09:52Z</time>
      </trkpt>
      <trkpt lat="42.89654" lon="0.19986">
        <ele>2049.19</ele>
        <time>2016-07-05T13:10:07Z</time>
      </trkpt>
      <trkpt lat="42.8966" lon="0.19998">
        <ele>2048.71</ele>
        <time>2016-07-05T13:10:24Z</time>
      </trkpt>
      <trkpt lat="42.89658" lon="0.19995">
        <ele>2047.75</ele>
        <time>2016-07-05T13:10:37Z</time>
      </trkpt>
      <trkpt lat="42.89656" lon="0.20003">
        <ele>2046.78</ele>
        <time>2016-07-05T13:10:59Z</time>
      </trkpt>
      <trkpt lat="42.89655" lon="0.2001">
        <ele>2044.86</ele>
        <time>2016-07-05T13:11:10Z</time>
      </trkpt>
      <trkpt lat="42.89656" lon="0.20015">
        <ele>2044.38</ele>
        <time>2016-07-05T13:11:13Z</time>
      </trkpt>
      <trkpt lat="42.8966" lon="0.20022">
        <ele>2043.42</ele>
        <time>2016-07-05T13:11:20Z</time>
      </trkpt>
      <trkpt lat="42.89663" lon="0.20037">
        <ele>2039.57</ele>
        <time>2016-07-05T13:11:35Z</time>
      </trkpt>
      <trkpt lat="42.89667" lon="0.20045">
        <ele>2038.13</ele>
        <time>2016-07-05T13:11:44Z</time>
      </trkpt>
      <trkpt lat="42.89674" lon="0.20042">
        <ele>2037.17</ele>
        <time>2016-07-05T13:11:55Z</time>
      </trkpt>
      <trkpt lat="42.89679" lon="0.20034">
        <ele>2037.17</ele>
        <time>2016-07-05T13:12:03Z</time>
      </trkpt>
      <trkpt lat="42.8969" lon="0.20032">
        <ele>2036.21</ele>
        <time>2016-07-05T13:12:14Z</time>
      </trkpt>
      <trkpt lat="42.89704" lon="0.20024">
        <ele>2034.29</ele>
        <time>2016-07-05T13:12:29Z</time>
      </trkpt>
      <trkpt lat="42.89712" lon="0.20023">
        <ele>2033.33</ele>
        <time>2016-07-05T13:12:36Z</time>
      </trkpt>
      <trkpt lat="42.89714" lon="0.20022">
        <ele>2033.33</ele>
        <time>2016-07-05T13:12:39Z</time>
      </trkpt>
      <trkpt lat="42.89716" lon="0.20021">
        <ele>2032.84</ele>
        <time>2016-07-05T13:12:41Z</time>
      </trkpt>
      <trkpt lat="42.89733" lon="0.2001">
        <ele>2031.88</ele>
        <time>2016-07-05T13:12:58Z</time>
      </trkpt>
      <trkpt lat="42.89747" lon="0.20014">
        <ele>2031.88</ele>
        <time>2016-07-05T13:13:10Z</time>
      </trkpt>
      <trkpt lat="42.89751" lon="0.20015">
        <ele>2031.4</ele>
        <time>2016-07-05T13:13:14Z</time>
      </trkpt>
      <trkpt lat="42.89755" lon="0.20023">
        <ele>2028.04</ele>
        <time>2016-07-05T13:13:24Z</time>
      </trkpt>
      <trkpt lat="42.89759" lon="0.20026">
        <ele>2026.12</ele>
        <time>2016-07-05T13:13:31Z</time>
      </trkpt>
      <trkpt lat="42.89769" lon="0.20033">
        <ele>2022.75</ele>
        <time>2016-07-05T13:13:43Z</time>
      </trkpt>
      <trkpt lat="42.8978" lon="0.2004">
        <ele>2019.39</ele>
        <time>2016-07-05T13:13:56Z</time>
      </trkpt>
      <trkpt lat="42.89791" lon="0.20048">
        <ele>2016.02</ele>
        <time>2016-07-05T13:14:08Z</time>
      </trkpt>
      <trkpt lat="42.89809" lon="0.20054">
        <ele>2013.14</ele>
        <time>2016-07-05T13:14:26Z</time>
      </trkpt>
      <trkpt lat="42.8982" lon="0.20055">
        <ele>2010.73</ele>
        <time>2016-07-05T13:14:37Z</time>
      </trkpt>
      <trkpt lat="42.89832" lon="0.20059">
        <ele>2007.85</ele>
        <time>2016-07-05T13:14:48Z</time>
      </trkpt>
      <trkpt lat="42.89836" lon="0.20061">
        <ele>2006.41</ele>
        <time>2016-07-05T13:14:53Z</time>
      </trkpt>
      <trkpt lat="42.89844" lon="0.20063">
        <ele>2003.52</ele>
        <time>2016-07-05T13:15:02Z</time>
      </trkpt>
      <trkpt lat="42.89861" lon="0.20067">
        <ele>2000.16</ele>
        <time>2016-07-05T13:15:22Z</time>
      </trkpt>
      <trkpt lat="42.8987" lon="0.20063">
        <ele>2000.64</ele>
        <time>2016-07-05T13:15:36Z</time>
      </trkpt>
      <trkpt lat="42.89876" lon="0.20065">
        <ele>1998.24</ele>
        <time>2016-07-05T13:15:48Z</time>
      </trkpt>
      <trkpt lat="42.89877" lon="0.20065">
        <ele>1997.76</ele>
        <time>2016-07-05T13:15:50Z</time>
      </trkpt>
      <trkpt lat="42.8988" lon="0.20072">
        <ele>1994.39</ele>
        <time>2016-07-05T13:16:02Z</time>
      </trkpt>
      <trkpt lat="42.89879" lon="0.20069">
        <ele>1994.87</ele>
        <time>2016-07-05T13:16:24Z</time>
      </trkpt>
      <trkpt lat="42.89879" lon="0.20074">
        <ele>1993.91</ele>
        <time>2016-07-05T13:16:55Z</time>
      </trkpt>
      <trkpt lat="42.89878" lon="0.20079">
        <ele>1992.47</ele>
        <time>2016-07-05T13:17:01Z</time>
      </trkpt>
      <trkpt lat="42.89876" lon="0.20089">
        <ele>1990.55</ele>
        <time>2016-07-05T13:17:10Z</time>
      </trkpt>
      <trkpt lat="42.89876" lon="0.20103">
        <ele>1987.18</ele>
        <time>2016-07-05T13:17:21Z</time>
      </trkpt>
      <trkpt lat="42.89876" lon="0.20104">
        <ele>1986.7</ele>
        <time>2016-07-05T13:17:22Z</time>
      </trkpt>
      <trkpt lat="42.89873" lon="0.20108">
        <ele>1985.74</ele>
        <time>2016-07-05T13:17:26Z</time>
      </trkpt>
      <trkpt lat="42.89872" lon="0.20114">
        <ele>1984.3</ele>
        <time>2016-07-05T13:17:31Z</time>
      </trkpt>
      <trkpt lat="42.89868" lon="0.20121">
        <ele>1982.38</ele>
        <time>2016-07-05T13:17:39Z</time>
      </trkpt>
      <trkpt lat="42.8986" lon="0.20132">
        <ele>1979.01</ele>
        <time>2016-07-05T13:17:53Z</time>
      </trkpt>
      <trkpt lat="42.8986" lon="0.20136">
        <ele>1978.53</ele>
        <time>2016-07-05T13:17:57Z</time>
      </trkpt>
      <trkpt lat="42.8986" lon="0.2014">
        <ele>1977.57</ele>
        <time>2016-07-05T13:18:00Z</time>
      </trkpt>
      <trkpt lat="42.89859" lon="0.20161">
        <ele>1974.2</ele>
        <time>2016-07-05T13:18:14Z</time>
      </trkpt>
      <trkpt lat="42.8986" lon="0.20163">
        <ele>1974.2</ele>
        <time>2016-07-05T13:18:16Z</time>
      </trkpt>
      <trkpt lat="42.89868" lon="0.20189">
        <ele>1972.76</ele>
        <time>2016-07-05T13:18:34Z</time>
      </trkpt>
      <trkpt lat="42.89882" lon="0.20208">
        <ele>1970.36</ele>
        <time>2016-07-05T13:18:51Z</time>
      </trkpt>
      <trkpt lat="42.89893" lon="0.20226">
        <ele>1969.4</ele>
        <time>2016-07-05T13:19:06Z</time>
      </trkpt>
      <trkpt lat="42.89894" lon="0.20232">
        <ele>1969.4</ele>
        <time>2016-07-05T13:19:19Z</time>
      </trkpt>
      <trkpt lat="42.89892" lon="0.20232">
        <ele>1969.4</ele>
        <time>2016-07-05T13:19:44Z</time>
      </trkpt>
      <trkpt lat="42.89897" lon="0.20236">
        <ele>1968.92</ele>
        <time>2016-07-05T13:19:54Z</time>
      </trkpt>
      <trkpt lat="42.89912" lon="0.20249">
        <ele>1968.44</ele>
        <time>2016-07-05T13:20:09Z</time>
      </trkpt>
      <trkpt lat="42.89928" lon="0.20266">
        <ele>1966.03</ele>
        <time>2016-07-05T13:20:25Z</time>
      </trkpt>
      <trkpt lat="42.89934" lon="0.2027">
        <ele>1966.51</ele>
        <time>2016-07-05T13:20:31Z</time>
      </trkpt>
      <trkpt lat="42.89939" lon="0.20272">
        <ele>1966.51</ele>
        <time>2016-07-05T13:20:35Z</time>
      </trkpt>
      <trkpt lat="42.89949" lon="0.20297">
        <ele>1964.59</ele>
        <time>2016-07-05T13:20:52Z</time>
      </trkpt>
      <trkpt lat="42.89954" lon="0.2032">
        <ele>1961.23</ele>
        <time>2016-07-05T13:21:06Z</time>
      </trkpt>
      <trkpt lat="42.89957" lon="0.20338">
        <ele>1957.86</ele>
        <time>2016-07-05T13:21:18Z</time>
      </trkpt>
      <trkpt lat="42.89962" lon="0.20359">
        <ele>1954.98</ele>
        <time>2016-07-05T13:21:34Z</time>
      </trkpt>
      <trkpt lat="42.89962" lon="0.20362">
        <ele>1954.98</ele>
        <time>2016-07-05T13:21:56Z</time>
      </trkpt>
      <trkpt lat="42.89961" lon="0.20357">
        <ele>1954.98</ele>
        <time>2016-07-05T13:22:15Z</time>
      </trkpt>
      <trkpt lat="42.8996" lon="0.20356">
        <ele>1954.02</ele>
        <time>2016-07-05T13:22:29Z</time>
      </trkpt>
      <trkpt lat="42.89958" lon="0.20355">
        <ele>1954.98</ele>
        <time>2016-07-05T13:22:45Z</time>
      </trkpt>
      <trkpt lat="42.89959" lon="0.20355">
        <ele>1954.5</ele>
        <time>2016-07-05T13:23:07Z</time>
      </trkpt>
      <trkpt lat="42.89956" lon="0.20356">
        <ele>1954.5</ele>
        <time>2016-07-05T13:23:22Z</time>
      </trkpt>
      <trkpt lat="42.8996" lon="0.20358">
        <ele>1954.5</ele>
        <time>2016-07-05T13:23:25Z</time>
      </trkpt>
      <trkpt lat="42.89967" lon="0.20375">
        <ele>1951.61</ele>
        <time>2016-07-05T13:23:36Z</time>
      </trkpt>
      <trkpt lat="42.89969" lon="0.20379">
        <ele>1951.61</ele>
        <time>2016-07-05T13:23:39Z</time>
      </trkpt>
      <trkpt lat="42.89975" lon="0.20402">
        <ele>1947.29</ele>
        <time>2016-07-05T13:23:56Z</time>
      </trkpt>
      <trkpt lat="42.89976" lon="0.20404">
        <ele>1947.77</ele>
        <time>2016-07-05T13:23:57Z</time>
      </trkpt>
      <trkpt lat="42.89979" lon="0.20408">
        <ele>1946.81</ele>
        <time>2016-07-05T13:24:00Z</time>
      </trkpt>
      <trkpt lat="42.89982" lon="0.20413">
        <ele>1945.36</ele>
        <time>2016-07-05T13:24:06Z</time>
      </trkpt>
      <trkpt lat="42.89986" lon="0.20419">
        <ele>1943.92</ele>
        <time>2016-07-05T13:24:12Z</time>
      </trkpt>
      <trkpt lat="42.89998" lon="0.20433">
        <ele>1941.04</ele>
        <time>2016-07-05T13:24:27Z</time>
      </trkpt>
      <trkpt lat="42.90008" lon="0.20433">
        <ele>1938.16</ele>
        <time>2016-07-05T13:24:37Z</time>
      </trkpt>
      <trkpt lat="42.90015" lon="0.20435">
        <ele>1935.75</ele>
        <time>2016-07-05T13:24:47Z</time>
      </trkpt>
      <trkpt lat="42.9002" lon="0.20436">
        <ele>1933.83</ele>
        <time>2016-07-05T13:24:54Z</time>
      </trkpt>
      <trkpt lat="42.90029" lon="0.20437">
        <ele>1931.91</ele>
        <time>2016-07-05T13:25:03Z</time>
      </trkpt>
      <trkpt lat="42.90038" lon="0.20452">
        <ele>1928.54</ele>
        <time>2016-07-05T13:25:17Z</time>
      </trkpt>
      <trkpt lat="42.90046" lon="0.20464">
        <ele>1925.66</ele>
        <time>2016-07-05T13:25:28Z</time>
      </trkpt>
      <trkpt lat="42.90053" lon="0.20472">
        <ele>1924.22</ele>
        <time>2016-07-05T13:25:36Z</time>
      </trkpt>
      <trkpt lat="42.90053" lon="0.20475">
        <ele>1922.77</ele>
        <time>2016-07-05T13:25:41Z</time>
      </trkpt>
      <trkpt lat="42.90054" lon="0.20477">
        <ele>1922.77</ele>
        <time>2016-07-05T13:25:43Z</time>
      </trkpt>
      <trkpt lat="42.90058" lon="0.20488">
        <ele>1921.33</ele>
        <time>2016-07-05T13:25:52Z</time>
      </trkpt>
      <trkpt lat="42.90064" lon="0.2049">
        <ele>1919.89</ele>
        <time>2016-07-05T13:25:56Z</time>
      </trkpt>
      <trkpt lat="42.90072" lon="0.20502">
        <ele>1917.01</ele>
        <time>2016-07-05T13:26:09Z</time>
      </trkpt>
      <trkpt lat="42.90077" lon="0.20512">
        <ele>1914.12</ele>
        <time>2016-07-05T13:26:18Z</time>
      </trkpt>
      <trkpt lat="42.90078" lon="0.20514">
        <ele>1913.16</ele>
        <time>2016-07-05T13:26:21Z</time>
      </trkpt>
      <trkpt lat="42.90079" lon="0.2052">
        <ele>1912.2</ele>
        <time>2016-07-05T13:26:25Z</time>
      </trkpt>
      <trkpt lat="42.90084" lon="0.20527">
        <ele>1910.76</ele>
        <time>2016-07-05T13:26:33Z</time>
      </trkpt>
      <trkpt lat="42.90088" lon="0.20534">
        <ele>1908.35</ele>
        <time>2016-07-05T13:26:38Z</time>
      </trkpt>
      <trkpt lat="42.90089" lon="0.20539">
        <ele>1906.43</ele>
        <time>2016-07-05T13:26:42Z</time>
      </trkpt>
      <trkpt lat="42.90093" lon="0.20548">
        <ele>1903.55</ele>
        <time>2016-07-05T13:26:50Z</time>
      </trkpt>
      <trkpt lat="42.90097" lon="0.20551">
        <ele>1902.11</ele>
        <time>2016-07-05T13:26:55Z</time>
      </trkpt>
      <trkpt lat="42.90102" lon="0.20564">
        <ele>1898.74</ele>
        <time>2016-07-05T13:27:07Z</time>
      </trkpt>
      <trkpt lat="42.90108" lon="0.20578">
        <ele>1895.38</ele>
        <time>2016-07-05T13:27:18Z</time>
      </trkpt>
      <trkpt lat="42.90114" lon="0.20593">
        <ele>1892.01</ele>
        <time>2016-07-05T13:27:30Z</time>
      </trkpt>
      <trkpt lat="42.90119" lon="0.20609">
        <ele>1889.13</ele>
        <time>2016-07-05T13:27:41Z</time>
      </trkpt>
      <trkpt lat="42.90123" lon="0.20619">
        <ele>1886.72</ele>
        <time>2016-07-05T13:27:49Z</time>
      </trkpt>
      <trkpt lat="42.9013" lon="0.20634">
        <ele>1882.88</ele>
        <time>2016-07-05T13:28:01Z</time>
      </trkpt>
      <trkpt lat="42.90136" lon="0.2065">
        <ele>1880</ele>
        <time>2016-07-05T13:28:12Z</time>
      </trkpt>
      <trkpt lat="42.90141" lon="0.20663">
        <ele>1877.11</ele>
        <time>2016-07-05T13:28:22Z</time>
      </trkpt>
      <trkpt lat="42.9015" lon="0.20681">
        <ele>1873.75</ele>
        <time>2016-07-05T13:28:36Z</time>
      </trkpt>
      <trkpt lat="42.90153" lon="0.20696">
        <ele>1870.86</ele>
        <time>2016-07-05T13:28:48Z</time>
      </trkpt>
      <trkpt lat="42.90154" lon="0.20697">
        <ele>1870.86</ele>
        <time>2016-07-05T13:28:49Z</time>
      </trkpt>
      <trkpt lat="42.90162" lon="0.20715">
        <ele>1867.02</ele>
        <time>2016-07-05T13:29:03Z</time>
      </trkpt>
      <trkpt lat="42.90165" lon="0.2072">
        <ele>1866.06</ele>
        <time>2016-07-05T13:29:07Z</time>
      </trkpt>
      <trkpt lat="42.90168" lon="0.2073">
        <ele>1863.65</ele>
        <time>2016-07-05T13:29:16Z</time>
      </trkpt>
      <trkpt lat="42.90175" lon="0.20739">
        <ele>1860.77</ele>
        <time>2016-07-05T13:29:29Z</time>
      </trkpt>
      <trkpt lat="42.90181" lon="0.20745">
        <ele>1857.89</ele>
        <time>2016-07-05T13:29:41Z</time>
      </trkpt>
      <trkpt lat="42.90185" lon="0.20751">
        <ele>1854.52</ele>
        <time>2016-07-05T13:29:53Z</time>
      </trkpt>
      <trkpt lat="42.90176" lon="0.20757">
        <ele>1852.12</ele>
        <time>2016-07-05T13:30:05Z</time>
      </trkpt>
      <trkpt lat="42.90169" lon="0.20762">
        <ele>1849.71</ele>
        <time>2016-07-05T13:30:17Z</time>
      </trkpt>
      <trkpt lat="42.90171" lon="0.20771">
        <ele>1847.31</ele>
        <time>2016-07-05T13:30:30Z</time>
      </trkpt>
      <trkpt lat="42.90173" lon="0.20781">
        <ele>1843.95</ele>
        <time>2016-07-05T13:30:40Z</time>
      </trkpt>
      <trkpt lat="42.90175" lon="0.20786">
        <ele>1842.5</ele>
        <time>2016-07-05T13:30:45Z</time>
      </trkpt>
      <trkpt lat="42.9018" lon="0.20795">
        <ele>1838.66</ele>
        <time>2016-07-05T13:30:58Z</time>
      </trkpt>
      <trkpt lat="42.90183" lon="0.20794">
        <ele>1837.7</ele>
        <time>2016-07-05T13:31:02Z</time>
      </trkpt>
      <trkpt lat="42.9019" lon="0.208">
        <ele>1834.33</ele>
        <time>2016-07-05T13:31:14Z</time>
      </trkpt>
      <trkpt lat="42.90197" lon="0.20803">
        <ele>1831.45</ele>
        <time>2016-07-05T13:31:27Z</time>
      </trkpt>
      <trkpt lat="42.90207" lon="0.20804">
        <ele>1828.56</ele>
        <time>2016-07-05T13:31:39Z</time>
      </trkpt>
      <trkpt lat="42.90215" lon="0.20812">
        <ele>1825.2</ele>
        <time>2016-07-05T13:31:49Z</time>
      </trkpt>
      <trkpt lat="42.90219" lon="0.20821">
        <ele>1822.32</ele>
        <time>2016-07-05T13:31:58Z</time>
      </trkpt>
      <trkpt lat="42.90218" lon="0.20828">
        <ele>1819.91</ele>
        <time>2016-07-05T13:32:12Z</time>
      </trkpt>
      <trkpt lat="42.90214" lon="0.20828">
        <ele>1819.91</ele>
        <time>2016-07-05T13:32:27Z</time>
      </trkpt>
      <trkpt lat="42.90219" lon="0.20837">
        <ele>1817.99</ele>
        <time>2016-07-05T13:32:46Z</time>
      </trkpt>
      <trkpt lat="42.90226" lon="0.20844">
        <ele>1814.63</ele>
        <time>2016-07-05T13:32:56Z</time>
      </trkpt>
      <trkpt lat="42.90227" lon="0.20845">
        <ele>1813.66</ele>
        <time>2016-07-05T13:32:58Z</time>
      </trkpt>
      <trkpt lat="42.90233" lon="0.20846">
        <ele>1810.3</ele>
        <time>2016-07-05T13:33:09Z</time>
      </trkpt>
      <trkpt lat="42.90235" lon="0.20845">
        <ele>1809.82</ele>
        <time>2016-07-05T13:33:12Z</time>
      </trkpt>
      <trkpt lat="42.9024" lon="0.20845">
        <ele>1808.38</ele>
        <time>2016-07-05T13:33:16Z</time>
      </trkpt>
      <trkpt lat="42.90252" lon="0.20841">
        <ele>1805.97</ele>
        <time>2016-07-05T13:33:31Z</time>
      </trkpt>
      <trkpt lat="42.90253" lon="0.20834">
        <ele>1804.05</ele>
        <time>2016-07-05T13:33:42Z</time>
      </trkpt>
      <trkpt lat="42.90259" lon="0.20838">
        <ele>1801.65</ele>
        <time>2016-07-05T13:33:56Z</time>
      </trkpt>
      <trkpt lat="42.90264" lon="0.20839">
        <ele>1799.24</ele>
        <time>2016-07-05T13:34:09Z</time>
      </trkpt>
      <trkpt lat="42.90266" lon="0.20839">
        <ele>1797.32</ele>
        <time>2016-07-05T13:34:23Z</time>
      </trkpt>
      <trkpt lat="42.9027" lon="0.20841">
        <ele>1795.4</ele>
        <time>2016-07-05T13:34:40Z</time>
      </trkpt>
      <trkpt lat="42.90275" lon="0.20844">
        <ele>1792.03</ele>
        <time>2016-07-05T13:34:51Z</time>
      </trkpt>
      <trkpt lat="42.90281" lon="0.20849">
        <ele>1789.63</ele>
        <time>2016-07-05T13:35:03Z</time>
      </trkpt>
      <trkpt lat="42.90283" lon="0.20854">
        <ele>1786.75</ele>
        <time>2016-07-05T13:35:15Z</time>
      </trkpt>
      <trkpt lat="42.90288" lon="0.20851">
        <ele>1784.34</ele>
        <time>2016-07-05T13:35:25Z</time>
      </trkpt>
      <trkpt lat="42.90288" lon="0.2086">
        <ele>1781.94</ele>
        <time>2016-07-05T13:35:37Z</time>
      </trkpt>
      <trkpt lat="42.90289" lon="0.20861">
        <ele>1781.94</ele>
        <time>2016-07-05T13:35:38Z</time>
      </trkpt>
      <trkpt lat="42.90291" lon="0.20862">
        <ele>1781.46</ele>
        <time>2016-07-05T13:35:40Z</time>
      </trkpt>
      <trkpt lat="42.90304" lon="0.20864">
        <ele>1778.58</ele>
        <time>2016-07-05T13:35:54Z</time>
      </trkpt>
      <trkpt lat="42.90312" lon="0.20869">
        <ele>1778.58</ele>
        <time>2016-07-05T13:36:07Z</time>
      </trkpt>
      <trkpt lat="42.90315" lon="0.2087">
        <ele>1779.06</ele>
        <time>2016-07-05T13:36:12Z</time>
      </trkpt>
      <trkpt lat="42.90323" lon="0.2088">
        <ele>1780.02</ele>
        <time>2016-07-05T13:36:25Z</time>
      </trkpt>
      <trkpt lat="42.90326" lon="0.20882">
        <ele>1780.02</ele>
        <time>2016-07-05T13:36:37Z</time>
      </trkpt>
      <trkpt lat="42.90325" lon="0.20879">
        <ele>1780.02</ele>
        <time>2016-07-05T13:36:52Z</time>
      </trkpt>
      <trkpt lat="42.90325" lon="0.20878">
        <ele>1779.54</ele>
        <time>2016-07-05T13:37:00Z</time>
      </trkpt>
      <trkpt lat="42.90325" lon="0.20876">
        <ele>1779.06</ele>
        <time>2016-07-05T13:37:12Z</time>
      </trkpt>
      <trkpt lat="42.90329" lon="0.20882">
        <ele>1779.06</ele>
        <time>2016-07-05T13:37:49Z</time>
      </trkpt>
      <trkpt lat="42.90324" lon="0.2088">
        <ele>1779.54</ele>
        <time>2016-07-05T13:38:06Z</time>
      </trkpt>
      <trkpt lat="42.90325" lon="0.20874">
        <ele>1779.06</ele>
        <time>2016-07-05T13:38:24Z</time>
      </trkpt>
      <trkpt lat="42.90332" lon="0.20884">
        <ele>1777.61</ele>
        <time>2016-07-05T13:38:33Z</time>
      </trkpt>
      <trkpt lat="42.90342" lon="0.20889">
        <ele>1775.21</ele>
        <time>2016-07-05T13:38:46Z</time>
      </trkpt>
      <trkpt lat="42.90351" lon="0.20894">
        <ele>1773.29</ele>
        <time>2016-07-05T13:38:57Z</time>
      </trkpt>
      <trkpt lat="42.90358" lon="0.20898">
        <ele>1771.37</ele>
        <time>2016-07-05T13:39:05Z</time>
      </trkpt>
      <trkpt lat="42.90367" lon="0.20906">
        <ele>1768.96</ele>
        <time>2016-07-05T13:39:18Z</time>
      </trkpt>
      <trkpt lat="42.90376" lon="0.20915">
        <ele>1765.6</ele>
        <time>2016-07-05T13:39:31Z</time>
      </trkpt>
      <trkpt lat="42.90378" lon="0.20916">
        <ele>1765.12</ele>
        <time>2016-07-05T13:39:33Z</time>
      </trkpt>
      <trkpt lat="42.90379" lon="0.20916">
        <ele>1765.12</ele>
        <time>2016-07-05T13:39:35Z</time>
      </trkpt>
      <trkpt lat="42.90391" lon="0.20924">
        <ele>1761.75</ele>
        <time>2016-07-05T13:39:49Z</time>
      </trkpt>
      <trkpt lat="42.90399" lon="0.20935">
        <ele>1758.39</ele>
        <time>2016-07-05T13:40:01Z</time>
      </trkpt>
      <trkpt lat="42.904" lon="0.20936">
        <ele>1758.39</ele>
        <time>2016-07-05T13:40:03Z</time>
      </trkpt>
      <trkpt lat="42.90403" lon="0.20936">
        <ele>1757.43</ele>
        <time>2016-07-05T13:40:06Z</time>
      </trkpt>
      <trkpt lat="42.90405" lon="0.20938">
        <ele>1756.47</ele>
        <time>2016-07-05T13:40:08Z</time>
      </trkpt>
      <trkpt lat="42.9041" lon="0.20941">
        <ele>1755.5</ele>
        <time>2016-07-05T13:40:15Z</time>
      </trkpt>
      <trkpt lat="42.90421" lon="0.20944">
        <ele>1753.1</ele>
        <time>2016-07-05T13:40:28Z</time>
      </trkpt>
      <trkpt lat="42.90431" lon="0.20945">
        <ele>1750.7</ele>
        <time>2016-07-05T13:40:40Z</time>
      </trkpt>
      <trkpt lat="42.90442" lon="0.20949">
        <ele>1748.29</ele>
        <time>2016-07-05T13:40:51Z</time>
      </trkpt>
      <trkpt lat="42.90447" lon="0.20955">
        <ele>1746.85</ele>
        <time>2016-07-05T13:40:59Z</time>
      </trkpt>
      <trkpt lat="42.90448" lon="0.20958">
        <ele>1746.37</ele>
        <time>2016-07-05T13:41:03Z</time>
      </trkpt>
      <trkpt lat="42.90452" lon="0.20966">
        <ele>1746.37</ele>
        <time>2016-07-05T13:41:09Z</time>
      </trkpt>
      <trkpt lat="42.90453" lon="0.20973">
        <ele>1745.89</ele>
        <time>2016-07-05T13:41:16Z</time>
      </trkpt>
      <trkpt lat="42.90457" lon="0.20977">
        <ele>1743.97</ele>
        <time>2016-07-05T13:41:20Z</time>
      </trkpt>
      <trkpt lat="42.90459" lon="0.2097">
        <ele>1742.53</ele>
        <time>2016-07-05T13:41:27Z</time>
      </trkpt>
      <trkpt lat="42.90457" lon="0.20955">
        <ele>1739.64</ele>
        <time>2016-07-05T13:41:39Z</time>
      </trkpt>
      <trkpt lat="42.90465" lon="0.20948">
        <ele>1737.24</ele>
        <time>2016-07-05T13:41:51Z</time>
      </trkpt>
      <trkpt lat="42.90467" lon="0.2095">
        <ele>1736.28</ele>
        <time>2016-07-05T13:42:02Z</time>
      </trkpt>
      <trkpt lat="42.90475" lon="0.20951">
        <ele>1733.39</ele>
        <time>2016-07-05T13:42:12Z</time>
      </trkpt>
      <trkpt lat="42.90478" lon="0.20959">
        <ele>1730.03</ele>
        <time>2016-07-05T13:42:24Z</time>
      </trkpt>
      <trkpt lat="42.90484" lon="0.20963">
        <ele>1726.67</ele>
        <time>2016-07-05T13:42:34Z</time>
      </trkpt>
      <trkpt lat="42.90485" lon="0.20963">
        <ele>1726.18</ele>
        <time>2016-07-05T13:42:36Z</time>
      </trkpt>
      <trkpt lat="42.90492" lon="0.20959">
        <ele>1722.82</ele>
        <time>2016-07-05T13:42:47Z</time>
      </trkpt>
      <trkpt lat="42.90492" lon="0.20958">
        <ele>1722.34</ele>
        <time>2016-07-05T13:42:48Z</time>
      </trkpt>
      <trkpt lat="42.90495" lon="0.20954">
        <ele>1720.9</ele>
        <time>2016-07-05T13:42:53Z</time>
      </trkpt>
      <trkpt lat="42.90501" lon="0.20949">
        <ele>1719.46</ele>
        <time>2016-07-05T13:42:59Z</time>
      </trkpt>
      <trkpt lat="42.90506" lon="0.20945">
        <ele>1717.53</ele>
        <time>2016-07-05T13:43:06Z</time>
      </trkpt>
      <trkpt lat="42.9051" lon="0.20936">
        <ele>1714.17</ele>
        <time>2016-07-05T13:43:18Z</time>
      </trkpt>
      <trkpt lat="42.90518" lon="0.20936">
        <ele>1713.21</ele>
        <time>2016-07-05T13:43:24Z</time>
      </trkpt>
      <trkpt lat="42.90524" lon="0.20928">
        <ele>1710.8</ele>
        <time>2016-07-05T13:43:37Z</time>
      </trkpt>
      <trkpt lat="42.90533" lon="0.20923">
        <ele>1707.92</ele>
        <time>2016-07-05T13:43:48Z</time>
      </trkpt>
      <trkpt lat="42.90536" lon="0.20926">
        <ele>1706.48</ele>
        <time>2016-07-05T13:43:52Z</time>
      </trkpt>
      <trkpt lat="42.90541" lon="0.20924">
        <ele>1703.59</ele>
        <time>2016-07-05T13:44:02Z</time>
      </trkpt>
      <trkpt lat="42.90539" lon="0.20922">
        <ele>1702.15</ele>
        <time>2016-07-05T13:44:06Z</time>
      </trkpt>
      <trkpt lat="42.90539" lon="0.20916">
        <ele>1700.23</ele>
        <time>2016-07-05T13:44:13Z</time>
      </trkpt>
      <trkpt lat="42.90546" lon="0.20913">
        <ele>1697.34</ele>
        <time>2016-07-05T13:44:24Z</time>
      </trkpt>
      <trkpt lat="42.90557" lon="0.20915">
        <ele>1694.46</ele>
        <time>2016-07-05T13:44:36Z</time>
      </trkpt>
      <trkpt lat="42.90558" lon="0.20918">
        <ele>1694.46</ele>
        <time>2016-07-05T13:44:45Z</time>
      </trkpt>
      <trkpt lat="42.9056" lon="0.20917">
        <ele>1694.46</ele>
        <time>2016-07-05T13:44:48Z</time>
      </trkpt>
      <trkpt lat="42.90571" lon="0.20918">
        <ele>1691.58</ele>
        <time>2016-07-05T13:45:02Z</time>
      </trkpt>
      <trkpt lat="42.9057" lon="0.20917">
        <ele>1691.1</ele>
        <time>2016-07-05T13:45:22Z</time>
      </trkpt>
      <trkpt lat="42.90577" lon="0.20916">
        <ele>1691.1</ele>
        <time>2016-07-05T13:45:39Z</time>
      </trkpt>
      <trkpt lat="42.90571" lon="0.20918">
        <ele>1691.1</ele>
        <time>2016-07-05T13:46:03Z</time>
      </trkpt>
      <trkpt lat="42.90574" lon="0.20919">
        <ele>1690.62</ele>
        <time>2016-07-05T13:46:07Z</time>
      </trkpt>
      <trkpt lat="42.90572" lon="0.2092">
        <ele>1690.14</ele>
        <time>2016-07-05T13:46:19Z</time>
      </trkpt>
      <trkpt lat="42.90566" lon="0.20912">
        <ele>1689.65</ele>
        <time>2016-07-05T13:46:43Z</time>
      </trkpt>
      <trkpt lat="42.90562" lon="0.20915">
        <ele>1690.14</ele>
        <time>2016-07-05T13:46:58Z</time>
      </trkpt>
      <trkpt lat="42.90564" lon="0.20914">
        <ele>1689.65</ele>
        <time>2016-07-05T13:47:29Z</time>
      </trkpt>
      <trkpt lat="42.90564" lon="0.20916">
        <ele>1689.17</ele>
        <time>2016-07-05T13:48:00Z</time>
      </trkpt>
      <trkpt lat="42.90566" lon="0.20918">
        <ele>1688.69</ele>
        <time>2016-07-05T13:48:14Z</time>
      </trkpt>
      <trkpt lat="42.90571" lon="0.20916">
        <ele>1688.69</ele>
        <time>2016-07-05T13:48:41Z</time>
      </trkpt>
      <trkpt lat="42.90572" lon="0.20915">
        <ele>1690.14</ele>
        <time>2016-07-05T13:49:06Z</time>
      </trkpt>
      <trkpt lat="42.90575" lon="0.20926">
        <ele>1687.73</ele>
        <time>2016-07-05T13:49:21Z</time>
      </trkpt>
      <trkpt lat="42.90575" lon="0.20927">
        <ele>1687.25</ele>
        <time>2016-07-05T13:49:32Z</time>
      </trkpt>
      <trkpt lat="42.90575" lon="0.20931">
        <ele>1682.93</ele>
        <time>2016-07-05T13:49:43Z</time>
      </trkpt>
      <trkpt lat="42.90575" lon="0.20929">
        <ele>1690.14</ele>
        <time>2016-07-05T13:49:46Z</time>
      </trkpt>
      <trkpt lat="42.90575" lon="0.2093">
        <ele>1682.44</ele>
        <time>2016-07-05T13:49:47Z</time>
      </trkpt>
      <trkpt lat="42.90576" lon="0.2093">
        <ele>1688.69</ele>
        <time>2016-07-05T13:49:48Z</time>
      </trkpt>
      <trkpt lat="42.90576" lon="0.20931">
        <ele>1684.85</ele>
        <time>2016-07-05T13:49:49Z</time>
      </trkpt>
      <trkpt lat="42.90563" lon="0.20926">
        <ele>1684.37</ele>
        <time>2016-07-05T13:50:10Z</time>
      </trkpt>
      <trkpt lat="42.90564" lon="0.20935">
        <ele>1682.44</ele>
        <time>2016-07-05T13:50:16Z</time>
      </trkpt>
      <trkpt lat="42.9056" lon="0.20943">
        <ele>1680.04</ele>
        <time>2016-07-05T13:50:23Z</time>
      </trkpt>
      <trkpt lat="42.90557" lon="0.20952">
        <ele>1678.12</ele>
        <time>2016-07-05T13:50:31Z</time>
      </trkpt>
      <trkpt lat="42.90557" lon="0.2097">
        <ele>1675.23</ele>
        <time>2016-07-05T13:50:45Z</time>
      </trkpt>
      <trkpt lat="42.90559" lon="0.20974">
        <ele>1673.79</ele>
        <time>2016-07-05T13:50:48Z</time>
      </trkpt>
      <trkpt lat="42.90559" lon="0.20979">
        <ele>1672.83</ele>
        <time>2016-07-05T13:50:51Z</time>
      </trkpt>
      <trkpt lat="42.90561" lon="0.20994">
        <ele>1669.47</ele>
        <time>2016-07-05T13:51:02Z</time>
      </trkpt>
      <trkpt lat="42.90561" lon="0.21001">
        <ele>1665.62</ele>
        <time>2016-07-05T13:51:06Z</time>
      </trkpt>
      <trkpt lat="42.9056" lon="0.21008">
        <ele>1668.99</ele>
        <time>2016-07-05T13:51:10Z</time>
      </trkpt>
      <trkpt lat="42.90559" lon="0.21011">
        <ele>1667.06</ele>
        <time>2016-07-05T13:51:12Z</time>
      </trkpt>
      <trkpt lat="42.9056" lon="0.21024">
        <ele>1666.1</ele>
        <time>2016-07-05T13:51:22Z</time>
      </trkpt>
      <trkpt lat="42.9057" lon="0.21031">
        <ele>1662.26</ele>
        <time>2016-07-05T13:51:32Z</time>
      </trkpt>
      <trkpt lat="42.90575" lon="0.21038">
        <ele>1659.37</ele>
        <time>2016-07-05T13:51:40Z</time>
      </trkpt>
      <trkpt lat="42.90583" lon="0.21043">
        <ele>1656.01</ele>
        <time>2016-07-05T13:51:49Z</time>
      </trkpt>
      <trkpt lat="42.90588" lon="0.21051">
        <ele>1653.12</ele>
        <time>2016-07-05T13:51:58Z</time>
      </trkpt>
      <trkpt lat="42.9059" lon="0.21057">
        <ele>1652.64</ele>
        <time>2016-07-05T13:52:01Z</time>
      </trkpt>
      <trkpt lat="42.90594" lon="0.21062">
        <ele>1650.72</ele>
        <time>2016-07-05T13:52:05Z</time>
      </trkpt>
      <trkpt lat="42.90601" lon="0.21075">
        <ele>1646.88</ele>
        <time>2016-07-05T13:52:15Z</time>
      </trkpt>
      <trkpt lat="42.90606" lon="0.21085">
        <ele>1645.43</ele>
        <time>2016-07-05T13:52:23Z</time>
      </trkpt>
      <trkpt lat="42.9061" lon="0.21095">
        <ele>1643.51</ele>
        <time>2016-07-05T13:52:35Z</time>
      </trkpt>
      <trkpt lat="42.90611" lon="0.21095">
        <ele>1643.03</ele>
        <time>2016-07-05T13:52:36Z</time>
      </trkpt>
      <trkpt lat="42.90621" lon="0.21098">
        <ele>1642.07</ele>
        <time>2016-07-05T13:52:49Z</time>
      </trkpt>
      <trkpt lat="42.90624" lon="0.21102">
        <ele>1641.59</ele>
        <time>2016-07-05T13:52:57Z</time>
      </trkpt>
      <trkpt lat="42.90636" lon="0.21115">
        <ele>1639.19</ele>
        <time>2016-07-05T13:53:07Z</time>
      </trkpt>
      <trkpt lat="42.90646" lon="0.21124">
        <ele>1636.3</ele>
        <time>2016-07-05T13:53:15Z</time>
      </trkpt>
      <trkpt lat="42.90658" lon="0.21133">
        <ele>1633.9</ele>
        <time>2016-07-05T13:53:23Z</time>
      </trkpt>
      <trkpt lat="42.9066" lon="0.21139">
        <ele>1633.42</ele>
        <time>2016-07-05T13:53:27Z</time>
      </trkpt>
      <trkpt lat="42.90663" lon="0.21141">
        <ele>1632.46</ele>
        <time>2016-07-05T13:53:30Z</time>
      </trkpt>
      <trkpt lat="42.90669" lon="0.21142">
        <ele>1632.46</ele>
        <time>2016-07-05T13:53:34Z</time>
      </trkpt>
      <trkpt lat="42.90672" lon="0.21141">
        <ele>1632.46</ele>
        <time>2016-07-05T13:53:36Z</time>
      </trkpt>
      <trkpt lat="42.90676" lon="0.21142">
        <ele>1631.98</ele>
        <time>2016-07-05T13:53:39Z</time>
      </trkpt>
      <trkpt lat="42.90691" lon="0.21149">
        <ele>1630.53</ele>
        <time>2016-07-05T13:53:50Z</time>
      </trkpt>
      <trkpt lat="42.9071" lon="0.2115">
        <ele>1628.61</ele>
        <time>2016-07-05T13:54:05Z</time>
      </trkpt>
      <trkpt lat="42.90713" lon="0.21151">
        <ele>1629.09</ele>
        <time>2016-07-05T13:54:08Z</time>
      </trkpt>
      <trkpt lat="42.90712" lon="0.21179">
        <ele>1628.61</ele>
        <time>2016-07-05T13:54:21Z</time>
      </trkpt>
      <trkpt lat="42.90727" lon="0.21193">
        <ele>1612.75</ele>
        <time>2016-07-05T13:56:06Z</time>
      </trkpt>
      <trkpt lat="42.9073" lon="0.212">
        <ele>1612.27</ele>
        <time>2016-07-05T13:56:13Z</time>
      </trkpt>
      <trkpt lat="42.90743" lon="0.21213">
        <ele>1611.31</ele>
        <time>2016-07-05T13:56:26Z</time>
      </trkpt>
      <trkpt lat="42.90748" lon="0.21222">
        <ele>1610.83</ele>
        <time>2016-07-05T13:56:35Z</time>
      </trkpt>
      <trkpt lat="42.9075" lon="0.21229">
        <ele>1610.35</ele>
        <time>2016-07-05T13:56:39Z</time>
      </trkpt>
      <trkpt lat="42.90751" lon="0.21233">
        <ele>1609.38</ele>
        <time>2016-07-05T13:56:41Z</time>
      </trkpt>
      <trkpt lat="42.90757" lon="0.21244">
        <ele>1608.42</ele>
        <time>2016-07-05T13:56:51Z</time>
      </trkpt>
      <trkpt lat="42.90756" lon="0.21251">
        <ele>1608.42</ele>
        <time>2016-07-05T13:56:57Z</time>
      </trkpt>
      <trkpt lat="42.9076" lon="0.21268">
        <ele>1607.94</ele>
        <time>2016-07-05T13:57:08Z</time>
      </trkpt>
      <trkpt lat="42.90761" lon="0.21274">
        <ele>1608.42</ele>
        <time>2016-07-05T13:57:14Z</time>
      </trkpt>
      <trkpt lat="42.90769" lon="0.21283">
        <ele>1607.46</ele>
        <time>2016-07-05T13:57:24Z</time>
      </trkpt>
      <trkpt lat="42.90782" lon="0.21291">
        <ele>1604.58</ele>
        <time>2016-07-05T13:57:37Z</time>
      </trkpt>
      <trkpt lat="42.90785" lon="0.21293">
        <ele>1604.1</ele>
        <time>2016-07-05T13:57:41Z</time>
      </trkpt>
      <trkpt lat="42.90798" lon="0.21303">
        <ele>1605.06</ele>
        <time>2016-07-05T13:57:56Z</time>
      </trkpt>
      <trkpt lat="42.90808" lon="0.21309">
        <ele>1605.54</ele>
        <time>2016-07-05T13:58:08Z</time>
      </trkpt>
      <trkpt lat="42.90815" lon="0.21317">
        <ele>1604.58</ele>
        <time>2016-07-05T13:58:18Z</time>
      </trkpt>
      <trkpt lat="42.9082" lon="0.21323">
        <ele>1604.1</ele>
        <time>2016-07-05T13:58:27Z</time>
      </trkpt>
      <trkpt lat="42.90825" lon="0.21333">
        <ele>1603.14</ele>
        <time>2016-07-05T13:58:34Z</time>
      </trkpt>
      <trkpt lat="42.90839" lon="0.21347">
        <ele>1601.21</ele>
        <time>2016-07-05T13:58:49Z</time>
      </trkpt>
      <trkpt lat="42.90852" lon="0.21363">
        <ele>1599.29</ele>
        <time>2016-07-05T13:59:03Z</time>
      </trkpt>
      <trkpt lat="42.9086" lon="0.21373">
        <ele>1598.33</ele>
        <time>2016-07-05T13:59:13Z</time>
      </trkpt>
      <trkpt lat="42.90861" lon="0.21377">
        <ele>1597.85</ele>
        <time>2016-07-05T13:59:16Z</time>
      </trkpt>
      <trkpt lat="42.90877" lon="0.21392">
        <ele>1596.41</ele>
        <time>2016-07-05T13:59:33Z</time>
      </trkpt>
      <trkpt lat="42.90883" lon="0.21396">
        <ele>1594.96</ele>
        <time>2016-07-05T13:59:41Z</time>
      </trkpt>
      <trkpt lat="42.90886" lon="0.214">
        <ele>1594.96</ele>
        <time>2016-07-05T13:59:44Z</time>
      </trkpt>
      <trkpt lat="42.90894" lon="0.21412">
        <ele>1594</ele>
        <time>2016-07-05T13:59:56Z</time>
      </trkpt>
      <trkpt lat="42.90895" lon="0.21415">
        <ele>1593.52</ele>
        <time>2016-07-05T14:00:01Z</time>
      </trkpt>
      <trkpt lat="42.90902" lon="0.21425">
        <ele>1593.04</ele>
        <time>2016-07-05T14:00:14Z</time>
      </trkpt>
      <trkpt lat="42.90913" lon="0.21432">
        <ele>1592.08</ele>
        <time>2016-07-05T14:00:25Z</time>
      </trkpt>
      <trkpt lat="42.90917" lon="0.21437">
        <ele>1593.04</ele>
        <time>2016-07-05T14:00:32Z</time>
      </trkpt>
      <trkpt lat="42.90925" lon="0.21439">
        <ele>1593.04</ele>
        <time>2016-07-05T14:00:39Z</time>
      </trkpt>
      <trkpt lat="42.90927" lon="0.21441">
        <ele>1592.56</ele>
        <time>2016-07-05T14:00:42Z</time>
      </trkpt>
      <trkpt lat="42.9094" lon="0.21447">
        <ele>1591.6</ele>
        <time>2016-07-05T14:00:55Z</time>
      </trkpt>
      <trkpt lat="42.90949" lon="0.21452">
        <ele>1589.68</ele>
        <time>2016-07-05T14:01:07Z</time>
      </trkpt>
      <trkpt lat="42.9095" lon="0.21453">
        <ele>1589.68</ele>
        <time>2016-07-05T14:01:08Z</time>
      </trkpt>
      <trkpt lat="42.90952" lon="0.21455">
        <ele>1588.72</ele>
        <time>2016-07-05T14:01:11Z</time>
      </trkpt>
      <trkpt lat="42.90956" lon="0.21459">
        <ele>1588.24</ele>
        <time>2016-07-05T14:01:16Z</time>
      </trkpt>
      <trkpt lat="42.90965" lon="0.21468">
        <ele>1587.75</ele>
        <time>2016-07-05T14:01:26Z</time>
      </trkpt>
      <trkpt lat="42.90967" lon="0.21468">
        <ele>1587.75</ele>
        <time>2016-07-05T14:01:28Z</time>
      </trkpt>
      <trkpt lat="42.90982" lon="0.21479">
        <ele>1584.39</ele>
        <time>2016-07-05T14:01:45Z</time>
      </trkpt>
      <trkpt lat="42.90996" lon="0.21489">
        <ele>1582.95</ele>
        <time>2016-07-05T14:02:00Z</time>
      </trkpt>
      <trkpt lat="42.91001" lon="0.21491">
        <ele>1582.95</ele>
        <time>2016-07-05T14:02:05Z</time>
      </trkpt>
      <trkpt lat="42.91011" lon="0.21505">
        <ele>1582.47</ele>
        <time>2016-07-05T14:02:17Z</time>
      </trkpt>
      <trkpt lat="42.91024" lon="0.21512">
        <ele>1580.54</ele>
        <time>2016-07-05T14:02:31Z</time>
      </trkpt>
      <trkpt lat="42.91027" lon="0.21519">
        <ele>1579.58</ele>
        <time>2016-07-05T14:02:38Z</time>
      </trkpt>
      <trkpt lat="42.91032" lon="0.21526">
        <ele>1577.66</ele>
        <time>2016-07-05T14:02:49Z</time>
      </trkpt>
      <trkpt lat="42.91044" lon="0.21526">
        <ele>1576.7</ele>
        <time>2016-07-05T14:03:02Z</time>
      </trkpt>
      <trkpt lat="42.91048" lon="0.21528">
        <ele>1576.22</ele>
        <time>2016-07-05T14:03:05Z</time>
      </trkpt>
      <trkpt lat="42.91053" lon="0.21529">
        <ele>1574.78</ele>
        <time>2016-07-05T14:03:17Z</time>
      </trkpt>
      <trkpt lat="42.91055" lon="0.21529">
        <ele>1573.82</ele>
        <time>2016-07-05T14:03:22Z</time>
      </trkpt>
      <trkpt lat="42.91063" lon="0.21531">
        <ele>1571.89</ele>
        <time>2016-07-05T14:03:31Z</time>
      </trkpt>
      <trkpt lat="42.91071" lon="0.21531">
        <ele>1571.41</ele>
        <time>2016-07-05T14:03:39Z</time>
      </trkpt>
      <trkpt lat="42.91072" lon="0.21531">
        <ele>1571.41</ele>
        <time>2016-07-05T14:03:41Z</time>
      </trkpt>
      <trkpt lat="42.91078" lon="0.21524">
        <ele>1570.93</ele>
        <time>2016-07-05T14:03:48Z</time>
      </trkpt>
      <trkpt lat="42.91081" lon="0.21521">
        <ele>1570.93</ele>
        <time>2016-07-05T14:03:51Z</time>
      </trkpt>
      <trkpt lat="42.91087" lon="0.21503">
        <ele>1574.3</ele>
        <time>2016-07-05T14:04:05Z</time>
      </trkpt>
      <trkpt lat="42.91092" lon="0.21496">
        <ele>1577.18</ele>
        <time>2016-07-05T14:04:16Z</time>
      </trkpt>
      <trkpt lat="42.91092" lon="0.21493">
        <ele>1577.66</ele>
        <time>2016-07-05T14:04:18Z</time>
      </trkpt>
      <trkpt lat="42.91097" lon="0.21489">
        <ele>1578.62</ele>
        <time>2016-07-05T14:04:25Z</time>
      </trkpt>
      <trkpt lat="42.91099" lon="0.21489">
        <ele>1578.62</ele>
        <time>2016-07-05T14:04:27Z</time>
      </trkpt>
      <trkpt lat="42.91111" lon="0.21476">
        <ele>1578.14</ele>
        <time>2016-07-05T14:04:40Z</time>
      </trkpt>
      <trkpt lat="42.91116" lon="0.21471">
        <ele>1579.1</ele>
        <time>2016-07-05T14:04:46Z</time>
      </trkpt>
      <trkpt lat="42.91124" lon="0.2147">
        <ele>1580.06</ele>
        <time>2016-07-05T14:04:58Z</time>
      </trkpt>
      <trkpt lat="42.91128" lon="0.21476">
        <ele>1579.1</ele>
        <time>2016-07-05T14:05:04Z</time>
      </trkpt>
      <trkpt lat="42.91137" lon="0.2148">
        <ele>1576.7</ele>
        <time>2016-07-05T14:05:14Z</time>
      </trkpt>
      <trkpt lat="42.91141" lon="0.21485">
        <ele>1575.26</ele>
        <time>2016-07-05T14:05:18Z</time>
      </trkpt>
      <trkpt lat="42.91144" lon="0.21491">
        <ele>1574.3</ele>
        <time>2016-07-05T14:05:22Z</time>
      </trkpt>
      <trkpt lat="42.91147" lon="0.21498">
        <ele>1573.82</ele>
        <time>2016-07-05T14:05:27Z</time>
      </trkpt>
      <trkpt lat="42.91164" lon="0.21509">
        <ele>1572.85</ele>
        <time>2016-07-05T14:05:42Z</time>
      </trkpt>
      <trkpt lat="42.91176" lon="0.21521">
        <ele>1573.82</ele>
        <time>2016-07-05T14:05:55Z</time>
      </trkpt>
      <trkpt lat="42.91177" lon="0.21531">
        <ele>1573.33</ele>
        <time>2016-07-05T14:06:01Z</time>
      </trkpt>
      <trkpt lat="42.91177" lon="0.21537">
        <ele>1573.33</ele>
        <time>2016-07-05T14:06:06Z</time>
      </trkpt>
      <trkpt lat="42.91192" lon="0.21549">
        <ele>1570.45</ele>
        <time>2016-07-05T14:06:20Z</time>
      </trkpt>
      <trkpt lat="42.91199" lon="0.21561">
        <ele>1569.49</ele>
        <time>2016-07-05T14:06:30Z</time>
      </trkpt>
      <trkpt lat="42.91218" lon="0.21578">
        <ele>1569.97</ele>
        <time>2016-07-05T14:06:48Z</time>
      </trkpt>
      <trkpt lat="42.91227" lon="0.21583">
        <ele>1570.93</ele>
        <time>2016-07-05T14:06:57Z</time>
      </trkpt>
      <trkpt lat="42.91247" lon="0.21593">
        <ele>1572.37</ele>
        <time>2016-07-05T14:07:14Z</time>
      </trkpt>
      <trkpt lat="42.91262" lon="0.21602">
        <ele>1572.85</ele>
        <time>2016-07-05T14:07:28Z</time>
      </trkpt>
      <trkpt lat="42.9126" lon="0.216">
        <ele>1573.33</ele>
        <time>2016-07-05T14:07:30Z</time>
      </trkpt>
      <trkpt lat="42.91262" lon="0.216">
        <ele>1572.85</ele>
        <time>2016-07-05T14:07:32Z</time>
      </trkpt>
      <trkpt lat="42.91265" lon="0.21601">
        <ele>1572.85</ele>
        <time>2016-07-05T14:07:34Z</time>
      </trkpt>
      <trkpt lat="42.91284" lon="0.21614">
        <ele>1573.33</ele>
        <time>2016-07-05T14:07:51Z</time>
      </trkpt>
      <trkpt lat="42.91299" lon="0.21621">
        <ele>1573.33</ele>
        <time>2016-07-05T14:08:06Z</time>
      </trkpt>
      <trkpt lat="42.91306" lon="0.21623">
        <ele>1573.33</ele>
        <time>2016-07-05T14:08:12Z</time>
      </trkpt>
      <trkpt lat="42.91312" lon="0.21625">
        <ele>1573.82</ele>
        <time>2016-07-05T14:08:18Z</time>
      </trkpt>
      <trkpt lat="42.91329" lon="0.21638">
        <ele>1573.82</ele>
        <time>2016-07-05T14:08:33Z</time>
      </trkpt>
      <trkpt lat="42.91343" lon="0.21644">
        <ele>1575.26</ele>
        <time>2016-07-05T14:08:46Z</time>
      </trkpt>
      <trkpt lat="42.91347" lon="0.21647">
        <ele>1575.26</ele>
        <time>2016-07-05T14:08:50Z</time>
      </trkpt>
      <trkpt lat="42.91363" lon="0.21659">
        <ele>1575.26</ele>
        <time>2016-07-05T14:09:05Z</time>
      </trkpt>
      <trkpt lat="42.91382" lon="0.21669">
        <ele>1574.3</ele>
        <time>2016-07-05T14:09:21Z</time>
      </trkpt>
      <trkpt lat="42.914" lon="0.21677">
        <ele>1573.33</ele>
        <time>2016-07-05T14:09:35Z</time>
      </trkpt>
      <trkpt lat="42.9141" lon="0.21679">
        <ele>1572.85</ele>
        <time>2016-07-05T14:09:43Z</time>
      </trkpt>
      <trkpt lat="42.91416" lon="0.21682">
        <ele>1572.85</ele>
        <time>2016-07-05T14:09:48Z</time>
      </trkpt>
      <trkpt lat="42.91438" lon="0.21679">
        <ele>1572.37</ele>
        <time>2016-07-05T14:10:05Z</time>
      </trkpt>
      <trkpt lat="42.91462" lon="0.21674">
        <ele>1572.37</ele>
        <time>2016-07-05T14:10:24Z</time>
      </trkpt>
      <trkpt lat="42.91476" lon="0.21661">
        <ele>1572.37</ele>
        <time>2016-07-05T14:10:38Z</time>
      </trkpt>
      <trkpt lat="42.9149" lon="0.21643">
        <ele>1571.41</ele>
        <time>2016-07-05T14:10:54Z</time>
      </trkpt>
      <trkpt lat="42.91496" lon="0.21636">
        <ele>1570.45</ele>
        <time>2016-07-05T14:11:01Z</time>
      </trkpt>
      <trkpt lat="42.91498" lon="0.21633">
        <ele>1570.45</ele>
        <time>2016-07-05T14:11:03Z</time>
      </trkpt>
      <trkpt lat="42.91508" lon="0.21622">
        <ele>1569.97</ele>
        <time>2016-07-05T14:11:13Z</time>
      </trkpt>
      <trkpt lat="42.91522" lon="0.21601">
        <ele>1569.49</ele>
        <time>2016-07-05T14:11:29Z</time>
      </trkpt>
      <trkpt lat="42.91528" lon="0.21591">
        <ele>1569.49</ele>
        <time>2016-07-05T14:11:43Z</time>
      </trkpt>
      <trkpt lat="42.91529" lon="0.21593">
        <ele>1569.49</ele>
        <time>2016-07-05T14:11:59Z</time>
      </trkpt>
      <trkpt lat="42.91527" lon="0.2159">
        <ele>1569.49</ele>
        <time>2016-07-05T14:12:19Z</time>
      </trkpt>
      <trkpt lat="42.91527" lon="0.21587">
        <ele>1569.49</ele>
        <time>2016-07-05T14:12:44Z</time>
      </trkpt>
      <trkpt lat="42.91531" lon="0.21584">
        <ele>1569.01</ele>
        <time>2016-07-05T14:12:57Z</time>
      </trkpt>
      <trkpt lat="42.91529" lon="0.21584">
        <ele>1569.01</ele>
        <time>2016-07-05T14:13:16Z</time>
      </trkpt>
      <trkpt lat="42.91536" lon="0.21562">
        <ele>1568.53</ele>
        <time>2016-07-05T14:13:29Z</time>
      </trkpt>
      <trkpt lat="42.91544" lon="0.2153">
        <ele>1567.09</ele>
        <time>2016-07-05T14:13:46Z</time>
      </trkpt>
      <trkpt lat="42.91545" lon="0.21517">
        <ele>1566.12</ele>
        <time>2016-07-05T14:13:53Z</time>
      </trkpt>
      <trkpt lat="42.91548" lon="0.21511">
        <ele>1565.16</ele>
        <time>2016-07-05T14:13:57Z</time>
      </trkpt>
      <trkpt lat="42.91557" lon="0.2149">
        <ele>1563.24</ele>
        <time>2016-07-05T14:14:11Z</time>
      </trkpt>
      <trkpt lat="42.91565" lon="0.21463">
        <ele>1562.28</ele>
        <time>2016-07-05T14:14:26Z</time>
      </trkpt>
      <trkpt lat="42.91571" lon="0.21435">
        <ele>1559.4</ele>
        <time>2016-07-05T14:14:41Z</time>
      </trkpt>
      <trkpt lat="42.91572" lon="0.21432">
        <ele>1558.43</ele>
        <time>2016-07-05T14:14:43Z</time>
      </trkpt>
      <trkpt lat="42.91576" lon="0.21419">
        <ele>1556.51</ele>
        <time>2016-07-05T14:14:51Z</time>
      </trkpt>
      <trkpt lat="42.91581" lon="0.21405">
        <ele>1553.15</ele>
        <time>2016-07-05T14:15:00Z</time>
      </trkpt>
      <trkpt lat="42.91583" lon="0.214">
        <ele>1551.71</ele>
        <time>2016-07-05T14:15:04Z</time>
      </trkpt>
      <trkpt lat="42.91584" lon="0.21398">
        <ele>1551.22</ele>
        <time>2016-07-05T14:15:06Z</time>
      </trkpt>
      <trkpt lat="42.91587" lon="0.21386">
        <ele>1546.9</ele>
        <time>2016-07-05T14:15:18Z</time>
      </trkpt>
      <trkpt lat="42.91587" lon="0.21385">
        <ele>1546.9</ele>
        <time>2016-07-05T14:15:19Z</time>
      </trkpt>
      <trkpt lat="42.91585" lon="0.21379">
        <ele>1544.98</ele>
        <time>2016-07-05T14:15:24Z</time>
      </trkpt>
      <trkpt lat="42.91586" lon="0.21377">
        <ele>1544.5</ele>
        <time>2016-07-05T14:15:26Z</time>
      </trkpt>
      <trkpt lat="42.91589" lon="0.21367">
        <ele>1541.13</ele>
        <time>2016-07-05T14:15:38Z</time>
      </trkpt>
      <trkpt lat="42.91589" lon="0.21365">
        <ele>1540.65</ele>
        <time>2016-07-05T14:15:39Z</time>
      </trkpt>
      <trkpt lat="42.91587" lon="0.21353">
        <ele>1537.29</ele>
        <time>2016-07-05T14:15:51Z</time>
      </trkpt>
      <trkpt lat="42.91586" lon="0.21346">
        <ele>1533.92</ele>
        <time>2016-07-05T14:16:01Z</time>
      </trkpt>
      <trkpt lat="42.91585" lon="0.21343">
        <ele>1532.96</ele>
        <time>2016-07-05T14:16:05Z</time>
      </trkpt>
      <trkpt lat="42.91587" lon="0.21338">
        <ele>1530.56</ele>
        <time>2016-07-05T14:16:12Z</time>
      </trkpt>
      <trkpt lat="42.9159" lon="0.2133">
        <ele>1527.19</ele>
        <time>2016-07-05T14:16:24Z</time>
      </trkpt>
      <trkpt lat="42.91588" lon="0.21324">
        <ele>1524.79</ele>
        <time>2016-07-05T14:16:35Z</time>
      </trkpt>
      <trkpt lat="42.91589" lon="0.21315">
        <ele>1521.42</ele>
        <time>2016-07-05T14:16:47Z</time>
      </trkpt>
      <trkpt lat="42.91587" lon="0.21312">
        <ele>1520.46</ele>
        <time>2016-07-05T14:16:50Z</time>
      </trkpt>
      <trkpt lat="42.91582" lon="0.21308">
        <ele>1518.54</ele>
        <time>2016-07-05T14:16:57Z</time>
      </trkpt>
      <trkpt lat="42.91581" lon="0.21304">
        <ele>1517.58</ele>
        <time>2016-07-05T14:17:00Z</time>
      </trkpt>
      <trkpt lat="42.91574" lon="0.21292">
        <ele>1514.21</ele>
        <time>2016-07-05T14:17:13Z</time>
      </trkpt>
      <trkpt lat="42.91568" lon="0.21283">
        <ele>1510.85</ele>
        <time>2016-07-05T14:17:27Z</time>
      </trkpt>
      <trkpt lat="42.91567" lon="0.21272">
        <ele>1508.45</ele>
        <time>2016-07-05T14:17:39Z</time>
      </trkpt>
      <trkpt lat="42.91566" lon="0.21266">
        <ele>1506.04</ele>
        <time>2016-07-05T14:17:48Z</time>
      </trkpt>
      <trkpt lat="42.91563" lon="0.21249">
        <ele>1503.16</ele>
        <time>2016-07-05T14:18:02Z</time>
      </trkpt>
      <trkpt lat="42.91561" lon="0.21238">
        <ele>1501.24</ele>
        <time>2016-07-05T14:18:16Z</time>
      </trkpt>
      <trkpt lat="42.91563" lon="0.21232">
        <ele>1499.31</ele>
        <time>2016-07-05T14:18:27Z</time>
      </trkpt>
      <trkpt lat="42.91569" lon="0.21231">
        <ele>1497.39</ele>
        <time>2016-07-05T14:18:37Z</time>
      </trkpt>
      <trkpt lat="42.91569" lon="0.21231">
        <ele>1496.91</ele>
        <time>2016-07-05T14:18:38Z</time>
      </trkpt>
      <trkpt lat="42.91574" lon="0.21219">
        <ele>1493.55</ele>
        <time>2016-07-05T14:18:52Z</time>
      </trkpt>
      <trkpt lat="42.91573" lon="0.2121">
        <ele>1490.66</ele>
        <time>2016-07-05T14:19:03Z</time>
      </trkpt>
      <trkpt lat="42.91567" lon="0.21199">
        <ele>1488.26</ele>
        <time>2016-07-05T14:19:16Z</time>
      </trkpt>
      <trkpt lat="42.91564" lon="0.21189">
        <ele>1485.85</ele>
        <time>2016-07-05T14:19:26Z</time>
      </trkpt>
      <trkpt lat="42.91565" lon="0.21176">
        <ele>1482.49</ele>
        <time>2016-07-05T14:19:38Z</time>
      </trkpt>
      <trkpt lat="42.91566" lon="0.21168">
        <ele>1479.13</ele>
        <time>2016-07-05T14:19:50Z</time>
      </trkpt>
      <trkpt lat="42.91566" lon="0.21157">
        <ele>1476.24</ele>
        <time>2016-07-05T14:20:02Z</time>
      </trkpt>
      <trkpt lat="42.91568" lon="0.21149">
        <ele>1473.36</ele>
        <time>2016-07-05T14:20:13Z</time>
      </trkpt>
      <trkpt lat="42.9157" lon="0.21149">
        <ele>1471.92</ele>
        <time>2016-07-05T14:20:19Z</time>
      </trkpt>
      <trkpt lat="42.91572" lon="0.21138">
        <ele>1468.55</ele>
        <time>2016-07-05T14:20:32Z</time>
      </trkpt>
      <trkpt lat="42.91576" lon="0.21132">
        <ele>1465.67</ele>
        <time>2016-07-05T14:20:45Z</time>
      </trkpt>
      <trkpt lat="42.91578" lon="0.2112">
        <ele>1462.3</ele>
        <time>2016-07-05T14:20:58Z</time>
      </trkpt>
      <trkpt lat="42.91583" lon="0.21122">
        <ele>1459.42</ele>
        <time>2016-07-05T14:21:11Z</time>
      </trkpt>
      <trkpt lat="42.91589" lon="0.21117">
        <ele>1456.53</ele>
        <time>2016-07-05T14:21:21Z</time>
      </trkpt>
      <trkpt lat="42.9159" lon="0.21116">
        <ele>1456.05</ele>
        <time>2016-07-05T14:21:22Z</time>
      </trkpt>
      <trkpt lat="42.91595" lon="0.21102">
        <ele>1452.69</ele>
        <time>2016-07-05T14:21:34Z</time>
      </trkpt>
      <trkpt lat="42.91596" lon="0.21099">
        <ele>1452.69</ele>
        <time>2016-07-05T14:21:36Z</time>
      </trkpt>
      <trkpt lat="42.916" lon="0.21089">
        <ele>1450.29</ele>
        <time>2016-07-05T14:21:46Z</time>
      </trkpt>
      <trkpt lat="42.91601" lon="0.21083">
        <ele>1449.32</ele>
        <time>2016-07-05T14:21:50Z</time>
      </trkpt>
      <trkpt lat="42.916" lon="0.21061">
        <ele>1446.44</ele>
        <time>2016-07-05T14:22:03Z</time>
      </trkpt>
      <trkpt lat="42.91603" lon="0.21051">
        <ele>1445</ele>
        <time>2016-07-05T14:22:10Z</time>
      </trkpt>
      <trkpt lat="42.91606" lon="0.21033">
        <ele>1442.6</ele>
        <time>2016-07-05T14:22:22Z</time>
      </trkpt>
      <trkpt lat="42.91613" lon="0.21016">
        <ele>1440.67</ele>
        <time>2016-07-05T14:22:34Z</time>
      </trkpt>
      <trkpt lat="42.91614" lon="0.21013">
        <ele>1440.67</ele>
        <time>2016-07-05T14:22:36Z</time>
      </trkpt>
      <trkpt lat="42.91615" lon="0.21011">
        <ele>1440.67</ele>
        <time>2016-07-05T14:22:38Z</time>
      </trkpt>
      <trkpt lat="42.91618" lon="0.2101">
        <ele>1440.67</ele>
        <time>2016-07-05T14:22:41Z</time>
      </trkpt>
      <trkpt lat="42.91623" lon="0.21011">
        <ele>1441.15</ele>
        <time>2016-07-05T14:22:55Z</time>
      </trkpt>
      <trkpt lat="42.91624" lon="0.2101">
        <ele>1441.15</ele>
        <time>2016-07-05T14:23:01Z</time>
      </trkpt>
      <trkpt lat="42.91625" lon="0.21006">
        <ele>1441.63</ele>
        <time>2016-07-05T14:23:13Z</time>
      </trkpt>
      <trkpt lat="42.91623" lon="0.21007">
        <ele>1442.11</ele>
        <time>2016-07-05T14:23:27Z</time>
      </trkpt>
      <trkpt lat="42.91621" lon="0.21009">
        <ele>1442.11</ele>
        <time>2016-07-05T14:23:51Z</time>
      </trkpt>
      <trkpt lat="42.91622" lon="0.21007">
        <ele>1442.11</ele>
        <time>2016-07-05T14:24:11Z</time>
      </trkpt>
      <trkpt lat="42.91621" lon="0.21007">
        <ele>1442.11</ele>
        <time>2016-07-05T14:24:34Z</time>
      </trkpt>
      <trkpt lat="42.9162" lon="0.21006">
        <ele>1442.11</ele>
        <time>2016-07-05T14:24:58Z</time>
      </trkpt>
      <trkpt lat="42.91625" lon="0.21006">
        <ele>1442.11</ele>
        <time>2016-07-05T14:25:16Z</time>
      </trkpt>
      <trkpt lat="42.9162" lon="0.21008">
        <ele>1441.63</ele>
        <time>2016-07-05T14:25:48Z</time>
      </trkpt>
      <trkpt lat="42.91622" lon="0.21007">
        <ele>1441.63</ele>
        <time>2016-07-05T14:26:07Z</time>
      </trkpt>
      <trkpt lat="42.91628" lon="0.20993">
        <ele>1439.23</ele>
        <time>2016-07-05T14:26:20Z</time>
      </trkpt>
      <trkpt lat="42.91629" lon="0.2099">
        <ele>1438.75</ele>
        <time>2016-07-05T14:26:23Z</time>
      </trkpt>
      <trkpt lat="42.91638" lon="0.20989">
        <ele>1436.35</ele>
        <time>2016-07-05T14:26:32Z</time>
      </trkpt>
      <trkpt lat="42.91637" lon="0.20972">
        <ele>1434.42</ele>
        <time>2016-07-05T14:26:45Z</time>
      </trkpt>
      <trkpt lat="42.91641" lon="0.20959">
        <ele>1431.06</ele>
        <time>2016-07-05T14:26:55Z</time>
      </trkpt>
      <trkpt lat="42.91645" lon="0.20958">
        <ele>1430.58</ele>
        <time>2016-07-05T14:27:02Z</time>
      </trkpt>
      <trkpt lat="42.91648" lon="0.20957">
        <ele>1430.1</ele>
        <time>2016-07-05T14:27:04Z</time>
      </trkpt>
      <trkpt lat="42.91652" lon="0.20954">
        <ele>1429.14</ele>
        <time>2016-07-05T14:27:10Z</time>
      </trkpt>
      <trkpt lat="42.91661" lon="0.20948">
        <ele>1430.1</ele>
        <time>2016-07-05T14:27:25Z</time>
      </trkpt>
      <trkpt lat="42.91659" lon="0.20928">
        <ele>1432.98</ele>
        <time>2016-07-05T14:27:41Z</time>
      </trkpt>
      <trkpt lat="42.91665" lon="0.20921">
        <ele>1435.87</ele>
        <time>2016-07-05T14:27:55Z</time>
      </trkpt>
      <trkpt lat="42.91669" lon="0.20928">
        <ele>1439.23</ele>
        <time>2016-07-05T14:28:09Z</time>
      </trkpt>
      <trkpt lat="42.9167" lon="0.2093">
        <ele>1439.71</ele>
        <time>2016-07-05T14:28:13Z</time>
      </trkpt>
      <trkpt lat="42.9167" lon="0.20937">
        <ele>1440.19</ele>
        <time>2016-07-05T14:28:16Z</time>
      </trkpt>
      <trkpt lat="42.91687" lon="0.20947">
        <ele>1439.71</ele>
        <time>2016-07-05T14:28:32Z</time>
      </trkpt>
      <trkpt lat="42.9169" lon="0.20945">
        <ele>1439.71</ele>
        <time>2016-07-05T14:28:35Z</time>
      </trkpt>
      <trkpt lat="42.91708" lon="0.20925">
        <ele>1439.71</ele>
        <time>2016-07-05T14:28:54Z</time>
      </trkpt>
      <trkpt lat="42.9172" lon="0.20911">
        <ele>1441.15</ele>
        <time>2016-07-05T14:29:08Z</time>
      </trkpt>
      <trkpt lat="42.91726" lon="0.20908">
        <ele>1441.63</ele>
        <time>2016-07-05T14:29:22Z</time>
      </trkpt>
      <trkpt lat="42.91721" lon="0.20907">
        <ele>1441.63</ele>
        <time>2016-07-05T14:30:01Z</time>
      </trkpt>
      <trkpt lat="42.91727" lon="0.20907">
        <ele>1441.63</ele>
        <time>2016-07-05T14:30:12Z</time>
      </trkpt>
      <trkpt lat="42.91728" lon="0.20907">
        <ele>1441.63</ele>
        <time>2016-07-05T14:30:31Z</time>
      </trkpt>
      <trkpt lat="42.91728" lon="0.20907">
        <ele>1441.15</ele>
        <time>2016-07-05T14:30:52Z</time>
      </trkpt>
      <trkpt lat="42.91732" lon="0.2091">
        <ele>1440.67</ele>
        <time>2016-07-05T14:31:04Z</time>
      </trkpt>
      <trkpt lat="42.91731" lon="0.2091">
        <ele>1440.67</ele>
        <time>2016-07-05T14:31:21Z</time>
      </trkpt>
      <trkpt lat="42.91729" lon="0.20913">
        <ele>1440.19</ele>
        <time>2016-07-05T14:31:39Z</time>
      </trkpt>
      <trkpt lat="42.91728" lon="0.20912">
        <ele>1440.67</ele>
        <time>2016-07-05T14:31:52Z</time>
      </trkpt>
      <trkpt lat="42.91726" lon="0.20912">
        <ele>1440.67</ele>
        <time>2016-07-05T14:32:09Z</time>
      </trkpt>
    </trkseg>
  </trk>
</gpx>